Date StartTime U_cm/s V_cm/s W_cm/s Ustd_cm/s Vstd_cm/s Wstd_cm/s Uvar_(cm/s)^2 Vvar_(cm/s)^2 Wvar_(cm/s)^2 KE_(m/s)^2 TurbulentKE_(m/s)^2 HorizWindSpeed_cm/s FrictionSpeec_cm/s DragCoef SpeedOfSound_m/s SonicTemperature_C Pressure_mb 
08/03/2014  00:00:00       39.368       32.058        8.725       55.317       38.472       17.478     3059.985     1480.076      305.465        0.375        0.242       50.769        5.602        0.012      346.621       24.998      863.023
08/03/2014  00:01:00        0.767      -26.529       -3.545       19.404       16.913       13.575      376.531      286.053      184.289        0.078        0.042       26.540        9.914        0.140      346.686       25.111      863.050
08/03/2014  00:02:00       34.843      -50.842        7.082       23.620       20.474       13.925      557.895      419.200      193.906        0.251        0.059       61.636        2.561        0.002      346.733       25.193      863.060
08/03/2014  00:03:00        7.070       50.238       71.026       29.854       55.731       41.951      891.260     3105.929     1759.846        0.669        0.288       50.733       44.734        0.777      346.579       24.929      863.050
08/03/2014  00:04:00        0.767      101.904      117.119       38.884       51.216       34.152     1511.967     2623.079     1166.344        1.470        0.265      101.907       24.765        0.059      346.576       24.924      863.023
08/03/2014  00:05:00       58.469       57.766       41.067       53.777       57.510       45.257     2891.999     3307.348     2048.202        0.834        0.412       82.193       47.477        0.334      346.801       25.311      863.039
08/03/2014  00:06:00       43.170        8.204       28.345       38.927       22.919       16.914     1515.321      525.279      286.074        0.253        0.116       43.943       16.601        0.143      346.821       25.345      863.073
08/03/2014  00:07:00       52.577      -21.475       24.241       50.216       33.279       24.725     2521.612     1107.478      611.320        0.403        0.212       56.794       29.440        0.269      346.896       25.474      863.074
08/03/2014  00:08:00       33.834      -93.754        2.860       35.558       45.656       25.008     1264.383     2084.481      625.402        0.696        0.199       99.672       26.980        0.073      347.061       25.757      863.100
08/03/2014  00:09:00       -5.396     -132.064      -12.325       45.312       52.598       27.648     2053.145     2766.540      764.408        1.160        0.279      132.174       18.922        0.020      347.344       26.244      863.144
08/03/2014  00:10:00       32.637      -69.372        2.637       39.030       41.530       21.296     1523.305     1724.742      453.533        0.479        0.185       76.666       15.560        0.041      347.136       25.888      863.158
08/03/2014  00:11:00       15.361       55.496      104.268       48.707       69.311       48.197     2372.324     4804.059     2322.941        1.184        0.475       57.582       45.469        0.624      346.915       25.506      863.149
08/03/2014  00:12:00       33.848       92.693      107.880       72.040       64.882       52.421     5189.720     4209.691     2747.949        1.676        0.607       98.680       58.152        0.347      346.835       25.369      863.161
08/03/2014  00:13:00       96.470       28.878        3.440       39.213       39.316       20.588     1537.672     1545.785      423.859        0.683        0.175      100.700        8.447        0.007      346.809       25.322      863.185
08/03/2014  00:14:00       41.551        4.968       27.777       44.631       33.496       27.410     1991.898     1121.982      751.301        0.319        0.193       41.847       21.349        0.260      346.699       25.133      863.185
08/03/2014  00:15:00      107.148       24.795       10.515       43.540       31.704       27.606     1895.697     1005.164      762.064        0.793        0.183      109.980       14.842        0.018      346.715       25.165      863.174
08/03/2014  00:16:00       23.926       51.994        3.061       21.499       33.474       23.298      462.199     1120.539      542.808        0.270        0.106       57.235       20.433        0.127      346.608       24.979      863.161
08/03/2014  00:17:00       84.018       68.530        9.136       35.852       30.432       34.401     1285.384      926.077     1183.407        0.762        0.170      108.422       23.578        0.047      346.611       24.983      863.159
08/03/2014  00:18:00      115.697       63.622       27.005       59.255       44.851       35.163     3511.143     2011.610     1236.430        1.246        0.338      132.036       19.747        0.022      346.509       24.805      863.141
08/03/2014  00:19:00      102.221       57.445       42.219       74.594       55.553       48.776     5564.207     3086.149     2379.101        1.328        0.551      117.256       45.270        0.149      346.558       24.891      863.127
08/03/2014  00:20:00      -38.372       34.407        7.349       71.984       40.833       32.971     5181.669     1667.318     1087.063        0.532        0.397       51.538       26.315        0.261      346.620       24.998      863.141
08/03/2014  00:21:00        1.680       48.259        1.837       41.237       33.038       25.611     1700.513     1091.479      655.938        0.289        0.172       48.288       20.000        0.172      346.646       25.043      863.165
08/03/2014  00:22:00       37.781       55.609        2.491       31.542       35.035       32.155      994.867     1227.469     1033.939        0.389        0.163       67.229       27.109        0.163      346.591       24.948      863.159
08/03/2014  00:23:00       25.934       65.507       -0.854       28.393       33.258       26.906      806.155     1106.096      723.952        0.380        0.132       70.454       24.414        0.120      346.567       24.910      863.159
08/03/2014  00:24:00        9.595       81.972       -7.546       29.677       29.049       18.885      880.734      843.827      356.631        0.447        0.104       82.531       17.949        0.047      346.608       24.979      863.177
08/03/2014  00:25:00      -36.208       52.126       -8.313       29.087       41.550       15.476      846.034     1726.404      239.499        0.345        0.141       63.468       17.057        0.072      346.505       24.801      863.189
08/03/2014  00:26:00      -68.525        5.725       -6.642       21.104       20.794       10.843      445.369      432.390      117.572        0.288        0.050       68.764        9.200        0.018      346.375       24.577      863.187
08/03/2014  00:27:00     -112.930       17.704       -9.490       34.914       28.854       15.902     1218.996      832.546      252.868        0.773        0.115      114.310        9.705        0.007      346.405       24.628      863.183
08/03/2014  00:28:00     -128.305       26.116      -11.467       19.581       15.638       13.573      383.420      244.541      184.239        0.904        0.041      130.935        6.754        0.003      346.553       24.883      863.179
08/03/2014  00:29:00      -97.409       54.248      -20.683       31.769       40.924       19.620     1009.300     1674.787      384.960        0.796        0.153      111.496       17.003        0.023      346.620       24.999      863.174
08/03/2014  00:30:00     -123.941       73.978      -19.658       43.280       36.976       32.985     1873.139     1367.245     1087.979        1.277        0.216      144.340       29.952        0.043      346.673       25.089      863.163
08/03/2014  00:31:00     -104.432       -7.555       -8.792       45.620       36.203       17.651     2081.168     1310.624      311.556        0.737        0.185      104.705       13.564        0.017      346.532       24.846      863.155
08/03/2014  00:32:00     -125.405      -46.669       -4.262       25.909       29.159       17.767      671.292      850.222      315.659        0.988        0.092      133.807       14.108        0.011      346.500       24.792      863.153
08/03/2014  00:33:00     -120.940      -25.503      -13.724       30.414       22.099       18.874      924.981      488.387      356.238        0.862        0.088      123.599       15.717        0.016      346.491       24.775      863.164
08/03/2014  00:34:00      -79.565       35.939      -15.300       26.054       37.673       18.269      678.823     1419.244      333.741        0.514        0.122       87.305       16.001        0.034      346.581       24.931      863.157
08/03/2014  00:35:00      -51.762       60.762      -10.454       18.123       33.029       14.720      328.461     1090.915      216.679        0.406        0.082       79.821       16.816        0.044      346.672       25.088      863.146
08/03/2014  00:36:00      -99.292       29.114       -3.397       28.870       21.552       18.740      833.465      464.488      351.183        0.618        0.082      103.472       17.625        0.029      346.670       25.084      863.135
08/03/2014  00:37:00     -107.271        3.078      -12.271       24.722       23.965       13.673      611.156      574.323      186.961        0.652        0.069      107.315        8.147        0.006      346.494       24.781      863.137
08/03/2014  00:38:00     -110.327      -24.603       -1.039       46.214       27.975       22.146     2135.691      782.617      490.467        0.809        0.170      113.037       23.840        0.044      346.334       24.506      863.140
08/03/2014  00:39:00      -57.872      -22.780        4.328       35.997       28.205       20.897     1295.783      795.520      436.703        0.321        0.126       62.194       21.900        0.124      346.288       24.428      863.117
08/03/2014  00:40:00      -49.379      -15.300        3.763       27.118       21.523       14.526      735.389      463.230      211.003        0.205        0.070       51.695       10.858        0.044      346.290       24.431      863.103
08/03/2014  00:41:00     -129.691      -26.157       -1.233       47.948       28.827       24.909     2299.004      831.006      620.468        1.063        0.188      132.302       25.102        0.036      346.207       24.287      863.109
08/03/2014  00:42:00     -119.647      -39.857       -5.677       32.315       37.243       16.508     1044.258     1387.047      272.519        0.932        0.135      126.111       11.159        0.008      346.211       24.295      863.116
08/03/2014  00:43:00      -93.862       29.851       -8.511       37.588       29.487       14.586     1412.838      869.471      212.746        0.613        0.125       98.495       16.765        0.029      346.281       24.416      863.111
08/03/2014  00:44:00      -82.592       83.377      -17.899       23.678       30.038       17.180      560.655      902.301      295.154        0.793        0.088      117.359       15.368        0.017      346.437       24.684      863.098
08/03/2014  00:45:00      -94.619       52.663      -24.747       31.442       32.457       19.651      988.578     1053.482      386.154        0.738        0.121      108.287       16.314        0.023      346.382       24.590      863.091
08/03/2014  00:46:00      -62.634        9.896       -2.947       19.490       19.920       15.975      379.874      396.812      255.207        0.253        0.052       63.411       10.310        0.026      346.352       24.538      863.109
08/03/2014  00:47:00      -55.396      -16.934       -3.859       27.397       20.985       13.065      750.604      440.357      170.703        0.237        0.068       57.926       11.431        0.039      346.262       24.383      863.136
08/03/2014  00:48:00      -31.001       -7.776       -4.514       13.743       10.130       12.879      188.883      102.611      165.857        0.075        0.023       31.962        6.715        0.044      346.255       24.370      863.149
08/03/2014  00:49:00      -38.730       -8.696        1.755       11.465       12.540        9.891      131.447      157.259       97.824        0.098        0.019       39.694        7.372        0.034      346.267       24.393      863.166
08/03/2014  00:50:00      -49.534        4.811       -8.256       22.379       19.074       12.115      500.815      363.799      146.775        0.178        0.051       49.767       11.698        0.055      346.171       24.228      863.199
08/03/2014  00:51:00      -75.980       22.201      -12.143       16.067       19.707       16.846      258.137      388.382      283.783        0.367        0.047       79.157       13.458        0.029      346.246       24.356      863.230
08/03/2014  00:52:00      -65.776       13.613       -8.902       23.752       41.874       16.564      564.143     1753.462      274.366        0.359        0.130       67.170       15.250        0.052      346.224       24.319      863.246
08/03/2014  00:53:00      -63.234      -20.470       -7.168       29.617       13.541       11.015      877.183      183.348      121.336        0.283        0.059       66.465        9.142        0.019      346.054       24.024      863.245
08/03/2014  00:54:00      -35.620       -7.726        1.294       19.584       13.850        9.040      383.529      191.831       81.718        0.099        0.033       36.448        9.035        0.061      346.060       24.035      863.245
08/03/2014  00:55:00      -29.565      -16.860       -3.607       20.615       21.754       14.381      424.958      473.215      206.816        0.114        0.055       34.035       12.835        0.142      346.129       24.153      863.249
08/03/2014  00:56:00      -34.952       -8.610      -11.494       22.845       13.113        9.185      521.913      171.963       84.357        0.110        0.039       35.997       10.985        0.093      346.234       24.336      863.259
08/03/2014  00:57:00      -40.698       -8.271        0.012       22.025       17.840       11.833      485.109      318.280      140.009        0.133        0.047       41.530       11.154        0.072      346.220       24.312      863.261
08/03/2014  00:58:00      -12.418        5.563       -0.940       16.651       15.599       11.451      277.256      243.322      131.128        0.042        0.033       13.607       11.361        0.697      346.148       24.187      863.266
08/03/2014  00:59:00      -18.692       12.252        3.110       25.824       18.431       22.510      666.861      339.693      506.714        0.101        0.076       22.350       15.597        0.487      346.181       24.243      863.262
08/03/2014  01:00:00      -13.144       39.142        0.201       30.323       43.359       13.775      919.491     1879.997      189.741        0.235        0.149       41.290       13.551        0.108      346.295       24.439      863.263
08/03/2014  01:01:00      -33.347       22.989       -4.432       18.806       35.765       14.770      353.666     1279.136      218.162        0.176        0.093       40.503       16.453        0.165      346.246       24.356      863.279
08/03/2014  01:02:00      -28.811      -30.965        1.757       41.308       17.273       12.131     1706.325      298.354      147.172        0.197        0.108       42.295       16.078        0.145      346.172       24.230      863.292
08/03/2014  01:03:00        7.738      -10.799        4.551       14.238       10.501       13.799      202.715      110.264      190.425        0.035        0.025       13.285       10.113        0.579      346.128       24.151      863.308
08/03/2014  01:04:00       12.270       -9.487       -0.168        9.464       17.991       10.614       89.560      323.677      112.658        0.038        0.026       15.510        6.221        0.161      346.145       24.184      863.321
08/03/2014  01:05:00       19.428       -4.580        1.214       10.261        9.012       12.910      105.291       81.223      166.673        0.038        0.018       19.960        9.724        0.237      346.055       24.026      863.324
08/03/2014  01:06:00       -1.318       10.638        8.090        7.544        9.378       13.647       56.914       87.953      186.250        0.026        0.017       10.720        9.948        0.861      345.975       23.891      863.323
08/03/2014  01:07:00       18.824        7.600        6.876       11.057        7.634        9.066      122.253       58.282       82.199        0.036        0.013       20.300        6.567        0.105      346.083       24.075      863.323
08/03/2014  01:08:00      -10.257       25.641       -3.046       15.623       25.894        9.041      244.081      670.488       81.738        0.088        0.050       27.617       13.701        0.246      346.111       24.122      863.336
08/03/2014  01:09:00      -15.709       34.219      -10.803        9.660        7.671        7.383       93.310       58.848       54.511        0.087        0.010       37.652        5.672        0.023      346.306       24.459      863.330
08/03/2014  01:10:00      -24.280       54.410      -13.669       14.620       16.729        8.635      213.745      279.864       74.559        0.215        0.028       59.582        8.814        0.022      346.201       24.277      863.324
08/03/2014  01:11:00      -63.150       16.734      -10.787       21.929       25.997       10.079      480.894      675.824      101.585        0.282        0.063       65.330        7.523        0.013      346.190       24.258      863.320
08/03/2014  01:12:00      -88.284      -20.689      -15.610       20.867       16.468       13.311      435.429      271.204      177.184        0.467        0.044       90.676       11.880        0.017      346.176       24.234      863.310
08/03/2014  01:13:00      -70.333       -2.617      -10.365       34.343       20.004       13.584     1179.414      400.175      184.538        0.341        0.088       70.381       13.160        0.035      346.073       24.059      863.319
08/03/2014  01:14:00      -93.131      -45.140        1.536       36.610       22.992       22.014     1340.291      528.655      484.626        0.653        0.118      103.494       22.856        0.049      346.072       24.057      863.314
08/03/2014  01:15:00     -113.900      -52.921        1.084       45.922       35.746       21.739     2108.813     1277.797      472.578        0.982        0.193      125.594       18.612        0.022      346.050       24.019      863.306
08/03/2014  01:16:00      -99.756      -39.407       -4.627       47.398       30.962       18.434     2246.552      958.643      339.819        0.753        0.177      107.257       18.263        0.029      346.065       24.045      863.290
08/03/2014  01:17:00     -127.372      -49.689       -8.619       29.238       28.867       16.766      854.854      833.298      281.114        1.037        0.098      136.721       14.333        0.011      346.150       24.192      863.269
08/03/2014  01:18:00     -160.410      -45.510      -13.802       31.234       34.662       20.134      975.561     1201.448      405.374        1.529        0.129      166.741       18.933        0.013      346.092       24.088      863.246
08/03/2014  01:19:00     -143.994      -64.444       -0.053       37.688       36.381       22.489     1420.412     1323.570      505.759        1.407        0.162      157.757       22.911        0.021      346.024       23.973      863.242
08/03/2014  01:20:00     -186.719      -45.839      -10.162       42.546       49.267       23.009     1810.161     2427.228      529.395        2.092        0.238      192.264       19.937        0.011      346.083       24.072      863.238
08/03/2014  01:21:00     -111.319      -22.368       -1.825       53.296       42.839       23.283     2840.439     1835.190      542.098        0.906        0.261      113.544       23.923        0.044      346.002       23.938      863.226
08/03/2014  01:22:00     -134.831      -29.480       -9.775       36.237       31.126       17.277     1313.084      968.797      298.510        1.086        0.129      138.016       17.295        0.016      345.990       23.914      863.221
08/03/2014  01:23:00     -160.680        4.086      -21.187       24.358       28.724       24.179      593.326      825.091      584.621        1.414        0.100      160.732       18.679        0.014      345.932       23.815      863.226
08/03/2014  01:24:00     -116.531      -18.101      -14.744       19.857       24.589       12.743      394.286      604.597      162.396        0.764        0.058      117.928       12.320        0.011      345.911       23.781      863.234
08/03/2014  01:25:00     -115.050      -30.328       -9.364       20.870       18.291       11.241      435.539      334.565      126.357        0.757        0.045      118.980        7.898        0.004      345.912       23.782      863.240
08/03/2014  01:26:00      -75.798       -1.008       -7.445       26.516       26.225       14.344      703.081      687.726      205.752        0.370        0.080       75.805        8.111        0.011      345.976       23.891      863.246
08/03/2014  01:27:00      -75.044      -33.449      -14.054       20.121       20.814       15.430      404.864      433.237      238.070        0.401        0.054       82.161        7.213        0.008      345.948       23.844      863.235
08/03/2014  01:28:00      -95.487      -51.318      -15.588       20.503       17.350       17.280      420.387      301.021      298.608        0.651        0.051      108.404       10.638        0.010      345.904       23.768      863.237
08/03/2014  01:29:00      -55.902        1.778       -8.442       21.854       18.879       13.618      477.610      356.417      185.446        0.211        0.051       55.930       11.405        0.042      345.835       23.649      863.248
08/03/2014  01:30:00     -102.666       -5.948      -10.138       23.328       17.022       11.618      544.211      289.746      134.989        0.582        0.048      102.838       10.216        0.010      345.825       23.632      863.244
08/03/2014  01:31:00     -110.448      -20.436      -10.427       17.423       22.596       10.214      303.567      510.578      104.334        0.682        0.046      112.322        9.070        0.007      345.789       23.571      863.247
08/03/2014  01:32:00      -88.339      -20.772       -8.727       22.336       22.005       13.426      498.913      484.210      180.268        0.474        0.058       90.749        7.676        0.007      345.719       23.448      863.250
08/03/2014  01:33:00     -110.954        3.890      -10.187       16.161       22.685       14.395      261.192      514.613      207.221        0.671        0.049      111.022       10.082        0.008      345.673       23.372      863.256
08/03/2014  01:34:00      -99.577        3.989       -6.250       16.054       16.083       11.716      257.741      258.657      137.267        0.531        0.033       99.657       10.857        0.012      345.658       23.347      863.274
08/03/2014  01:35:00     -101.182      -23.051       -9.186       16.484       13.990        9.832      271.711      195.732       96.674        0.571        0.028      103.774        7.455        0.005      345.758       23.516      863.283
08/03/2014  01:36:00      -96.596       -6.755       -7.158       30.561       20.396       15.680      934.005      416.002      245.864        0.551        0.080       96.832       14.677        0.023      345.691       23.403      863.285
08/03/2014  01:37:00     -117.302      -17.145      -12.396       21.033       17.221       12.443      442.405      296.560      154.839        0.755        0.045      118.549       11.233        0.009      345.731       23.471      863.297
08/03/2014  01:38:00     -114.750      -36.375       -5.321       27.750       16.789       12.176      770.049      281.883      148.249        0.786        0.060      120.378        7.973        0.004      345.709       23.433      863.307
08/03/2014  01:39:00     -122.725      -49.974      -10.625       12.851        9.837       12.703      165.149       96.769      161.362        0.905        0.021      132.510        7.396        0.003      345.683       23.386      863.305
08/03/2014  01:40:00     -128.466      -72.352       -3.235       17.902       20.556       16.572      320.464      422.544      274.647        1.138        0.051      147.439       10.787        0.005      345.690       23.399      863.300
08/03/2014  01:41:00     -125.458      -53.074       -6.187       24.800       24.349       16.116      615.045      592.881      259.729        1.003        0.073      136.222       13.214        0.009      345.765       23.529      863.316
08/03/2014  01:42:00     -118.345      -52.002        0.865       36.402       25.747       17.977     1325.116      662.919      323.165        0.951        0.116      129.266       17.292        0.018      345.773       23.543      863.322
08/03/2014  01:43:00     -127.965      -33.493       -0.583       39.143       31.139       20.208     1532.136      969.622      408.345        1.020        0.146      132.276       19.631        0.022      345.642       23.318      863.318
08/03/2014  01:44:00      -83.138      -14.300        5.230       52.258       28.217       19.368     2730.932      796.172      375.112        0.552        0.195       84.359       18.982        0.051      345.585       23.220      863.317
08/03/2014  01:45:00     -138.909      -21.868       -9.910       34.305       26.253       20.603     1176.844      689.237      424.474        1.108        0.115      140.620       21.663        0.024      345.642       23.317      863.316
08/03/2014  01:46:00     -126.061      -14.913       -4.840       33.712       31.548       19.426     1136.516      995.271      377.367        0.932        0.125      126.940       17.279        0.019      345.593       23.235      863.310
08/03/2014  01:47:00     -168.165       27.670      -10.805       22.325       23.389       16.000      498.393      547.057      255.991        1.523        0.065      170.427       12.378        0.005      345.715       23.443      863.300
08/03/2014  01:48:00     -163.209       11.839      -17.864       22.244       18.650       15.433      494.802      347.814      238.162        1.409        0.054      163.638       12.811        0.006      345.612       23.266      863.282
08/03/2014  01:49:00     -151.662       16.602      -11.337       19.910       21.920       15.315      396.402      480.476      234.550        1.226        0.056      152.568       11.425        0.006      345.672       23.369      863.282
08/03/2014  01:50:00     -117.402       18.999       -9.096       35.737       31.365       20.762     1277.141      983.751      431.067        0.846        0.135      118.929       17.802        0.022      345.701       23.421      863.276
08/03/2014  01:51:00     -131.832        3.468      -14.553       40.473       27.913       24.195     1638.057      779.112      585.404        1.030        0.150      131.878       23.812        0.033      345.689       23.399      863.274
08/03/2014  01:52:00     -100.328       -9.821       -8.236       28.653       26.471       20.034      820.975      700.733      401.350        0.608        0.096      100.808       15.706        0.024      345.584       23.218      863.276
08/03/2014  01:53:00      -92.146       25.346       -3.119       30.560       36.130       19.098      933.903     1305.384      364.746        0.587        0.130       95.568       10.246        0.011      345.420       22.937      863.283
08/03/2014  01:54:00      -88.941        5.851       -5.300       29.215       29.985       14.407      853.488      899.127      207.550        0.497        0.098       89.133       13.541        0.023      345.414       22.927      863.291
08/03/2014  01:55:00      -89.648      -29.996       -8.372       22.724       27.507       14.616      516.362      756.621      213.617        0.525        0.074       94.533        9.838        0.011      345.345       22.809      863.285
08/03/2014  01:56:00     -101.750       -2.770       -4.066       22.796       19.508       16.751      519.666      380.552      280.597        0.578        0.059      101.788       13.309        0.017      345.346       22.808      863.283
08/03/2014  01:57:00      -76.934      -22.944       -1.403       46.682       30.085       21.829     2179.209      905.104      476.521        0.500        0.178       80.282       24.750        0.095      345.263       22.670      863.297
08/03/2014  01:58:00      -99.008      -35.698        1.638       34.481       26.806       21.408     1188.926      718.546      458.320        0.672        0.118      105.247       18.769        0.032      345.216       22.587      863.313
08/03/2014  01:59:00     -102.107      -15.967       -5.950       27.056       22.174       14.977      732.038      491.701      224.311        0.608        0.072      103.348       13.101        0.016      345.216       22.587      863.305
08/03/2014  02:00:00      -80.885      -12.193       -2.781       29.241       26.331       16.607      855.060      693.337      275.789        0.426        0.091       81.798       14.892        0.033      345.174       22.517      863.302
08/03/2014  02:01:00      -89.901      -19.676      -11.725       17.880       21.474       15.025      319.699      461.119      225.758        0.481        0.050       92.029       11.846        0.017      345.199       22.559      863.315
08/03/2014  02:02:00      -63.578       16.124       -5.189       34.447       27.750       19.252     1186.607      770.082      370.648        0.333        0.116       65.591       10.272        0.025      345.249       22.644      863.330
08/03/2014  02:03:00      -34.567        9.624        4.598       29.331       20.668       18.623      860.301      427.155      346.824        0.147        0.082       35.881       18.502        0.266      345.225       22.604      863.346
08/03/2014  02:04:00      -73.798       27.575       -5.118       25.368       21.860       18.186      643.522      477.845      330.717        0.384        0.073       78.782       11.067        0.020      345.322       22.769      863.356
08/03/2014  02:05:00      -19.954        0.275        8.813       28.496       12.538       13.380      812.040      157.199      179.025        0.081        0.057       19.955       15.292        0.587      345.204       22.568      863.371
08/03/2014  02:06:00      -39.569        1.312       -7.544       24.906       15.392        7.373      620.327      236.905       54.356        0.127        0.046       39.591        7.385        0.035      345.340       22.799      863.377
08/03/2014  02:07:00      -48.284      -35.165       -5.386       11.713       18.704       12.126      137.190      349.836      147.042        0.212        0.032       59.732        9.106        0.023      345.261       22.663      863.384
08/03/2014  02:08:00      -63.314      -40.293       -1.995       46.242       20.269       16.870     2138.282      410.830      284.595        0.423        0.142       75.048       18.919        0.064      345.212       22.581      863.399
08/03/2014  02:09:00     -103.477      -33.720       -8.875       22.830       23.825       13.880      521.222      567.628      192.665        0.660        0.064      108.833       10.993        0.010      345.113       22.412      863.399
08/03/2014  02:10:00     -101.376       -2.595      -10.678       31.472       25.163       18.481      990.502      633.185      341.535        0.618        0.098      101.410       17.304        0.029      345.097       22.386      863.381
08/03/2014  02:11:00     -130.495       -8.534      -11.026       43.135       28.186       18.669     1860.606      794.460      348.532        1.011        0.150      130.774       22.794        0.030      345.212       22.580      863.367
08/03/2014  02:12:00     -116.700      -34.995        1.124       49.587       31.624       24.535     2458.823     1000.081      601.958        0.945        0.203      121.834       27.953        0.053      345.113       22.412      863.362
08/03/2014  02:13:00      -99.072       -8.864        7.573       46.099       44.435       25.212     2125.098     1974.512      635.649        0.734        0.237       99.467       21.374        0.046      345.159       22.492      863.357
08/03/2014  02:14:00     -100.874      -24.144        1.375       41.724       31.383       18.014     1740.903      984.877      324.496        0.690        0.153      103.723       17.443        0.028      345.150       22.474      863.348
08/03/2014  02:15:00      -75.626      -37.067        5.881       51.224       28.009       20.821     2623.863      784.514      433.503        0.548        0.192       84.221       18.081        0.046      345.085       22.363      863.344
08/03/2014  02:16:00      -92.404      -64.277        4.273       55.336       39.344       23.806     3062.024     1547.941      566.737        0.893        0.259      112.561       23.794        0.045      345.167       22.502      863.356
08/03/2014  02:17:00     -127.728      -74.520       -2.501       75.184       51.494       28.133     5652.621     2651.630      791.442        1.548        0.455      147.877       33.011        0.050      345.164       22.496      863.365
08/03/2014  02:18:00     -137.204     -102.061       -6.786       60.790       37.592       28.101     3695.374     1413.158      789.687        1.759        0.295      171.001       22.244        0.017      345.235       22.619      863.366
08/03/2014  02:19:00      -82.467      -62.867        2.111       50.955       35.101       26.268     2596.376     1232.074      690.033        0.764        0.226      103.698       25.114        0.059      345.201       22.562      863.382
08/03/2014  02:20:00     -109.111      -32.038       -2.981       48.234       36.485       24.626     2326.488     1331.179      606.451        0.860        0.213      113.717       21.652        0.036      345.190       22.543      863.407
08/03/2014  02:21:00      -80.965      -18.300        5.587       38.373       43.780       29.198     1472.522     1916.725      852.528        0.558        0.212       83.007       24.942        0.090      345.119       22.422      863.419
08/03/2014  02:22:00      -67.407       -9.299        6.644       58.024       25.547       21.844     3366.787      652.647      477.144        0.458        0.225       68.046       25.761        0.143      345.063       22.328      863.427
08/03/2014  02:23:00      -84.612      -18.922        6.345       41.312       37.590       20.196     1706.708     1412.984      407.860        0.554        0.176       86.702       22.590        0.068      345.087       22.367      863.437
08/03/2014  02:24:00      -81.784      -21.218        6.421       37.494       30.481       20.628     1405.800      929.085      425.533        0.497        0.138       84.492       22.925        0.074      345.108       22.405      863.438
08/03/2014  02:25:00     -131.549      -18.536       -2.252       40.306       36.825       20.183     1624.567     1356.050      407.350        1.052        0.169      132.848       20.265        0.023      344.992       22.205      863.429
08/03/2014  02:26:00     -178.969        1.803      -18.326       34.725       29.239       20.066     1205.854      854.895      402.658        1.742        0.123      178.978       11.843        0.004      344.872       21.999      863.417
08/03/2014  02:27:00     -181.387       -4.638      -13.883       40.309       31.216       23.098     1624.823      974.423      533.500        1.812        0.157      181.447       21.787        0.014      344.846       21.954      863.396
08/03/2014  02:28:00     -167.688      -15.872      -14.048       35.462       23.894       20.141     1257.554      570.938      405.675        1.540        0.112      168.438       14.427        0.007      344.774       21.831      863.378
08/03/2014  02:29:00     -163.527      -25.023      -13.490       39.762       28.261       25.116     1581.050      798.671      630.798        1.528        0.151      165.431       25.053        0.023      344.846       21.955      863.344
08/03/2014  02:30:00     -143.866       26.337      -11.898       17.062       24.227       14.377      291.096      586.970      206.687        1.131        0.054      146.257       12.681        0.008      344.872       22.000      863.313
08/03/2014  02:31:00      -79.660       -3.629       -5.138       36.991       31.062       16.632     1368.350      964.843      276.622        0.450        0.130       79.743       17.815        0.050      344.765       21.816      863.296
08/03/2014  02:32:00      -36.960      -17.696       -3.971       21.634       24.015       17.299      468.033      576.706      299.272        0.152        0.067       40.978       13.694        0.112      344.800       21.875      863.274
08/03/2014  02:33:00      -10.013       -7.121        6.230       21.742       23.287       12.290      472.716      542.273      151.042        0.068        0.058       12.287        1.197        0.009      344.795       21.868      863.253
08/03/2014  02:34:00       -4.748       -4.339        3.800       33.485       11.478       13.035     1121.224      131.742      169.899        0.074        0.071        6.432       19.267        8.973      344.854       21.970      863.241
08/03/2014  02:35:00      -51.521       21.354      -14.007       26.959       27.577       15.112      726.797      760.498      228.364        0.251        0.086       55.772       13.570        0.059      344.925       22.089      863.244
08/03/2014  02:36:00     -144.079       11.776      -20.067       30.312       32.383       16.090      918.835     1048.675      258.881        1.176        0.111      144.559       10.630        0.005      344.949       22.131      863.241
08/03/2014  02:37:00     -114.338       -4.032      -14.549       52.848       30.114       21.556     2792.873      906.843      464.674        0.873        0.208      114.409       27.108        0.056      344.882       22.016      863.232
08/03/2014  02:38:00      -36.158      -10.657        6.234       44.488       32.165       18.505     1979.172     1034.555      342.418        0.241        0.168       37.695       15.545        0.170      344.867       21.990      863.242
08/03/2014  02:39:00      -23.169        7.380       -0.440       20.592       38.216       14.525      424.048     1460.457      210.983        0.134        0.105       24.316       11.693        0.231      344.840       21.944      863.259
08/03/2014  02:40:00       -4.028       63.713       -4.358       20.437       19.005       15.041      417.656      361.185      226.221        0.255        0.050       63.841       14.132        0.049      344.887       22.025      863.267
08/03/2014  02:41:00      -57.077       35.955      -15.216       10.629       24.739       12.113      112.985      612.033      146.714        0.283        0.044       67.457       12.452        0.034      344.906       22.055      863.276
08/03/2014  02:42:00      -69.889      -37.621       -5.465       27.794       35.399       16.178      772.504     1253.086      261.727        0.431        0.114       79.371       18.572        0.055      344.917       22.075      863.287
08/03/2014  02:43:00      -92.743      -15.488       -1.639       24.111       12.918       17.623      581.363      166.881      310.558        0.495        0.053       94.027       17.334        0.034      344.833       21.932      863.299
08/03/2014  02:44:00      -24.302      -16.331        0.678       29.936       22.047       18.358      896.147      486.068      337.024        0.129        0.086       29.280       16.246        0.308      344.910       22.064      863.295
08/03/2014  02:45:00     -106.537      -55.236       -7.536       42.180       27.986       16.388     1779.178      783.212      268.582        0.864        0.142      120.005       15.350        0.016      344.854       21.969      863.283
08/03/2014  02:46:00      -51.054      -38.397        3.392       39.289       48.479       24.691     1543.623     2350.260      609.646        0.430        0.225       63.881       23.994        0.141      344.809       21.890      863.282
08/03/2014  02:47:00      -39.144       -1.070        8.393       34.300       26.597       18.601     1176.464      707.425      346.005        0.192        0.111       39.159       22.723        0.337      344.798       21.874      863.269
08/03/2014  02:48:00      -87.403      -12.504       -3.269       33.110       32.812       17.064     1096.275     1076.615      291.175        0.513        0.123       88.293       15.916        0.032      344.845       21.954      863.253
08/03/2014  02:49:00      -90.463      -14.918       -7.869       30.426       22.933       16.499      925.756      525.900      272.215        0.510        0.086       91.685       17.806        0.038      344.870       21.995      863.229
08/03/2014  02:50:00      -95.797      -43.821      -12.351       21.142       23.077       12.104      446.979      532.557      146.516        0.619        0.056      105.343        4.664        0.002      344.912       22.067      863.215
08/03/2014  02:51:00     -116.666      -60.937       -6.296       23.317       20.693       13.371      543.705      428.199      178.772        0.926        0.058      131.621       11.117        0.007      344.891       22.032      863.216
08/03/2014  02:52:00      -95.562      -52.987       -7.522       35.455       17.412       16.645     1257.074      303.168      277.055        0.692        0.092      109.269       14.629        0.018      344.892       22.034      863.205
08/03/2014  02:53:00      -89.781      -57.807        0.193       36.728       31.340       20.358     1348.930      982.209      414.443        0.707        0.137      106.781       16.464        0.024      344.932       22.103      863.180
08/03/2014  02:54:00      -74.070      -65.070        6.342       38.647       46.143       22.366     1493.606     2129.213      500.247        0.694        0.206       98.592       18.003        0.033      345.006       22.227      863.166
08/03/2014  02:55:00      -99.411      -68.258        0.825       32.890       28.866       20.804     1081.724      833.241      432.804        0.844        0.117      120.589       20.300        0.028      345.044       22.293      863.157
08/03/2014  02:56:00     -128.182      -65.044       -0.139       50.198       33.151       20.552     2519.852     1098.964      422.401        1.235        0.202      143.740       22.680        0.025      345.031       22.273      863.150
08/03/2014  02:57:00     -132.910      -76.861       -5.825       35.819       30.810       22.027     1283.006      949.263      485.170        1.316        0.136      153.534       18.389        0.014      344.961       22.152      863.155
08/03/2014  02:58:00     -125.868      -69.841        0.032       33.239       28.859       21.259     1104.823      832.831      451.962        1.155        0.119      143.946       15.332        0.011      344.969       22.166      863.155
08/03/2014  02:59:00     -126.262      -82.200       -2.013       24.645       22.719       19.644      607.368      516.164      385.878        1.211        0.075      150.662       15.069        0.010      345.077       22.350      863.155
08/03/2014  03:00:00     -113.672      -62.528       -0.087       27.391       23.132       15.600      750.273      535.104      243.351        0.918        0.076      129.735       13.405        0.011      345.070       22.338      863.149
08/03/2014  03:01:00     -104.928      -75.070        0.529       39.519       35.037       19.160     1561.774     1227.580      367.116        0.990        0.158      129.017       20.510        0.025      345.103       22.394      863.155
08/03/2014  03:02:00     -101.469      -73.685        2.534       46.528       31.967       21.419     2164.854     1021.899      458.779        0.969        0.182      125.401       21.514        0.029      345.142       22.460      863.154
08/03/2014  03:03:00     -118.205      -70.179       -3.800       33.028       18.944       19.284     1090.818      358.892      371.870        1.037        0.091      137.468       17.555        0.016      345.160       22.492      863.146
08/03/2014  03:04:00      -99.102      -54.393        1.021       33.862       27.596       17.171     1146.653      761.558      294.831        0.749        0.110      113.047       15.856        0.020      345.102       22.393      863.134
08/03/2014  03:05:00      -83.806      -71.979        3.526       42.594       29.268       24.706     1814.276      856.626      610.411        0.775        0.164      110.474       20.737        0.035      345.114       22.415      863.125
08/03/2014  03:06:00      -93.491     -107.078       -1.822       44.965       53.668       26.609     2021.875     2880.209      708.026        1.291        0.281      142.149       26.154        0.034      345.031       22.272      863.119
08/03/2014  03:07:00      -86.801     -141.809       -5.309       60.171       49.625       34.077     3620.513     2462.664     1161.256        1.746        0.362      166.266       29.423        0.031      344.998       22.214      863.125
08/03/2014  03:08:00      -63.090      -97.778       -3.493       70.006       53.075       35.345     4900.806     2816.942     1249.301        1.126        0.448      116.365       41.557        0.128      344.924       22.087      863.129
08/03/2014  03:09:00     -106.092     -123.067       -8.085       66.966       51.171       37.123     4484.456     2618.462     1378.143        1.747        0.424      162.483       36.104        0.049      344.901       22.045      863.130
08/03/2014  03:10:00     -102.883      -82.287       -7.304       45.787       55.009       29.958     2096.464     3026.017      897.505        1.171        0.301      131.743       27.066        0.042      344.898       22.044      863.126
08/03/2014  03:11:00      -37.401     -100.269        7.338       42.680       52.665       32.719     1821.555     2773.586     1070.515        0.858        0.283      107.017       21.872        0.042      344.891       22.031      863.128
08/03/2014  03:12:00      -38.657     -105.268        0.311       53.862       56.463       33.553     2901.135     3188.109     1125.836        0.989        0.361      112.141       25.180        0.050      344.880       22.012      863.124
08/03/2014  03:13:00      -89.012     -119.523       -5.045       62.726       64.719       28.228     3934.518     4188.605      796.817        1.558        0.446      149.026       25.563        0.029      344.872       21.998      863.116
08/03/2014  03:14:00      -71.053      -78.371        7.095       63.775       41.049       36.129     4067.276     1685.059     1305.335        0.915        0.353      105.785       36.725        0.121      344.803       21.883      863.106
08/03/2014  03:15:00      -84.204      -91.959       -1.357       72.862       64.742       32.567     5308.931     4191.488     1060.610        1.305        0.528      124.687       32.057        0.066      344.794       21.866      863.093
08/03/2014  03:16:00     -103.402      -90.864        3.843       67.128       56.576       31.174     4506.179     3200.799      971.840        1.382        0.434      137.653       27.589        0.040      344.753       21.795      863.072
08/03/2014  03:17:00     -129.144      -99.310        0.162       63.934       51.119       35.247     4087.558     2613.114     1242.377        1.724        0.397      162.913       33.526        0.042      344.726       21.748      863.058
08/03/2014  03:18:00     -144.515     -113.664       -8.408       68.811       62.266       39.189     4734.904     3877.073     1535.794        2.201        0.507      183.859       40.348        0.048      344.679       21.667      863.032
08/03/2014  03:19:00     -154.166      -88.553        9.086       68.955       74.093       46.203     4754.798     5489.699     2134.710        2.203        0.619      177.788       45.197        0.065      344.667       21.647      863.013
08/03/2014  03:20:00     -151.732      -93.614       -2.402       68.874       56.831       36.443     4743.663     3229.789     1328.060        2.054        0.465      178.287       38.697        0.047      344.691       21.687      862.987
08/03/2014  03:21:00     -123.142      -90.384       -1.897       61.369       54.327       32.254     3766.120     2951.407     1040.348        1.555        0.388      152.752       30.978        0.041      344.707       21.716      862.964
08/03/2014  03:22:00     -142.595      -86.345      -13.585       39.890       32.954       29.385     1591.229     1085.936      863.506        1.576        0.177      166.700       24.261        0.021      344.744       21.781      862.950
08/03/2014  03:23:00     -139.750      -88.208        0.130       62.867       41.682       29.534     3952.259     1737.424      872.286        1.694        0.328      165.260       33.778        0.042      344.689       21.686      862.941
08/03/2014  03:24:00      -91.433      -46.483       -0.763       50.967       30.057       24.872     2597.608      903.421      618.600        0.732        0.206      102.570       24.719        0.058      344.681       21.672      862.944
08/03/2014  03:25:00      -73.385      -77.850       -1.832       52.562       36.379       18.945     2762.791     1323.443      358.898        0.795        0.222      106.986       27.841        0.068      344.706       21.716      862.940
08/03/2014  03:26:00      -55.545      -58.686        1.027       26.800       23.757       18.759      718.216      564.402      351.901        0.408        0.082       80.804       10.758        0.018      344.672       21.657      862.930
08/03/2014  03:27:00      -74.535      -40.999       -3.877       24.743       14.250       11.784      612.205      203.058      138.873        0.410        0.048       85.067       10.106        0.014      344.680       21.670      862.921
08/03/2014  03:28:00      -76.172        7.388       -3.409       27.381       25.864       18.931      749.724      668.961      358.366        0.382        0.089       76.530       16.735        0.048      344.573       21.488      862.920
08/03/2014  03:29:00     -115.720        7.030      -10.189       31.625       26.870       17.903     1000.151      721.996      320.524        0.779        0.102      115.933       11.694        0.010      344.486       21.336      862.897
08/03/2014  03:30:00     -122.936       -0.057      -11.193       27.675       23.507       15.101      765.929      552.596      228.036        0.839        0.077      122.936       12.201        0.010      344.491       21.346      862.877
08/03/2014  03:31:00     -128.802       14.374      -11.337       22.231       23.344       14.904      494.236      544.962      222.140        0.909        0.063      129.601       11.835        0.008      344.502       21.365      862.859
08/03/2014  03:32:00     -103.613      -12.185       -5.927       37.090       22.698       24.813     1375.642      515.203      615.674        0.671        0.125      104.327       23.290        0.050      344.521       21.397      862.848
08/03/2014  03:33:00     -112.574       -8.381      -11.755       35.328       33.690       15.618     1248.032     1135.022      243.924        0.775        0.131      112.885       12.590        0.012      344.603       21.539      862.832
08/03/2014  03:34:00     -115.636      -43.100       -6.984       22.285       27.562       16.198      496.637      759.683      262.375        0.840        0.076      123.407       11.439        0.009      344.549       21.445      862.824
08/03/2014  03:35:00     -104.247      -56.891      -10.805       32.953       22.675       22.206     1085.878      514.178      493.090        0.816        0.105      118.760       14.088        0.014      344.573       21.488      862.825
08/03/2014  03:36:00     -133.216      -31.165       -5.817       47.663       32.771       17.334     2271.801     1073.970      300.483        1.120        0.182      136.813       18.957        0.019      344.506       21.374      862.838
08/03/2014  03:37:00     -122.075      -29.101       -4.914       42.974       47.570       23.898     1846.779     2262.896      571.107        1.023        0.234      125.496       21.279        0.029      344.458       21.290      862.845
08/03/2014  03:38:00      -86.900      -31.122        1.076       44.853       29.607       16.758     2011.790      876.570      280.821        0.584        0.158       92.305       19.454        0.044      344.420       21.226      862.853
08/03/2014  03:39:00      -48.437      -34.258        0.695       41.569       25.165       20.826     1727.998      633.284      433.713        0.316        0.140       59.328       21.193        0.128      344.560       21.464      862.864
08/03/2014  03:40:00      -32.763      -69.945        3.215       27.325       29.652       16.389      746.649      879.247      268.604        0.393        0.095       77.238       12.737        0.027      344.644       21.609      862.885
08/03/2014  03:41:00      -36.938      -45.762        1.988       39.680       30.576       16.898     1574.511      934.868      285.527        0.313        0.140       58.810        9.888        0.028      344.665       21.644      862.898
08/03/2014  03:42:00      -49.355      -67.593        5.362       36.152       35.183       18.502     1306.964     1237.840      342.334        0.496        0.144       83.694       20.914        0.062      344.698       21.703      862.908
08/03/2014  03:43:00      -56.196      -85.567        0.946       28.207       45.759       18.165      795.619     2093.895      329.982        0.685        0.161      102.371       13.717        0.018      344.741       21.773      862.908
08/03/2014  03:44:00      -33.327      -39.871       -8.705       35.409       26.071       14.768     1253.803      679.690      218.108        0.246        0.108       51.966       12.501        0.058      344.748       21.786      862.903
08/03/2014  03:45:00      -40.226      -36.133        5.184       38.241       19.846       17.207     1462.407      393.864      296.066        0.255        0.108       54.071       16.612        0.094      344.718       21.734      862.921
08/03/2014  03:46:00      -17.259      -56.475        7.881       39.899       49.821       21.373     1591.895     2482.174      456.792        0.404        0.227       59.053       16.337        0.077      344.657       21.631      862.920
08/03/2014  03:47:00      -66.808      -64.731       -1.608       38.691       32.419       19.641     1496.987     1050.982      385.783        0.579        0.147       93.024       15.651        0.028      344.621       21.570      862.910
08/03/2014  03:48:00     -108.679      -51.872       -6.215       54.300       40.551       26.734     2948.468     1644.402      714.710        0.992        0.265      120.423       22.761        0.036      344.593       21.522      862.908
08/03/2014  03:49:00      -53.914      -27.450       11.120       42.100       39.428       22.180     1772.394     1554.574      491.957        0.380        0.191       60.499       20.000        0.109      344.539       21.430      862.908
08/03/2014  03:50:00      -78.339      -64.803        5.402       28.997       26.219       20.175      840.841      687.458      407.032        0.615        0.097      101.668       16.933        0.028      344.592       21.521      862.898
08/03/2014  03:51:00      -50.870      -56.715        9.118       34.324       25.024       19.054     1178.134      626.186      363.064        0.403        0.108       76.186       18.508        0.059      344.636       21.595      862.900
08/03/2014  03:52:00      -93.105      -57.835       -7.905       19.965       32.765       16.260      398.585     1073.525      264.402        0.691        0.087      109.606       10.556        0.009      344.669       21.652      862.895
08/03/2014  03:53:00      -63.047      -28.759       -4.634       20.587       24.932       12.750      423.835      621.616      162.552        0.302        0.060       69.297       11.835        0.029      344.652       21.622      862.896
08/03/2014  03:54:00      -70.425       -5.461       -5.385       13.196       20.823       13.979      174.136      433.607      195.419        0.291        0.040       70.637       11.526        0.027      344.674       21.658      862.905
08/03/2014  03:55:00      -40.764      -31.255      -12.036       21.322       17.340       17.517      454.638      300.667      306.859        0.192        0.053       51.367        9.342        0.033      344.744       21.779      862.909
08/03/2014  03:56:00       -4.804      -55.751       -3.830       15.933       16.047       12.480      253.860      257.503      155.751        0.191        0.033       55.958        6.757        0.015      344.752       21.794      862.911
08/03/2014  03:57:00      -30.319      -23.052       -1.849       25.159       13.079       17.637      632.954      171.051      311.077        0.128        0.056       38.087       11.502        0.091      344.681       21.672      862.917
08/03/2014  03:58:00        0.474      -60.447       -4.452       24.773       15.583       14.576      613.694      242.842      212.449        0.237        0.053       60.448       10.693        0.031      344.727       21.750      862.920
08/03/2014  03:59:00      -12.609      -18.697       10.253       27.230       23.897       16.922      741.499      571.064      286.346        0.111        0.080       22.551       15.973        0.502      344.718       21.736      862.927
08/03/2014  04:00:00      -22.771      -43.910        5.669       25.697       31.676       18.448      660.312     1003.354      340.319        0.224        0.100       49.463       18.162        0.135      344.637       21.595      862.933
08/03/2014  04:01:00      -18.771      -40.437        1.204       20.335       19.390       17.092      413.516      375.962      292.138        0.154        0.054       44.581        8.188        0.034      344.665       21.644      862.937
08/03/2014  04:02:00       30.988       42.270       10.151       18.119       23.394       18.332      328.282      547.294      336.074        0.203        0.061       52.412       14.530        0.077      344.526       21.407      862.930
08/03/2014  04:03:00       40.183       48.015      -14.129       19.499       22.190       15.080      380.205      492.383      227.405        0.261        0.055       62.611        7.148        0.013      344.200       20.851      862.926
08/03/2014  04:04:00        6.083       20.400       -5.899       10.635       10.157        8.347      113.098      103.160       69.672        0.039        0.014       21.288        4.483        0.044      344.215       20.874      862.921
08/03/2014  04:05:00       -4.916      -12.642       -3.711        7.836       12.151        7.059       61.401      147.649       49.825        0.023        0.013       13.564        3.536        0.068      344.490       21.347      862.906
08/03/2014  04:06:00       13.336      -37.416       -0.894        7.415       16.628        8.655       54.983      276.479       74.910        0.099        0.020       39.722        6.175        0.024      344.548       21.448      862.895
08/03/2014  04:07:00        4.058       -9.479        4.109        7.273        8.637        7.707       52.898       74.592       59.403        0.016        0.009       10.312        5.288        0.263      344.548       21.444      862.882
08/03/2014  04:08:00       -9.665        4.381        6.686       12.299       10.713        6.350      151.256      114.769       40.318        0.023        0.015       10.612        4.544        0.183      344.446       21.273      862.876
08/03/2014  04:09:00      -22.339       43.946       -6.545       10.116       15.802       10.150      102.333      249.687      103.020        0.146        0.023       49.298        9.442        0.037      344.386       21.167      862.856
08/03/2014  04:10:00      -54.053       34.209       -4.812       19.481       18.989        9.775      379.518      360.583       95.545        0.248        0.042       63.969        6.028        0.009      344.401       21.193      862.857
08/03/2014  04:11:00      -59.751       16.261       -2.216       14.791       10.253        6.063      218.788      105.129       36.761        0.210        0.018       61.924        4.380        0.005      344.478       21.321      862.855
08/03/2014  04:12:00      -34.185       44.970       -5.972       10.247       17.948       12.419      104.999      322.128      154.233        0.190        0.029       56.488        9.725        0.030      344.337       21.086      862.861
08/03/2014  04:13:00      -35.126       20.623      -17.667       11.610       11.484        8.831      134.802      131.889       77.990        0.116        0.017       40.733        5.746        0.020      344.325       21.063      862.864
08/03/2014  04:14:00      -42.855       26.658      -10.502       12.428       12.104        8.682      154.445      146.512       75.384        0.152        0.019       50.470        7.732        0.023      344.338       21.088      862.871
08/03/2014  04:15:00      -42.876       17.743       -4.761       12.773       14.842       10.199      163.157      220.277      104.014        0.133        0.024       46.403        7.934        0.029      344.357       21.120      862.873
08/03/2014  04:16:00      -63.010       13.308       -9.144       21.760       18.215        9.827      473.501      331.795       96.567        0.257        0.045       64.400       11.035        0.029      344.414       21.216      862.877
08/03/2014  04:17:00      -52.882        5.066       -9.520       24.942       16.813        8.078      622.119      282.667       65.252        0.194        0.049       53.124        3.500        0.004      344.447       21.272      862.881
08/03/2014  04:18:00      -48.054        0.395       -7.697       12.451       15.963       10.614      155.020      254.813      112.663        0.145        0.026       48.056        8.173        0.029      344.436       21.255      862.882
08/03/2014  04:19:00      -43.949      -28.513      -10.816       12.664       11.592        8.132      160.375      134.366       66.137        0.161        0.018       52.388        2.915        0.003      344.447       21.270      862.874
08/03/2014  04:20:00      -50.690      -33.907       -6.366       24.724       11.598        9.179      611.291      134.519       84.255        0.229        0.042       60.985       10.118        0.028      344.375       21.149      862.867
08/03/2014  04:21:00      -39.696      -32.643       -3.783       23.756       17.654       13.668      564.336      311.647      186.802        0.186        0.053       51.394        8.381        0.027      344.389       21.173      862.864
08/03/2014  04:22:00      -56.295      -39.832       -7.394       24.805       14.970       10.563      615.267      224.089      111.568        0.288        0.048       68.962        8.930        0.017      344.289       21.003      862.867
08/03/2014  04:23:00      -84.043      -46.501       -3.364       15.115       11.786       12.523      228.464      138.900      156.818        0.488        0.026       96.050        9.292        0.009      344.295       21.012      862.858
08/03/2014  04:24:00      -75.242      -48.717        1.869       24.975       23.993       17.121      623.743      575.654      293.114        0.477        0.075       89.637       14.338        0.026      344.332       21.076      862.846
08/03/2014  04:25:00      -88.027      -58.087        0.092       25.203       21.033       15.212      635.173      442.387      231.407        0.622        0.065      105.465       13.822        0.017      344.395       21.182      862.829
08/03/2014  04:26:00      -80.868      -53.113        1.424       28.192       27.749       15.792      794.807      769.999      249.386        0.559        0.091       96.750       14.896        0.024      344.374       21.147      862.812
08/03/2014  04:27:00     -101.534      -38.095       -0.975       33.000       22.738       15.646     1088.978      517.013      244.801        0.681        0.093      108.446       12.749        0.014      344.405       21.201      862.804
08/03/2014  04:28:00     -103.468      -30.838        3.412       30.078       20.825       15.296      904.678      433.690      233.971        0.662        0.079      107.966       15.422        0.020      344.297       21.016      862.791
08/03/2014  04:29:00      -98.065      -34.952        4.826       34.712       22.568       17.961     1204.910      509.315      322.600        0.645        0.102      104.108       20.127        0.037      344.294       21.011      862.785
08/03/2014  04:30:00      -69.823      -22.768       -0.345       44.251       23.770       18.505     1958.111      565.002      342.450        0.413        0.143       73.442       21.672        0.087      344.210       20.867      862.789
08/03/2014  04:31:00      -76.987      -27.948       -0.684       31.298       27.687       14.271      979.568      766.548      203.671        0.433        0.097       81.903       12.135        0.022      344.047       20.588      862.810
08/03/2014  04:32:00      -71.848      -21.428        4.168       22.089       25.761       15.360      487.917      663.641      235.919        0.351        0.069       74.975       11.804        0.025      344.103       20.684      862.818
08/03/2014  04:33:00      -69.234      -15.994        2.175       26.013       17.139       12.039      676.690      293.741      144.945        0.308        0.056       71.057       12.345        0.030      344.186       20.825      862.827
08/03/2014  04:34:00      -65.109      -26.458       -0.693       17.607       12.984        8.785      310.004      168.595       77.170        0.275        0.028       70.279        7.080        0.010      344.241       20.920      862.831
08/03/2014  04:35:00      -25.215      -34.700        1.457       20.970        8.770       10.091      439.740       76.904      101.833        0.123        0.031       42.894        5.721        0.018      344.295       21.014      862.833
08/03/2014  04:36:00      -13.294      -59.301       -2.820       15.901       11.444        7.515      252.852      130.959       56.479        0.207        0.022       60.773        2.332        0.001      344.394       21.180      862.841
08/03/2014  04:37:00      -27.478      -38.985       -4.596       14.828       17.616       13.943      219.873      310.332      194.406        0.151        0.036       47.695       10.411        0.048      344.389       21.173      862.853
08/03/2014  04:38:00      -29.048      -18.698        7.291       15.013       15.546       10.195      225.377      241.665      103.930        0.091        0.029       34.546        3.311        0.009      344.340       21.089      862.873
08/03/2014  04:39:00       -5.262      -13.902        3.562       11.729       11.297        8.847      137.573      127.631       78.276        0.029        0.017       14.865        5.475        0.136      344.353       21.112      862.881
08/03/2014  04:40:00      -20.571      -32.945       -3.600       25.204       11.528        6.918      635.235      132.892       47.859        0.117        0.041       38.840        5.687        0.021      344.397       21.188      862.880
08/03/2014  04:41:00      -45.997      -43.793       -3.849       16.219       14.900       15.849      263.046      222.006      251.179        0.239        0.037       63.510        8.552        0.018      344.454       21.281      862.880
08/03/2014  04:42:00      -20.881      -46.345      -11.932       21.074       13.290       18.525      444.099      176.625      343.191        0.184        0.048       50.831        7.563        0.022      344.395       21.182      862.873
08/03/2014  04:43:00      -17.646      -22.609       -5.861       16.585       12.696        7.916      275.055      161.200       62.658        0.068        0.025       28.680        5.915        0.043      344.447       21.273      862.863
08/03/2014  04:44:00       -1.488      -20.447        2.199       14.948       15.279       10.832      223.457      233.440      117.323        0.050        0.029       20.501        6.932        0.114      344.456       21.288      862.847
08/03/2014  04:45:00      -23.178      -23.471       -9.041       11.817       12.291       11.278      139.649      151.060      127.188        0.079        0.021       32.986        7.333        0.049      344.446       21.271      862.839
08/03/2014  04:46:00      -37.439      -44.775       -0.178       24.918       11.289       10.688      620.913      127.432      114.230        0.213        0.043       58.365        6.838        0.014      344.529       21.412      862.830
08/03/2014  04:47:00      -48.967      -27.564        4.674       18.921       13.779       11.669      357.994      189.861      136.166        0.193        0.034       56.192        6.033        0.012      344.386       21.169      862.829
08/03/2014  04:48:00      -32.277      -40.042        3.314       32.950       23.808       14.290     1085.693      566.812      204.204        0.226        0.093       51.431        4.679        0.008      344.445       21.269      862.828
08/03/2014  04:49:00      -73.567      -68.787       -1.227       35.421       35.007       17.997     1254.632     1225.455      323.904        0.647        0.140      100.716       18.068        0.032      344.483       21.334      862.826
08/03/2014  04:50:00      -65.898      -70.921       -2.616       38.924       42.237       24.347     1515.051     1783.947      592.795        0.663        0.195       96.810       21.751        0.050      344.497       21.357      862.816
08/03/2014  04:51:00      -47.694      -43.547        1.066       46.935       44.135       25.624     2202.900     1947.918      656.610        0.449        0.240       64.584       24.355        0.142      344.449       21.276      862.824
08/03/2014  04:52:00      -82.343      -59.259       -1.758       50.412       40.180       30.459     2541.350     1614.407      927.752        0.769        0.254      101.449       23.814        0.055      344.342       21.093      862.831
08/03/2014  04:53:00     -104.599      -79.057       -0.224       39.015       51.050       26.775     1522.207     2606.064      716.891        1.102        0.242      131.114       26.193        0.040      344.325       21.064      862.846
08/03/2014  04:54:00     -108.498      -70.059       -4.670       43.069       36.870       18.749     1854.933     1359.386      351.523        1.013        0.178      129.151       14.310        0.012      344.294       21.010      862.860
08/03/2014  04:55:00     -128.742      -48.792        3.388       52.480       35.736       25.121     2754.158     1277.065      631.052        1.181        0.233      137.677       24.073        0.031      344.227       20.896      862.869
08/03/2014  04:56:00      -80.399      -37.327        4.777       47.977       34.632       22.901     2301.827     1199.383      524.461        0.595        0.201       88.641       20.603        0.054      344.234       20.910      862.876
08/03/2014  04:57:00     -129.167      -59.025       -4.490       26.120       30.622       14.249      682.229      937.717      203.043        1.101        0.091      142.014        6.099        0.002      344.267       20.965      862.879
08/03/2014  04:58:00      -63.193      -70.418       -0.028       59.228       31.866       25.486     3507.915     1015.444      649.511        0.706        0.259       94.616       24.889        0.069      344.195       20.842      862.884
08/03/2014  04:59:00     -122.149      -89.396        4.583       59.413       51.956       31.739     3529.890     2699.465     1007.348        1.508        0.362      151.367       34.249        0.051      344.148       20.760      862.880
08/03/2014  05:00:00     -142.279     -100.220       -4.624       58.819       57.008       34.461     3459.707     3249.855     1187.576        1.910        0.395      174.033       33.257        0.037      344.139       20.745      862.892
08/03/2014  05:01:00     -100.529      -78.221        7.061       58.878       47.482       32.065     3466.621     2254.559     1028.155        1.151        0.337      127.376       31.444        0.061      344.116       20.707      862.898
08/03/2014  05:02:00      -87.167      -91.972        0.552       79.405       56.217       33.523     6305.154     3160.386     1123.795        1.332        0.529      126.716       43.687        0.119      344.112       20.700      862.902
08/03/2014  05:03:00      -87.558      -63.103        0.077       38.706       34.612       22.528     1498.158     1197.996      507.531        0.743        0.160      107.928       22.169        0.042      344.073       20.635      862.893
08/03/2014  05:04:00      -85.419      -51.130        1.693       40.627       43.518       23.702     1650.528     1893.835      561.781        0.701        0.205       99.552       18.137        0.033      344.027       20.555      862.893
08/03/2014  05:05:00      -72.888      -46.622        4.593       53.375       36.023       26.453     2848.860     1297.681      699.755        0.618        0.242       86.523       24.845        0.082      343.981       20.476      862.879
08/03/2014  05:06:00     -102.468      -12.625        5.500       48.454       34.255       22.544     2347.752     1173.407      508.224        0.736        0.201      103.242       23.704        0.053      343.968       20.452      862.872
08/03/2014  05:07:00      -45.524      -45.775        4.955       30.834       44.554       19.096      950.706     1985.016      364.651        0.375        0.165       64.559       17.554        0.074      343.982       20.478      862.858
08/03/2014  05:08:00     -124.794      -70.701        3.627       36.580       36.768       23.763     1338.105     1351.867      564.701        1.192        0.163      143.430       21.220        0.022      344.020       20.542      862.837
08/03/2014  05:09:00     -101.665      -69.431        3.165       37.282       37.081       27.029     1389.927     1375.006      730.546        0.933        0.175      123.111       16.208        0.017      344.022       20.547      862.812
08/03/2014  05:10:00     -107.373      -34.713       -7.705       42.717       23.566       18.791     1824.771      555.342      353.116        0.776        0.137      112.844       15.881        0.020      344.012       20.529      862.794
08/03/2014  05:11:00      -86.600       -5.793       -3.050       42.182       26.042       20.649     1779.345      678.198      426.368        0.521        0.144       86.794       17.364        0.040      343.935       20.399      862.783
08/03/2014  05:12:00      -70.146      -11.500        3.591       35.697       26.946       18.476     1274.247      726.111      341.352        0.370        0.117       71.083       20.238        0.081      343.882       20.306      862.761
08/03/2014  05:13:00      -90.211       -5.538       -9.879       28.333       21.258       17.767      802.785      451.912      315.652        0.492        0.079       90.381       15.072        0.028      343.776       20.126      862.740
08/03/2014  05:14:00      -80.698        4.396       -5.554       24.743       20.118       14.677      612.201      404.729      215.416        0.390        0.062       80.817       13.760        0.029      343.744       20.073      862.721
08/03/2014  05:15:00      -59.752      -29.207       -0.391       24.652       25.687       15.164      607.738      659.826      229.950        0.296        0.075       66.508       11.306        0.029      343.791       20.153      862.724
08/03/2014  05:16:00      -94.686      -25.447      -15.706       18.455       23.238       14.543      340.569      540.026      211.502        0.548        0.055       98.046       11.480        0.014      343.784       20.140      862.735
08/03/2014  05:17:00      -75.221      -20.213       -6.989       31.602       33.780       15.116      998.690     1141.102      228.506        0.424        0.118       77.890       15.098        0.038      343.798       20.163      862.742
08/03/2014  05:18:00      -67.046      -22.413       -0.643       27.688       15.873       15.800      766.616      251.956      249.641        0.313        0.063       70.693       16.779        0.056      343.771       20.117      862.749
08/03/2014  05:19:00      -56.139      -16.396       -6.270       28.880       13.267        7.508      834.055      176.012       56.371        0.226        0.053       58.484       11.011        0.035      343.788       20.147      862.759
08/03/2014  05:20:00      -39.770        3.784        0.345       25.572       19.267       12.919      653.934      371.204      166.892        0.139        0.060       39.949       11.118        0.077      343.834       20.227      862.775
08/03/2014  05:21:00      -43.585       12.031       -3.014       13.161       12.029       13.698      173.200      144.707      187.639        0.128        0.025       45.215       10.128        0.050      343.912       20.356      862.781
08/03/2014  05:22:00      -75.075        3.887       -8.173       19.123       16.967       17.582      365.683      287.876      309.129        0.334        0.048       75.176        8.727        0.013      343.960       20.438      862.786
08/03/2014  05:23:00      -42.655      -10.835        2.569       20.887       17.495       12.899      436.275      306.069      166.384        0.143        0.045       44.010       10.400        0.056      343.949       20.421      862.789
08/03/2014  05:24:00      -38.041      -24.266       -3.988       12.163       10.888        6.765      147.950      118.545       45.772        0.118        0.016       45.122        5.234        0.013      343.965       20.447      862.797
08/03/2014  05:25:00      -13.941      -26.145      -14.442       14.094       10.541       11.215      198.655      111.105      125.773        0.076        0.022       29.629        7.074        0.057      343.987       20.487      862.792
08/03/2014  05:26:00        1.322      -18.486       -6.009       11.507       10.587        7.921      132.416      112.076       62.744        0.034        0.015       18.533        5.364        0.084      343.919       20.370      862.780
08/03/2014  05:27:00      -45.642      -32.104       -1.677       27.083       21.462       14.588      733.469      460.623      212.807        0.226        0.070       55.802       14.848        0.071      343.827       20.214      862.755
08/03/2014  05:28:00      -74.500      -47.291       -3.904       25.012       20.332       13.491      625.621      413.374      182.014        0.451        0.061       88.242       11.383        0.017      343.737       20.059      862.734
08/03/2014  05:29:00      -85.684      -56.878       -7.348       16.174       18.950        9.920      261.611      359.089       98.400        0.567        0.036      102.843        8.500        0.007      343.821       20.205      862.714
08/03/2014  05:30:00      -80.475      -41.146        1.590       21.661       24.520       14.285      469.217      601.225      204.055        0.472        0.064       90.384       11.192        0.015      343.833       20.223      862.692
08/03/2014  05:31:00      -57.602      -37.526        1.256       25.409       18.374       14.500      645.606      337.595      210.236        0.296        0.060       68.747       12.089        0.031      343.780       20.133      862.676
08/03/2014  05:32:00      -58.596      -35.978        6.250       20.804       20.898       14.339      432.794      436.725      205.597        0.292        0.054       68.760        9.828        0.020      343.784       20.140      862.671
08/03/2014  05:33:00      -50.721      -36.603        4.450       34.254       19.348       16.467     1173.321      374.344      271.155        0.288        0.091       62.549       18.595        0.088      343.812       20.189      862.657
08/03/2014  05:34:00      -35.591      -30.332        6.093       28.896       20.377       16.061      834.951      415.223      257.952        0.187        0.075       46.762       16.691        0.127      343.919       20.370      862.659
08/03/2014  05:35:00      -38.556      -37.585        6.397       34.053       22.588       18.493     1159.634      510.207      341.980        0.248        0.101       53.844       19.810        0.135      343.928       20.384      862.672
08/03/2014  05:36:00      -26.990      -22.508        3.163       18.926       18.859       12.508      358.184      355.675      156.448        0.106        0.044       35.144        8.531        0.059      343.948       20.420      862.692
08/03/2014  05:37:00       -4.414      -47.766       -4.915       10.106       13.294       11.437      102.135      176.729      130.797        0.137        0.020       47.970        7.453        0.024      344.040       20.579      862.701
08/03/2014  05:38:00        0.439      -41.311       -2.000       13.252       18.236       12.283      175.615      332.546      150.865        0.118        0.033       41.313        8.202        0.039      344.084       20.654      862.709
08/03/2014  05:39:00      -16.829      -22.705        1.277       13.791       13.218        9.531      190.180      174.728       90.840        0.063        0.023       28.262        7.538        0.071      344.066       20.621      862.712
08/03/2014  05:40:00      -34.044      -34.442       -0.093       25.866       12.450       11.757      669.071      154.991      138.218        0.165        0.048       48.427        5.966        0.015      344.049       20.593      862.708
08/03/2014  05:41:00      -57.259      -32.162        0.845       15.822       17.089       10.514      250.345      292.041      110.545        0.248        0.033       65.674        7.350        0.013      344.029       20.558      862.701
08/03/2014  05:42:00      -81.295      -33.541       -6.490       10.609       15.332        8.118      112.543      235.077       65.895        0.409        0.021       87.942        7.653        0.008      343.987       20.487      862.699
08/03/2014  05:43:00      -97.801      -39.872       -5.460       20.437       14.623       10.064      417.653      213.825      101.276        0.596        0.037      105.616        9.387        0.008      343.933       20.393      862.696
08/03/2014  05:44:00      -90.162      -37.279       -2.930       19.196       15.087       12.481      368.479      227.611      155.785        0.514        0.038       97.565       11.333        0.013      343.905       20.346      862.695
08/03/2014  05:45:00      -78.898      -14.237       -1.896       27.757       22.569       13.594      770.449      509.354      184.803        0.395        0.073       80.172       13.790        0.030      343.843       20.240      862.693
08/03/2014  05:46:00      -80.996       -4.427       -1.665       22.427       14.825       13.453      502.978      219.794      180.978        0.374        0.045       81.117       11.736        0.021      343.762       20.101      862.701
08/03/2014  05:47:00      -71.376       -5.850       -5.303       25.797       16.643       14.042      665.511      277.000      197.181        0.315        0.057       71.615       13.967        0.038      343.722       20.032      862.704
08/03/2014  05:48:00      -69.476      -25.419       -0.040       20.174       21.282       12.435      407.004      452.917      154.639        0.324        0.051       73.980        8.635        0.014      343.757       20.094      862.704
08/03/2014  05:49:00      -69.519      -35.793       -1.579       17.947       17.796       11.127      322.083      316.701      123.815        0.344        0.038       78.193        8.925        0.013      343.777       20.127      862.710
08/03/2014  05:50:00      -55.046      -22.398        2.791       19.599       21.616       12.900      384.104      467.257      166.407        0.228        0.051       59.428       10.395        0.031      343.777       20.128      862.713
08/03/2014  05:51:00      -88.582      -25.999       -4.298       12.014       13.328        8.579      144.325      177.623       73.599        0.447        0.020       92.319        6.084        0.004      343.832       20.222      862.718
08/03/2014  05:52:00      -57.409      -36.103        3.445       29.102       16.319       12.119      846.950      266.325      146.880        0.294        0.063       67.817       12.349        0.033      343.787       20.146      862.722
08/03/2014  05:53:00      -24.187      -28.364       12.993       35.828       24.768       17.434     1283.635      613.445      303.932        0.188        0.110       37.276       21.182        0.323      343.850       20.253      862.729
08/03/2014  05:54:00      -77.382      -73.347        4.589       47.426       35.886       26.395     2249.225     1287.807      696.682        0.781        0.212      106.620       24.359        0.052      343.902       20.341      862.728
08/03/2014  05:55:00     -129.437     -107.335      -14.527       33.775       37.186       23.437     1140.740     1382.768      549.300        1.578        0.154      168.151       14.881        0.008      343.936       20.398      862.734
08/03/2014  05:56:00     -108.545      -82.570       -4.623       46.430       38.441       24.001     2155.771     1477.675      576.046        1.141        0.210      136.381       26.342        0.037      343.922       20.375      862.734
08/03/2014  05:57:00      -96.956      -54.942        7.763       49.250       30.597       20.164     2425.519      936.194      406.600        0.812        0.188      111.441       21.287        0.036      343.883       20.307      862.730
08/03/2014  05:58:00      -82.590      -74.002       -5.183       51.680       32.950       20.799     2670.867     1085.694      432.617        0.826        0.209      110.893       21.060        0.036      343.892       20.323      862.720
08/03/2014  05:59:00      -43.681      -34.126        4.669       46.317       30.597       22.931     2145.264      936.146      525.849        0.335        0.180       55.431       18.729        0.114      343.827       20.213      862.709
08/03/2014  06:00:00      -98.076      -44.015       -4.229       25.196       33.103       18.344      634.819     1095.818      336.520        0.682        0.103      107.500        8.486        0.006      343.823       20.208      862.700
08/03/2014  06:01:00      -75.179      -52.767        5.565       45.243       32.611       21.578     2046.918     1063.448      465.619        0.602        0.179       91.849       27.072        0.087      343.776       20.125      862.704
08/03/2014  06:02:00     -122.862      -62.756       -4.748       26.003       31.477       22.146      676.134      990.805      490.427        1.061        0.108      137.962       14.605        0.011      343.824       20.208      862.724
08/03/2014  06:03:00     -118.829      -49.241       -1.250       23.149       20.886       16.327      535.886      436.225      266.584        0.889        0.062      128.627        9.697        0.006      343.828       20.215      862.734
08/03/2014  06:04:00      -88.897      -36.334       -0.820       32.761       44.519       21.489     1073.313     1981.919      461.785        0.637        0.176       96.036       17.228        0.032      343.769       20.115      862.750
08/03/2014  06:05:00      -95.014      -39.146       -3.530       28.507       20.440       13.859      812.663      417.794      192.074        0.600        0.071      102.762       11.728        0.013      343.766       20.109      862.762
08/03/2014  06:06:00      -75.142      -24.686       -0.762       25.903       26.287       15.564      670.962      690.981      242.253        0.393        0.080       79.093       14.563        0.034      343.772       20.118      862.772
08/03/2014  06:07:00      -83.985      -15.053       -1.818       14.331       13.818       13.717      205.369      190.926      188.162        0.393        0.029       85.323        8.269        0.009      343.710       20.013      862.787
08/03/2014  06:08:00      -94.235      -29.803       -9.863       15.732       13.708        9.434      247.497      187.908       88.999        0.519        0.026       98.836        1.993        0.000      343.729       20.047      862.791
08/03/2014  06:09:00      -64.502      -34.278       -2.956       13.515       11.325        9.444      182.658      128.250       89.189        0.287        0.020       73.044        7.499        0.011      343.751       20.084      862.785
08/03/2014  06:10:00      -77.744      -32.219        1.337       16.651        9.468       10.419      277.270       89.638      108.561        0.378        0.024       84.156        6.515        0.006      343.774       20.124      862.783
08/03/2014  06:11:00      -81.014      -35.113        1.399       11.507       11.650        7.516      132.422      135.730       56.494        0.406        0.016       88.296        5.006        0.003      343.765       20.106      862.783
08/03/2014  06:12:00      -32.528      -25.247        2.012       19.182       16.420       10.993      367.943      269.610      120.848        0.123        0.038       41.177        9.494        0.053      343.736       20.059      862.797
08/03/2014  06:13:00      -41.386      -18.451        0.288       11.588       13.148        8.311      134.292      172.858       69.080        0.121        0.019       45.312        4.705        0.011      343.758       20.095      862.819
08/03/2014  06:14:00      -16.004      -24.773        1.315       20.014       14.017        6.817      400.572      196.481       46.474        0.076        0.032       29.493        4.911        0.028      343.750       20.083      862.835
08/03/2014  06:15:00       -6.126       -3.219        3.413       16.225        4.954        7.465      263.261       24.541       55.724        0.020        0.017        6.920        5.172        0.558      343.731       20.050      862.852
08/03/2014  06:16:00       -3.441      -33.979       -7.804       11.493       18.490       10.669      132.097      341.893      113.838        0.091        0.029       34.152        8.423        0.061      343.878       20.301      862.867
08/03/2014  06:17:00        3.951       -4.598        8.754       23.827       32.592       15.068      567.745     1062.209      227.053        0.098        0.093        6.063       14.885        6.028      343.860       20.269      862.881
08/03/2014  06:18:00       -1.080      -19.601      -11.382       13.502       40.898       11.285      182.305     1672.643      127.343        0.125        0.099       19.630        9.345        0.227      343.752       20.085      862.886
08/03/2014  06:19:00        6.968      -12.480        4.072        6.545       15.511        9.205       42.838      240.597       84.726        0.029        0.018       14.294        8.998        0.396      343.782       20.135      862.884
08/03/2014  06:20:00      -30.515       -5.099       -1.566       12.278       11.834        9.132      150.750      140.054       83.398        0.067        0.019       30.938        5.335        0.030      343.831       20.221      862.881
08/03/2014  06:21:00      -17.681      -12.603       -2.605       12.654        9.486        7.321      160.123       89.975       53.593        0.039        0.015       21.713        5.999        0.076      343.840       20.237      862.877
08/03/2014  06:22:00      -26.966      -20.886       -5.107       19.836       12.880        9.477      393.480      165.886       89.809        0.092        0.032       34.109        5.299        0.024      343.873       20.292      862.875
08/03/2014  06:23:00        0.546      -23.342        6.647       16.177       16.139       11.317      261.708      260.466      128.085        0.062        0.033       23.348        8.733        0.140      343.874       20.292      862.872
08/03/2014  06:24:00      -58.092      -60.947        1.529       32.432       20.636       16.283     1051.822      425.843      265.149        0.442        0.087       84.198       13.862        0.027      343.866       20.281      862.870
08/03/2014  06:25:00      -65.103      -45.134       -4.494       33.852       22.830       21.957     1145.946      521.212      482.112        0.422        0.107       79.218       22.125        0.078      343.834       20.225      862.878
08/03/2014  06:26:00      -60.524      -30.965       -3.936       24.621       19.744       19.219      606.173      389.810      369.368        0.300        0.068       67.985       13.813        0.041      343.793       20.154      862.892
08/03/2014  06:27:00      -32.979      -40.273      -12.330       23.540       36.403       23.832      554.108     1325.150      567.984        0.265        0.122       52.053       17.222        0.109      343.793       20.153      862.911
08/03/2014  06:28:00      -61.609      -39.543        7.018       58.239       42.555       23.625     3391.741     1810.904      558.130        0.558        0.288       73.207       20.879        0.081      343.702       19.999      862.917
08/03/2014  06:29:00      -85.127      -73.490        3.973       57.784       38.755       27.379     3338.955     1501.940      749.611        0.913        0.280      112.460       24.237        0.046      343.693       19.983      862.928
08/03/2014  06:30:00     -149.059     -124.204      -12.170       32.023       39.532       24.265     1025.490     1562.743      588.781        2.048        0.159      194.024       22.228        0.013      343.672       19.945      862.935
08/03/2014  06:31:00     -141.455     -115.261      -10.178       44.062       49.425       27.915     1941.474     2442.786      779.263        1.928        0.258      182.468       30.712        0.028      343.680       19.961      862.945
08/03/2014  06:32:00     -152.884      -91.418       -3.846       25.713       30.813       21.485      661.145      949.425      461.608        1.691        0.104      178.131        8.665        0.002      343.719       20.028      862.946
08/03/2014  06:33:00     -103.096      -52.961        2.578       69.934       41.700       22.880     4890.822     1738.896      523.479        1.030        0.358      115.904       30.238        0.068      343.707       20.008      862.944
08/03/2014  06:34:00     -113.504      -58.587       -6.069       36.613       28.442       20.422     1340.491      808.928      417.051        0.946        0.128      127.733       18.163        0.020      343.727       20.042      862.941
08/03/2014  06:35:00     -135.931      -83.582       -9.375       36.086       28.799       17.065     1302.213      829.399      291.225        1.399        0.121      159.571       18.177        0.013      343.769       20.114      862.943
08/03/2014  06:36:00     -120.517      -65.974       -1.995       24.843       27.078       20.552      617.198      733.242      422.365        1.033        0.089      137.394       16.535        0.014      343.769       20.114      862.947
08/03/2014  06:37:00     -105.608      -38.442       -3.949       22.870       27.231       18.283      523.056      741.513      334.251        0.712        0.080      112.387       14.701        0.017      343.775       20.124      862.958
08/03/2014  06:38:00     -112.833      -57.379       -4.173       19.417       21.920       13.340      377.038      480.478      177.951        0.854        0.052      126.585       11.346        0.008      343.794       20.158      862.970
08/03/2014  06:39:00      -64.077      -54.976       -7.742       40.583       20.925       14.017     1647.018      437.836      196.469        0.473        0.114       84.429       15.374        0.033      343.805       20.176      862.985
08/03/2014  06:40:00      -42.861      -41.543        2.663       28.758       18.768       17.372      827.028      352.223      301.799        0.253        0.074       59.690       14.249        0.057      343.827       20.212      862.996
08/03/2014  06:41:00      -24.572      -46.239        4.720       35.096       23.052       21.611     1231.726      531.398      467.014        0.250        0.112       52.363       19.940        0.145      343.852       20.256      862.999
08/03/2014  06:42:00      -59.215      -43.123        2.306       33.566       30.213       22.152     1126.676      912.852      490.718        0.395        0.127       73.253       23.811        0.106      343.767       20.111      863.002
08/03/2014  06:43:00        1.464      -43.878        5.518       16.658       21.101       16.974      277.479      445.262      288.113        0.148        0.051       43.902        9.762        0.049      343.808       20.181      863.006
08/03/2014  06:44:00      -37.718      -27.812       -0.932       39.669       27.029       23.543     1573.659      730.562      554.262        0.253        0.143       46.863       17.932        0.146      343.720       20.029      863.009
08/03/2014  06:45:00      -30.824      -26.255        2.502       25.856       23.485       17.788      668.543      551.562      316.413        0.159        0.077       40.491       13.629        0.113      343.693       19.985      863.011
08/03/2014  06:46:00      -62.481      -29.306        4.805       36.400       24.351       20.107     1324.995      592.957      404.290        0.355        0.116       69.012       17.242        0.062      343.627       19.872      863.013
08/03/2014  06:47:00      -97.283      -46.256       -0.940       30.351       29.065       17.613      921.184      844.775      310.221        0.684        0.104      107.720       11.707        0.012      343.621       19.861      863.018
08/03/2014  06:48:00      -95.604      -43.678       -4.234       28.804       31.129       23.228      829.644      969.028      539.552        0.670        0.117      105.109       16.602        0.025      343.609       19.841      863.014
08/03/2014  06:49:00     -115.847      -71.841       -2.794       30.670       33.694       16.465      940.641     1135.297      271.107        1.047        0.117      136.315       16.722        0.015      343.638       19.892      863.023
08/03/2014  06:50:00     -104.537      -99.452       -3.817       45.560       27.688       26.269     2075.708      766.625      690.037        1.218        0.177      144.287       22.902        0.025      343.651       19.911      863.025
08/03/2014  06:51:00      -76.892      -75.415        3.133       42.056       36.050       28.247     1768.700     1299.587      797.883        0.774        0.193      107.703       28.278        0.069      343.720       20.030      863.021
08/03/2014  06:52:00      -56.762      -61.541        4.875       49.575       40.447       26.675     2457.651     1635.946      711.575        0.592        0.240       83.722       26.381        0.099      343.792       20.153      863.013
08/03/2014  06:53:00      -45.757      -38.198        5.116       41.173       28.421       21.964     1695.207      807.763      482.406        0.328        0.149       59.605       24.777        0.173      343.810       20.184      863.010
08/03/2014  06:54:00      -51.340      -33.161        3.735       33.952       19.534       14.581     1152.726      381.561      212.596        0.275        0.087       61.119       14.806        0.059      343.837       20.231      863.016
08/03/2014  06:55:00      -52.087      -32.878        3.989       27.106       22.919       14.947      734.727      525.259      223.426        0.265        0.074       61.596       14.795        0.058      343.861       20.272      863.030
08/03/2014  06:56:00      -69.910      -46.438        0.246       42.929       19.135       16.650     1842.865      366.152      277.220        0.476        0.124       83.928       21.984        0.069      343.880       20.303      863.044
08/03/2014  06:57:00      -70.970      -50.466       -1.820       22.960       18.414       12.664      527.164      339.084      160.378        0.431        0.051       87.083        8.928        0.011      343.867       20.282      863.049
08/03/2014  06:58:00      -39.342      -42.693        3.588       39.137       22.636       16.885     1531.703      512.405      285.114        0.286        0.116       58.056       17.401        0.090      343.934       20.395      863.045
08/03/2014  06:59:00      -35.321      -46.719        8.384       38.033       34.991       19.210     1446.497     1224.348      369.026        0.327        0.152       58.568       22.439        0.147      343.958       20.437      863.044
08/03/2014  07:00:00      -71.187      -64.912        1.688       28.481       27.721       19.472      811.184      768.469      379.148        0.562        0.098       96.338       16.988        0.031      343.874       20.294      863.060
08/03/2014  07:01:00      -71.022      -67.691        0.357       31.539       23.518       19.215      994.702      553.074      369.226        0.577        0.096       98.113       13.599        0.019      343.904       20.344      863.074
08/03/2014  07:02:00      -97.557      -74.056       -3.991       37.132       28.601       18.674     1378.769      818.012      348.718        0.878        0.127      122.481       16.641        0.018      343.959       20.438      863.076
08/03/2014  07:03:00     -105.185      -57.894       -3.017       45.921       31.766       20.377     2108.733     1009.077      415.218        0.898        0.177      120.064       18.380        0.023      343.967       20.453      863.083
08/03/2014  07:04:00      -94.605      -50.453        1.595       43.037       34.286       20.682     1852.217     1175.529      427.743        0.748        0.173      107.218       14.894        0.019      343.969       20.456      863.094
08/03/2014  07:05:00      -92.178      -64.982        6.431       45.111       30.430       24.237     2035.008      925.971      587.432        0.815        0.177      112.780       26.476        0.055      343.973       20.463      863.083
08/03/2014  07:06:00     -146.032      -99.934       -1.889       52.099       43.774       28.987     2714.319     1916.177      840.267        1.839        0.274      176.953       28.219        0.025      343.946       20.413      863.095
08/03/2014  07:07:00     -100.055      -59.747        5.825       56.706       44.222       26.185     3215.575     1955.582      685.648        0.973        0.293      116.536       30.545        0.069      343.989       20.488      863.101
08/03/2014  07:08:00      -86.424      -66.095        4.428       48.555       40.029       23.656     2357.585     1602.332      559.599        0.819        0.226      108.801       19.911        0.033      343.938       20.401      863.083
08/03/2014  07:09:00     -113.428      -69.621       -0.875       62.767       30.024       24.892     3939.670      901.425      619.603        1.159        0.273      133.090       26.777        0.040      343.970       20.456      863.087
08/03/2014  07:10:00      -68.499      -61.659        5.386       46.930       37.780       27.408     2202.380     1427.354      751.199        0.645        0.219       92.162       28.034        0.093      344.019       20.541      863.079
08/03/2014  07:11:00      -69.267      -67.423        0.764       41.300       37.681       24.691     1705.683     1419.830      609.645        0.654        0.187       96.664       20.344        0.044      344.008       20.522      863.073
08/03/2014  07:12:00      -59.378      -50.213        2.637       32.368       24.599       21.873     1047.712      605.133      478.415        0.409        0.107       77.763       20.018        0.066      344.051       20.598      863.084
08/03/2014  07:13:00      -63.773      -41.960       -7.021       16.193       21.987       11.946      262.198      483.417      142.698        0.338        0.044       76.339       10.174        0.018      344.061       20.613      863.089
08/03/2014  07:14:00      -50.209      -58.434        1.356       26.191       21.431       19.946      685.978      459.279      397.844        0.374        0.077       77.042       16.496        0.046      344.087       20.655      863.087
08/03/2014  07:15:00      -38.401      -45.762       12.537       35.588       34.174       19.223     1266.515     1167.845      369.532        0.326        0.140       59.739       18.432        0.095      344.120       20.713      863.092
08/03/2014  07:16:00      -72.498      -56.037       -5.697       23.539       27.234       16.236      554.074      741.716      263.600        0.499        0.078       91.631       11.303        0.015      344.154       20.770      863.087
08/03/2014  07:17:00     -117.928      -57.202       -2.800       21.343       25.328       13.946      455.526      641.507      194.494        0.924        0.065      131.069        5.683        0.002      344.129       20.731      863.096
08/03/2014  07:18:00      -60.885      -32.392        2.924       27.014       24.490       12.766      729.740      599.750      162.977        0.313        0.075       68.965       13.410        0.038      344.171       20.803      863.112
08/03/2014  07:19:00       -6.306      -30.442        9.631       16.080       20.561       13.060      258.568      422.735      170.562        0.096        0.043       31.088       12.530        0.162      344.225       20.896      863.125
08/03/2014  07:20:00      -21.519      -46.590        1.086       18.432       18.807       13.372      339.742      353.721      178.812        0.175        0.044       51.320       12.737        0.062      344.132       20.734      863.141
08/03/2014  07:21:00      -27.968      -61.443       -6.184       14.946       11.629        9.877      223.377      135.223       97.554        0.253        0.023       67.509        5.426        0.006      344.160       20.782      863.152
08/03/2014  07:22:00      -34.589      -56.549       -1.680       12.572       13.458        7.894      158.053      181.111       62.316        0.240        0.020       66.288        7.823        0.014      344.166       20.790      863.166
08/03/2014  07:23:00      -43.933      -31.822       -3.650       18.252       21.527       10.067      333.133      463.432      101.354        0.193        0.045       54.247        3.325        0.004      344.200       20.848      863.186
08/03/2014  07:24:00      -40.443      -16.475        1.051       20.288       15.453       10.601      411.615      238.810      112.372        0.134        0.038       43.670        8.771        0.040      344.219       20.882      863.205
08/03/2014  07:25:00      -54.825      -20.401        3.664       23.991       18.060       12.300      575.580      326.173      151.284        0.224        0.053       58.498        7.749        0.018      344.238       20.915      863.227
08/03/2014  07:26:00      -19.858      -23.863       11.498       16.188       16.668       11.909      262.039      277.813      141.834        0.089        0.034       31.045       10.444        0.113      344.270       20.970      863.264
08/03/2014  07:27:00      -17.337      -31.410        7.910       32.315       18.619       16.093     1044.266      346.667      258.970        0.150        0.082       35.877       20.034        0.312      344.343       21.094      863.278
08/03/2014  07:28:00      -13.090      -28.838       10.352       24.032       18.461       15.204      577.532      340.798      231.169        0.113        0.057       31.670       13.985        0.195      344.327       21.067      863.301
08/03/2014  07:29:00      -55.814      -62.069       -5.500       13.539       11.028       13.990      183.312      121.623      195.722        0.375        0.025       83.473       10.511        0.016      344.315       21.047      863.323
08/03/2014  07:30:00      -57.977      -68.127       -8.725       16.774       15.962       12.845      281.377      254.790      164.993        0.439        0.035       89.457        7.832        0.008      344.272       20.977      863.332
08/03/2014  07:31:00      -59.187      -50.755       -1.340       24.218       19.191       15.248      586.516      368.288      232.513        0.363        0.059       77.969       13.738        0.031      344.293       21.011      863.353
08/03/2014  07:32:00      -43.837      -16.832       -2.699       23.730       12.924       15.694      563.127      167.029      246.302        0.159        0.049       46.957        8.259        0.031      344.339       21.089      863.357
08/03/2014  07:33:00      -36.748      -40.450       -0.306       35.355       16.899       13.214     1249.952      285.575      174.607        0.235        0.086       54.650       12.534        0.053      344.341       21.092      863.358
08/03/2014  07:34:00      -79.175      -50.921       -6.215       18.413       17.503       14.082      339.032      306.358      198.292        0.487        0.042       94.136        7.851        0.007      344.409       21.206      863.370
08/03/2014  07:35:00      -85.144      -48.947      -10.189       15.199       17.984       10.794      231.017      323.413      116.512        0.521        0.034       98.211        9.222        0.009      344.408       21.203      863.374
08/03/2014  07:36:00      -59.859      -39.173        1.263       25.628       18.313       13.592      656.808      335.365      184.733        0.315        0.059       71.538       13.653        0.036      344.389       21.173      863.384
08/03/2014  07:37:00      -74.397      -50.919        3.068       22.081       13.633       11.878      487.573      185.859      141.075        0.448        0.041       90.154       13.411        0.022      344.405       21.202      863.401
08/03/2014  07:38:00      -68.103      -54.502       -2.971       18.325       12.309       11.957      335.821      151.516      142.967        0.412        0.032       87.227        8.489        0.009      344.366       21.133      863.399
08/03/2014  07:39:00      -64.851      -48.812        1.372       15.887       19.251       10.156      252.403      370.601      103.149        0.366        0.036       81.168        7.290        0.008      344.346       21.101      863.403
08/03/2014  07:40:00      -46.160      -38.920        2.145       31.088       16.148       12.991      966.480      260.771      168.766        0.252        0.070       60.378       14.101        0.055      344.356       21.117      863.413
08/03/2014  07:41:00      -67.183      -54.294        2.532       40.293       23.089       17.028     1623.500      533.082      289.950        0.496        0.122       86.379       17.411        0.041      344.384       21.165      863.422
08/03/2014  07:42:00      -82.077      -30.700        1.766       25.459       18.410       15.373      648.142      338.917      236.331        0.445        0.061       87.631       11.874        0.018      344.447       21.273      863.433
08/03/2014  07:43:00      -66.874      -25.610        3.617       25.793       22.663       13.307      665.262      513.626      177.081        0.325        0.068       71.610       12.590        0.031      344.449       21.274      863.466
08/03/2014  07:44:00      -50.848      -21.307        2.974       15.550       20.877        8.071      241.805      435.841       65.142        0.190        0.037       55.132        4.819        0.008      344.510       21.379      863.497
08/03/2014  07:45:00      -35.727       -9.040        2.305       11.990       11.520        8.398      143.765      132.714       70.530        0.086        0.017       36.853        4.767        0.017      344.555       21.457      863.528
08/03/2014  07:46:00       -6.691      -16.486        2.191        9.975       13.486        8.643       99.492      181.863       74.708        0.034        0.018       17.792        8.188        0.212      344.654       21.626      863.554
08/03/2014  07:47:00        3.609      -19.303        7.385       12.585       15.631       12.538      158.375      244.343      157.207        0.050        0.028       19.637        5.973        0.093      344.768       21.821      863.585
08/03/2014  07:48:00      -25.670      -57.164       -0.632       11.270       12.862        9.679      127.010      165.425       93.676        0.216        0.019       62.663        6.318        0.010      344.648       21.617      863.606
08/03/2014  07:49:00      -27.901      -36.511        2.042       11.978       17.988       16.794      143.483      323.581      282.052        0.143        0.037       45.951       12.502        0.074      344.587       21.512      863.639
08/03/2014  07:50:00      -17.484      -36.364       -0.398       22.675       20.342       14.155      514.147      413.782      200.367        0.138        0.056       40.349        9.679        0.058      344.584       21.508      863.664
08/03/2014  07:51:00      -37.726      -14.909        8.053       24.256       20.182       13.267      588.345      407.311      176.021        0.144        0.059       40.565        8.352        0.042      344.529       21.415      863.681
08/03/2014  07:52:00      -32.552      -45.081       -0.094       32.788       40.884       15.137     1075.030     1671.512      229.118        0.303        0.149       55.605       14.310        0.066      344.487       21.341      863.685
08/03/2014  07:53:00      -85.538      -39.637        5.978       46.717       34.531       23.760     2182.449     1192.406      564.521        0.643        0.197       94.275       23.426        0.062      344.407       21.203      863.686
08/03/2014  07:54:00      -95.726      -61.483        2.637       40.775       36.685       22.747     1662.576     1345.809      517.437        0.824        0.176      113.769       22.818        0.040      344.392       21.179      863.677
08/03/2014  07:55:00      -94.557      -94.550       -0.777       29.656       34.938       16.600      879.491     1220.655      275.553        1.013        0.119      133.718       16.454        0.015      344.377       21.152      863.674
08/03/2014  07:56:00      -98.841      -70.935       -2.327       36.537       37.367       20.592     1334.966     1396.303      424.037        0.898        0.158      121.661       15.224        0.016      344.405       21.200      863.671
08/03/2014  07:57:00      -82.187      -53.272       -6.053       39.334       25.400       17.681     1547.153      645.141      312.603        0.607        0.125       97.941       17.248        0.031      344.396       21.183      863.670
08/03/2014  07:58:00     -123.788      -49.053        3.897       31.118       26.367       17.454      968.357      695.233      304.639        0.986        0.098      133.153       15.675        0.014      344.414       21.213      863.674
08/03/2014  07:59:00      -71.024      -48.846       -2.990       30.607       22.295       18.391      936.769      497.053      338.242        0.461        0.089       86.199       10.817        0.016      344.438       21.259      863.671
08/03/2014  08:00:00      -63.395      -76.953        3.444       30.009       48.214       21.376      900.538     2324.591      456.918        0.682        0.184       99.703       21.114        0.045      344.485       21.337      863.669
08/03/2014  08:01:00      -60.148      -63.172        2.634       49.567       33.254       24.697     2456.843     1105.856      609.936        0.589        0.209       87.227       23.600        0.073      344.535       21.422      863.662
08/03/2014  08:02:00     -121.633       -1.181      -11.454       29.891       31.511       17.115      893.452      992.955      292.929        0.855        0.109      121.638       11.950        0.010      344.456       21.288      863.658
08/03/2014  08:03:00      -46.432       -8.772        6.138       39.798       26.344       18.728     1583.913      694.024      350.748        0.245        0.131       47.253       21.028        0.198      344.606       21.545      863.643
08/03/2014  08:04:00      -48.289      -29.315        6.923       43.113       43.536       17.725     1858.743     1895.415      314.159        0.365        0.203       56.490       24.714        0.191      344.777       21.836      863.654
08/03/2014  08:05:00      -78.215      -78.148       -5.600       35.667       29.707       20.274     1272.166      882.507      411.050        0.741        0.128      110.565       14.973        0.018      344.565       21.475      863.670
08/03/2014  08:06:00      -45.044      -42.682        5.207       44.472       38.537       26.658     1977.794     1485.137      710.623        0.402        0.209       62.054       27.714        0.199      344.715       21.730      863.676
08/03/2014  08:07:00      -84.960      -82.715       -2.674       49.634       38.091       28.506     2463.531     1450.932      812.590        0.940        0.236      118.575       26.070        0.048      344.644       21.611      863.695
08/03/2014  08:08:00      -88.768      -37.529        1.188       32.677       28.926       16.681     1067.815      836.721      278.264        0.574        0.109       96.376       15.226        0.025      344.655       21.629      863.713
08/03/2014  08:09:00      -92.274      -69.154        2.463       47.063       35.415       24.867     2214.961     1254.256      618.381        0.869        0.204      115.312       25.812        0.050      344.676       21.665      863.716
08/03/2014  08:10:00      -49.910      -31.108        3.454       34.815       20.298       16.243     1212.093      412.007      263.841        0.268        0.094       58.811       14.056        0.057      344.736       21.767      863.731
08/03/2014  08:11:00      -61.463      -82.382       -2.479       20.087       23.394       17.831      403.475      547.289      317.938        0.592        0.063      102.784       12.791        0.015      344.685       21.680      863.730
08/03/2014  08:12:00      -43.742      -77.205        1.449       33.334       24.587       21.004     1111.184      604.538      441.176        0.502        0.108       88.735       10.246        0.013      344.745       21.782      863.741
08/03/2014  08:13:00      -30.563      -64.113        1.529       34.568       32.074       20.481     1194.971     1028.732      419.472        0.384        0.132       71.025       14.299        0.041      344.804       21.882      863.755
08/03/2014  08:14:00      -38.604     -101.174       -3.276       32.041       26.527       14.300     1026.654      703.671      204.490        0.684        0.097      108.289       16.111        0.022      344.704       21.710      863.752
08/03/2014  08:15:00      -66.218      -80.932        2.170       47.401       36.082       28.176     2246.897     1301.889      793.865        0.764        0.217      104.570       25.821        0.061      344.747       21.787      863.757
08/03/2014  08:16:00      -92.237      -48.044        2.396       68.018       30.947       28.213     4626.391      957.706      795.947        0.860        0.319      103.999       30.346        0.085      344.794       21.864      863.753
08/03/2014  08:17:00      -40.979      -64.557        5.504       30.960       51.204       19.476      958.519     2621.884      379.324        0.492        0.198       76.465       18.659        0.060      344.790       21.859      863.745
08/03/2014  08:18:00      -42.080      -69.222        4.178       27.356       17.983       17.235      748.334      323.374      297.047        0.397        0.068       81.009       15.776        0.038      344.771       21.826      863.749
08/03/2014  08:19:00      -18.964      -60.763       13.927       41.003       40.235       27.507     1681.275     1618.836      756.614        0.415        0.203       63.653       27.012        0.180      344.886       22.021      863.734
08/03/2014  08:20:00     -114.298      -64.594        9.430       61.184       35.900       32.292     3743.484     1288.809     1042.803        1.170        0.304      131.288       34.120        0.068      344.835       21.937      863.721
08/03/2014  08:21:00      -99.913      -81.585       -6.413       39.885       23.159       20.752     1590.791      536.338      430.640        0.962        0.128      128.991       17.277        0.018      344.832       21.931      863.726
08/03/2014  08:22:00      -39.804      -47.676        1.516       37.745       32.707       26.032     1424.674     1069.719      677.681        0.352        0.159       62.107       23.936        0.149      344.940       22.116      863.720
08/03/2014  08:23:00      -68.360      -50.648        1.773       46.031       34.840       30.539     2118.890     1213.844      932.641        0.575        0.213       85.078       26.672        0.098      344.938       22.111      863.720
08/03/2014  08:24:00      -68.901      -62.837       -2.854       36.397       33.458       17.249     1324.731     1119.435      297.522        0.572        0.137       93.251       20.047        0.046      344.944       22.120      863.725
08/03/2014  08:25:00      -56.844      -19.957       -0.757       32.534       29.279       22.320     1058.486      857.233      498.175        0.302        0.121       60.245       17.978        0.089      345.023       22.257      863.719
08/03/2014  08:26:00      -16.870      -61.580       13.417       19.912       40.693       19.358      396.488     1655.950      374.745        0.334        0.121       63.848       13.084        0.042      345.056       22.315      863.731
08/03/2014  08:27:00      -68.745      -50.292        2.952       29.941       35.114       22.229      896.453     1232.970      494.120        0.494        0.131       85.177       15.492        0.033      345.011       22.236      863.740
08/03/2014  08:28:00      -94.886      -40.191        1.792       49.890       30.269       25.573     2488.981      916.196      653.979        0.734        0.203      103.046       29.449        0.082      345.042       22.289      863.752
08/03/2014  08:29:00      -67.640      -59.860        4.107       30.534       24.951       14.781      932.349      622.551      218.492        0.497        0.089       90.324        8.629        0.009      345.010       22.233      863.753
08/03/2014  08:30:00      -28.757      -26.883        6.439       19.378       28.919       12.446      375.508      836.309      154.908        0.148        0.068       39.366       16.138        0.168      345.061       22.323      863.750
08/03/2014  08:31:00      -56.503        0.264       -0.995       30.680       22.587       19.046      941.241      510.154      362.753        0.250        0.091       56.504       17.565        0.097      345.161       22.494      863.758
08/03/2014  08:32:00      -75.821       19.026        1.863       20.099       13.459       12.876      403.985      181.141      165.782        0.343        0.038       78.172       10.988        0.020      345.078       22.352      863.749
08/03/2014  08:33:00      -77.787      -18.528       -5.200       27.679       21.051       13.162      766.148      443.158      173.235        0.390        0.069       79.963        9.705        0.015      345.135       22.449      863.755
08/03/2014  08:34:00      -78.511      -20.460       -3.833       25.972       27.379       17.408      674.570      749.597      303.024        0.416        0.086       81.133       15.432        0.036      345.193       22.547      863.746
08/03/2014  08:35:00      -78.031      -17.005       -2.936       42.823       29.749       17.601     1833.769      884.998      309.783        0.471        0.151       79.862       12.079        0.023      345.222       22.598      863.751
08/03/2014  08:36:00      -77.001      -18.035        0.632       41.161       24.520       18.645     1694.211      601.219      347.653        0.445        0.132       79.085       19.018        0.058      345.270       22.681      863.754
08/03/2014  08:37:00      -50.013      -13.312        0.565       18.522       16.919       12.252      343.053      286.265      150.122        0.173        0.039       51.754        6.841        0.017      345.299       22.731      863.765
08/03/2014  08:38:00      -61.466      -23.578       -1.643       22.058       19.992       15.850      486.538      399.672      251.221        0.274        0.057       65.833       11.479        0.030      345.335       22.793      863.778
08/03/2014  08:39:00      -11.055       -5.187       10.890       14.390       12.012       12.580      207.059      144.280      158.262        0.039        0.025       12.212        7.921        0.421      345.792       23.576      863.782
08/03/2014  08:40:00      -17.049      -28.742        8.403       23.382       15.173       14.708      546.708      230.207      216.329        0.109        0.050       33.418       16.750        0.251      345.558       23.173      863.795
08/03/2014  08:41:00      -20.394      -18.229        5.120       19.581       15.704       17.163      383.407      246.611      294.576        0.085        0.046       27.353       10.611        0.150      345.541       23.142      863.791
08/03/2014  08:42:00      -17.206      -55.375       -9.143       17.078       27.510       14.239      291.645      756.801      202.741        0.235        0.063       57.986        6.189        0.011      345.414       22.926      863.805
08/03/2014  08:43:00       -7.929       -4.186       14.505       13.680        9.839       13.653      187.131       96.804      186.403        0.038        0.024        8.966       10.872        1.470      345.833       23.647      863.808
08/03/2014  08:44:00       -8.510       10.999       31.446       11.307       15.864       14.312      127.853      251.667      204.828        0.088        0.029       13.907        7.101        0.261      346.132       24.159      863.817
08/03/2014  08:45:00      -13.640       12.081       44.996       15.853       20.215       17.723      251.302      408.645      314.091        0.167        0.049       18.221       13.879        0.580      346.060       24.037      863.806
08/03/2014  08:46:00       -7.081        2.574       41.307       15.714       20.495       20.976      246.939      420.062      440.003        0.143        0.055        7.535       16.709        4.918      346.004       23.939      863.803
08/03/2014  08:47:00      -24.306        4.324        6.524       19.411       31.327       20.161      376.782      981.403      406.449        0.121        0.088       24.688       16.618        0.453      345.705       23.427      863.789
08/03/2014  08:48:00      -14.718        9.399       38.798       17.041       19.097       15.006      290.394      364.682      225.168        0.135        0.044       17.463       14.496        0.689      346.039       23.999      863.780
08/03/2014  08:49:00      -27.319       -2.761       20.051       23.918       17.574       19.759      572.072      308.838      390.420        0.121        0.064       27.458        8.480        0.095      345.727       23.464      863.760
08/03/2014  08:50:00      -42.369       20.653        0.403       11.335        8.558       11.129      128.473       73.247      123.848        0.127        0.016       47.135        7.736        0.027      345.535       23.134      863.753
08/03/2014  08:51:00      -45.615       -1.754        1.182       20.880       20.540       12.921      435.991      421.909      166.940        0.155        0.051       45.648       11.340        0.062      345.581       23.214      863.734
08/03/2014  08:52:00      -82.931      -34.728       -1.167       22.255       21.772       14.467      495.281      474.030      209.305        0.463        0.059       89.909       11.756        0.017      345.539       23.140      863.709
08/03/2014  08:53:00      -76.654      -19.954       -0.714       29.505       16.296        9.552      870.540      265.574       91.246        0.375        0.061       79.208       11.844        0.022      345.530       23.128      863.691
08/03/2014  08:54:00      -52.558      -38.783       -2.483       19.241       24.857       15.420      370.208      617.876      237.783        0.275        0.061       65.318       11.964        0.034      345.564       23.184      863.678
08/03/2014  08:55:00      -58.534      -28.042        2.852       15.030       15.459       12.341      225.911      238.995      152.298        0.242        0.031       64.905        8.908        0.019      345.574       23.202      863.659
08/03/2014  08:56:00      -41.277      -11.605        5.166       14.077       20.220       11.593      198.157      408.829      134.390        0.130        0.037       42.877        4.661        0.012      345.591       23.229      863.647
08/03/2014  08:57:00      -50.656        1.066        0.182       18.305       15.137        9.502      335.058      229.139       90.292        0.161        0.033       50.667        7.502        0.022      345.636       23.306      863.637
08/03/2014  08:58:00     -101.509      -17.731       -5.463       29.121       35.187       15.347      848.023     1238.091      235.541        0.648        0.116      103.046       15.396        0.022      345.672       23.368      863.625
08/03/2014  08:59:00      -70.215      -21.456        1.726       22.405       20.344       18.360      501.994      413.862      337.107        0.332        0.063       73.420       10.108        0.019      345.707       23.429      863.622
08/03/2014  09:00:00      -65.846       -6.499       -0.286       21.978       14.177       12.630      483.053      200.984      159.524        0.261        0.042       66.166        7.552        0.013      345.726       23.464      863.607
08/03/2014  09:01:00      -84.555      -36.555       -5.604       63.900       19.576       10.741     4083.232      383.212      115.363        0.655        0.229       92.118        8.473        0.008      345.730       23.469      863.598
08/03/2014  09:02:00     -128.904      -42.641        2.678       44.048       31.524       25.928     1940.254      993.731      672.272        1.102        0.180      135.774       24.974        0.034      345.683       23.386      863.579
08/03/2014  09:03:00     -112.464      -45.178        0.576       48.564       33.758       24.012     2358.487     1139.573      576.560        0.938        0.204      121.199       26.917        0.049      345.721       23.453      863.572
08/03/2014  09:04:00     -120.113      -18.786        2.102       46.915       24.423       19.002     2201.016      596.502      361.061        0.897        0.158      121.573       22.625        0.035      345.685       23.391      863.554
08/03/2014  09:05:00     -119.799      -10.745        0.733       45.945       36.416       24.845     2110.977     1326.155      617.272        0.926        0.203      120.279       24.139        0.040      345.736       23.478      863.548
08/03/2014  09:06:00     -116.481      -23.930        5.597       44.929       34.201       21.389     2018.574     1169.698      457.507        0.891        0.182      118.913       22.010        0.034      345.757       23.516      863.536
08/03/2014  09:07:00      -85.403       11.639       -1.505       24.106       26.266       19.533      581.095      689.916      381.553        0.454        0.083       86.193       17.114        0.039      345.747       23.498      863.533
08/03/2014  09:08:00      -90.321       -7.968       -1.955       33.753       26.602       17.241     1139.253      707.681      297.245        0.518        0.107       90.672       16.497        0.033      345.749       23.501      863.523
08/03/2014  09:09:00      -46.271       -5.420       10.883       31.404       20.190       22.035      986.225      407.644      485.557        0.208        0.094       46.587       18.937        0.165      345.921       23.799      863.524
08/03/2014  09:10:00      -48.443      -34.739        1.794       18.725       31.075       13.551      350.620      965.654      183.639        0.253        0.075       59.611        9.860        0.027      345.830       23.640      863.518
08/03/2014  09:11:00      -54.597      -52.697        5.680       28.500       26.671       17.622      812.241      711.332      310.524        0.381        0.092       75.880       14.864        0.038      345.826       23.634      863.510
08/03/2014  09:12:00      -73.990      -31.011        2.243       42.827       25.843       20.091     1834.168      667.875      403.667        0.467        0.145       80.226       18.820        0.055      345.912       23.783      863.506
08/03/2014  09:13:00      -49.402      -37.104        1.552       28.899       18.588       13.804      835.134      345.498      190.559        0.260        0.069       61.784        9.963        0.026      345.900       23.761      863.492
08/03/2014  09:14:00      -38.489      -47.220       -2.990       28.844       24.751       12.695      831.955      612.631      161.166        0.266        0.080       60.919       11.440        0.035      345.884       23.733      863.494
08/03/2014  09:15:00      -22.404       14.954       11.091       26.438       16.403       21.054      698.944      269.067      443.253        0.113        0.071       26.936       12.755        0.224      346.195       24.268      863.475
08/03/2014  09:16:00      -15.785        8.379       11.002       18.184       14.613       12.751      330.674      213.538      162.580        0.057        0.035       17.871        9.800        0.301      346.150       24.191      863.467
08/03/2014  09:17:00      -45.688       -0.013       -7.195       21.567       22.514       13.408      465.149      506.879      179.786        0.165        0.058       45.688       13.031        0.081      345.911       23.778      863.471
08/03/2014  09:18:00       -4.556       11.441       17.955       25.118       10.726       12.250      630.928      115.044      150.050        0.068        0.045       12.315       11.300        0.842      346.315       24.474      863.459
08/03/2014  09:19:00      -16.776       -1.541       29.391       17.818       25.634       16.016      317.490      657.125      256.510        0.119        0.062       16.847       10.709        0.404      346.382       24.589      863.462
08/03/2014  09:20:00      -18.423      -21.067        9.223       15.910       15.658       17.166      253.113      245.166      294.684        0.083        0.040       27.986        7.473        0.071      346.150       24.190      863.464
08/03/2014  09:21:00        9.617        5.023       34.532       28.533       27.178       25.176      814.120      738.657      633.851        0.175        0.109       10.850       21.675        3.991      346.384       24.594      863.453
08/03/2014  09:22:00       -8.482       30.445       52.020       12.360       27.176       20.945      152.781      738.551      438.699        0.252        0.067       31.605       16.757        0.281      346.406       24.631      863.454
08/03/2014  09:23:00       -8.546       -5.531       25.358       21.161       23.968       18.510      447.796      574.473      342.625        0.106        0.068       10.180        6.385        0.393      346.380       24.585      863.437
08/03/2014  09:24:00       -6.169      -27.002       28.016       19.959       35.344       24.698      398.353     1249.193      610.014        0.190        0.113       27.698       20.552        0.551      346.263       24.384      863.436
08/03/2014  09:25:00       -5.310      -10.373       33.288       19.246       32.292       23.682      370.400     1042.781      560.829        0.161        0.099       11.653       16.776        2.073      346.343       24.523      863.434
08/03/2014  09:26:00       -4.262        3.394       42.419       19.888       33.428       24.513      395.535     1117.422      600.864        0.197        0.106        5.449       18.767       11.864      346.344       24.524      863.430
08/03/2014  09:27:00       -4.808        4.257       46.064       21.903       33.578       16.346      479.739     1127.461      267.184        0.202        0.094        6.422       14.381        5.015      346.459       24.722      863.431
08/03/2014  09:28:00        7.826       13.626       44.841       34.023       26.867       25.653     1157.592      721.818      658.093        0.240        0.127       15.714       27.470        3.056      346.460       24.725      863.413
08/03/2014  09:29:00       -1.885        7.439       38.455       17.788       26.811       20.159      316.403      718.827      406.393        0.149        0.072        7.674       10.990        2.051      346.468       24.738      863.410
08/03/2014  09:30:00       -1.712        1.927       44.203       23.474       41.270       19.962      551.022     1703.181      398.463        0.231        0.133        2.578       23.484       83.000      346.504       24.799      863.400
08/03/2014  09:31:00       10.043      -52.541       31.382       21.190       34.519       26.316      449.016     1191.587      692.528        0.309        0.117       53.492       19.231        0.129      346.387       24.598      863.379
08/03/2014  09:32:00       14.247        6.913       32.315       25.386       24.002       24.306      644.467      576.098      590.762        0.155        0.091       15.835       13.999        0.781      346.576       24.922      863.369
08/03/2014  09:33:00        0.111      -12.674       37.508       12.268       31.460       14.611      150.511      989.759      213.480        0.146        0.068       12.674       16.576        1.711      346.573       24.918      863.350
08/03/2014  09:34:00       -1.822       13.065       22.124       25.845       23.393       20.753      667.972      547.233      430.696        0.115        0.082       13.191       17.611        1.782      346.577       24.925      863.331
08/03/2014  09:35:00       16.978        8.579       29.296       24.443       20.151       21.272      597.481      406.076      452.509        0.134        0.073       19.022       13.172        0.480      346.658       25.063      863.323
08/03/2014  09:36:00       -7.306       29.585       64.915       16.042       30.835       23.370      257.349      950.824      546.160        0.345        0.088       30.473       22.731        0.556      346.728       25.185      863.306
08/03/2014  09:37:00       33.325       11.833       51.287       46.956       61.120       32.117     2204.891     3735.646     1031.477        0.543        0.349       35.363       38.523        1.187      346.542       24.863      863.295
08/03/2014  09:38:00       87.201       -6.976       55.508       71.861       63.399       50.156     5163.987     4019.468     2515.641        1.121        0.585       87.480       53.968        0.381      346.547       24.872      863.280
08/03/2014  09:39:00       36.285        1.168       46.615       51.696       52.160       28.510     2672.521     2720.705      812.807        0.485        0.310       36.304       28.980        0.637      346.593       24.953      863.273
08/03/2014  09:40:00       57.596       64.328       73.938       57.642       45.495       38.069     3322.632     2069.787     1449.215        0.988        0.342       86.345       23.003        0.071      346.453       24.711      863.252
08/03/2014  09:41:00       21.754       20.788       42.685       45.091       42.337       32.379     2033.156     1792.392     1048.407        0.380        0.244       30.089       20.673        0.472      346.587       24.942      863.237
08/03/2014  09:42:00       71.312     -109.377      -12.458       61.261       69.248       38.673     3752.852     4795.299     1495.614        1.362        0.502      130.571       51.615        0.156      346.345       24.526      863.223
08/03/2014  09:43:00       78.621      -28.772       26.410       60.053       89.017       53.083     3606.305     7924.025     2817.845        1.102        0.717       83.721       62.978        0.566      346.371       24.570      863.207
08/03/2014  09:44:00       60.430       49.180       61.991       58.152       48.590       41.912     3381.670     2360.996     1756.592        0.870        0.375       77.913       34.932        0.201      346.415       24.645      863.184
08/03/2014  09:45:00       31.178       40.538       78.390       52.742       63.113       44.298     2781.680     3983.283     1962.271        0.874        0.436       51.141       45.023        0.775      346.516       24.821      863.177
08/03/2014  09:46:00       42.761       -8.577       49.077       50.913       64.887       43.465     2592.162     4210.317     1889.201        0.650        0.435       43.613       41.481        0.905      346.565       24.904      863.175
08/03/2014  09:47:00      128.884      -56.503       23.335       57.314       70.055       43.324     3284.947     4907.659     1876.999        1.521        0.503      140.725       42.070        0.089      346.340       24.516      863.167
08/03/2014  09:48:00       31.639       -7.602       41.065       55.508       76.046       49.552     3081.149     5782.968     2455.445        0.703        0.566       32.539       51.394        2.495      346.434       24.679      863.164
08/03/2014  09:49:00       77.139      -73.851        4.030       56.222       90.606       47.017     3160.859     8209.530     2210.588        1.250        0.679      106.791       61.158        0.328      346.416       24.646      863.167
08/03/2014  09:50:00        6.936       27.625       65.008       36.120       37.308       28.991     1304.690     1391.892      840.450        0.429        0.177       28.483       20.393        0.513      346.583       24.936      863.163
08/03/2014  09:51:00       10.772       35.509       67.917       31.116       41.288       31.261      968.202     1704.707      977.264        0.482        0.183       37.107       28.444        0.588      346.590       24.946      863.145
08/03/2014  09:52:00        8.561       56.919       92.965       39.081       58.667       24.336     1527.338     3441.837      592.239        0.876        0.278       57.559       24.361        0.179      346.550       24.878      863.140
08/03/2014  09:53:00       33.439      -15.766       39.146       52.306       65.317       41.814     2735.872     4266.324     1748.421        0.582        0.438       36.969       50.509        1.867      346.593       24.953      863.140
08/03/2014  09:54:00       46.013      -79.532        2.894       44.980       60.603       38.987     2023.200     3672.675     1519.991        0.783        0.361       91.883       33.958        0.137      346.526       24.836      863.140
08/03/2014  09:55:00       80.778      -61.216       16.171       49.667       85.072       44.660     2466.838     7237.293     1994.522        1.111        0.585      101.354       45.774        0.204      346.492       24.777      863.129
08/03/2014  09:56:00      115.329     -129.149      -26.409       61.052       70.378       46.472     3727.304     4953.123     2159.659        2.076        0.542      173.148       40.694        0.055      346.362       24.552      863.111
08/03/2014  09:57:00       47.433       -1.927       34.073       52.109       47.476       54.459     2715.382     2253.989     2965.816        0.567        0.397       47.472       42.533        0.803      346.553       24.884      863.110
08/03/2014  09:58:00       64.723        0.343       59.886       69.568       93.251       71.880     4839.716     8695.803     5166.731        1.324        0.935       64.724       72.083        1.240      346.464       24.728      863.100
08/03/2014  09:59:00       44.067       72.669       99.018       55.746       76.204       50.689     3107.616     5807.053     2569.390        1.425        0.574       84.987       51.351        0.365      346.487       24.771      863.107
08/03/2014  10:00:00       59.349      -13.703       60.642       58.490       68.038       56.509     3421.035     4629.114     3193.304        0.931        0.562       60.911       46.916        0.593      346.530       24.843      863.104
08/03/2014  10:01:00       93.095      -51.877       45.265       69.687      102.401       70.547     4856.275    10485.916     4976.906        1.686        1.016      106.574       80.433        0.570      346.469       24.737      863.112
08/03/2014  10:02:00       58.210       -5.051       56.886       44.898       56.343       39.456     2015.867     3174.496     1556.778        0.670        0.337       58.428       33.912        0.337      346.657       25.063      863.113
08/03/2014  10:03:00       22.604       17.827       63.503       34.857       30.518       23.567     1215.035      931.349      555.393        0.378        0.135       28.788       10.194        0.125      346.795       25.299      863.119
08/03/2014  10:04:00       13.726       52.480       70.818       37.014       45.764       37.636     1370.021     2094.313     1416.442        0.642        0.244       54.245       31.345        0.334      346.738       25.202      863.127
08/03/2014  10:05:00       55.146       44.713       42.695       59.652       62.270       38.941     3558.342     3877.539     1516.374        0.791        0.448       70.995       32.360        0.208      346.567       24.907      863.124
08/03/2014  10:06:00       73.211      -45.394       22.547       49.047       57.394       38.632     2405.564     3294.063     1492.395        0.756        0.360       86.142       35.196        0.167      346.671       25.086      863.124
08/03/2014  10:07:00       51.084      -46.970       19.846       42.643       63.833       47.217     1818.405     4074.591     2229.443        0.666        0.406       69.395       42.609        0.377      346.632       25.019      863.121
08/03/2014  10:08:00       85.936       29.163       82.136       79.864       72.542       54.627     6378.279     5262.414     2984.147        1.480        0.731       90.750       56.992        0.394      346.562       24.898      863.120
08/03/2014  10:09:00       64.196      -13.722       44.170       78.371       66.905       44.508     6141.943     4476.216     1980.922        0.943        0.630       65.646       44.769        0.465      346.551       24.879      863.121
08/03/2014  10:10:00       11.620       15.679       31.867       37.837       45.569       37.485     1431.651     2076.511     1405.143        0.315        0.246       19.515       34.323        3.093      346.697       25.132      863.119
08/03/2014  10:11:00       26.975       -5.937       46.074       29.686       68.471       30.001      881.242     4688.261      900.065        0.468        0.323       27.621       32.188        1.358      346.739       25.202      863.125
08/03/2014  10:12:00       63.502      -19.504       25.869       71.428       77.611       52.733     5101.976     6023.462     2780.780        0.949        0.695       66.430       60.223        0.822      346.662       25.071      863.116
08/03/2014  10:13:00       47.860      -11.174       37.137       48.257       66.776       52.244     2328.750     4458.982     2729.385        0.665        0.476       49.147       50.559        1.058      346.664       25.074      863.127
08/03/2014  10:14:00       53.734        3.675       46.935       65.083       85.582       56.293     4235.817     7324.347     3168.910        0.991        0.736       53.860       64.765        1.446      346.601       24.967      863.122
08/03/2014  10:15:00       67.428      -18.942       39.994       51.293       62.622       42.578     2631.015     3921.525     1812.898        0.743        0.418       70.038       42.878        0.375      346.678       25.099      863.123
08/03/2014  10:16:00        4.706       -3.699       13.622       36.569       35.002       30.302     1337.269     1225.107      918.198        0.185        0.174        5.986       13.305        4.941      346.717       25.168      863.125
08/03/2014  10:17:00       11.693        8.816       11.732       21.164       38.145       21.280      447.907     1455.020      452.833        0.135        0.118       14.644       11.032        0.568      346.830       25.360      863.122
08/03/2014  10:18:00       -2.911      -33.058       30.038       23.702       47.079       23.526      561.806     2216.443      553.489        0.267        0.167       33.186       22.670        0.467      346.926       25.526      863.108
08/03/2014  10:19:00       35.024       50.898       50.254       45.770       34.651       23.163     2094.888     1200.687      536.510        0.509        0.192       61.784        6.949        0.013      346.762       25.243      863.101
08/03/2014  10:20:00       42.176       -1.472        0.249       37.429       35.017       16.260     1400.910     1226.169      264.382        0.234        0.145       42.201       15.980        0.143      346.475       24.750      863.089
08/03/2014  10:21:00       -1.054      -42.666       11.582       31.273       36.057       23.850      978.023     1300.086      568.814        0.240        0.142       42.679       18.382        0.186      346.777       25.267      863.066
08/03/2014  10:22:00       10.107        9.365        5.272       41.714       17.698       17.510     1740.063      313.216      306.609        0.129        0.118       13.779       17.735        1.657      346.791       25.293      863.050
08/03/2014  10:23:00       60.360       44.894        7.885       42.270       25.555       27.754     1786.732      653.051      770.280        0.446        0.161       75.225       17.175        0.052      346.512       24.814      863.032
08/03/2014  10:24:00       82.173       51.094       -1.064       24.558       21.652       20.689      603.097      468.805      428.039        0.543        0.075       96.763       10.136        0.011      346.363       24.558      863.032
08/03/2014  10:25:00       16.221       39.193        5.360       33.472       29.409       19.226     1120.402      864.886      369.635        0.209        0.118       42.417       13.872        0.107      346.585       24.938      863.028
08/03/2014  10:26:00       39.058       48.459        2.380       39.395       36.800       38.253     1551.969     1354.269     1463.276        0.412        0.218       62.240       29.055        0.218      346.586       24.940      863.035
08/03/2014  10:27:00       11.864       34.423       -0.966       18.370       32.865       16.282      337.472     1080.110      265.114        0.150        0.084       36.411       18.528        0.259      346.555       24.885      863.043
08/03/2014  10:28:00       39.619       23.798       15.605       35.427       26.055       18.141     1255.101      678.867      329.081        0.232        0.113       46.217       14.043        0.092      346.699       25.135      863.060
08/03/2014  10:29:00        9.285       17.051       12.086       16.280       18.366       17.873      265.045      337.302      319.451        0.072        0.046       19.415       12.300        0.401      346.836       25.371      863.065
08/03/2014  10:30:00       24.113       10.511        5.777       17.247       15.209       13.534      297.463      231.313      183.166        0.072        0.036       26.305        7.373        0.079      346.720       25.171      863.061
08/03/2014  10:31:00        6.219        7.525       10.332       17.020       14.396       12.385      289.673      207.234      153.388        0.043        0.033        9.762        8.813        0.815      347.082       25.793      863.062
08/03/2014  10:32:00        8.297       23.245       10.507       22.533       18.844       19.632      507.736      355.113      385.435        0.098        0.062       24.681       13.475        0.298      347.000       25.653      863.048
08/03/2014  10:33:00       21.707       27.775        8.942       21.409       14.796       15.308      458.326      218.934      234.325        0.112        0.046       35.251       10.563        0.090      346.759       25.237      863.031
08/03/2014  10:34:00       18.864       22.676       15.690       28.321       21.126       16.702      802.074      446.324      278.965        0.132        0.076       29.497        8.770        0.088      346.803       25.314      863.019
08/03/2014  10:35:00       11.652       43.931        6.368       18.774       22.858       20.685      352.460      522.489      427.888        0.170        0.065       45.450       14.902        0.108      346.723       25.176      863.011
08/03/2014  10:36:00       11.888       36.200       -6.935       21.432       16.570       11.925      459.310      274.550      142.211        0.119        0.044       38.102        7.270        0.036      346.636       25.027      863.005
08/03/2014  10:37:00       -1.862        7.071       22.086       15.305       24.275       19.244      234.236      589.281      370.345        0.087        0.060        7.313       14.026        3.679      347.199       25.995      862.987
08/03/2014  10:38:00      -19.543      -40.756       27.179       22.193       40.765       18.063      492.544     1661.787      326.284        0.263        0.124       45.199       18.383        0.165      346.852       25.398      862.981
08/03/2014  10:39:00      -12.058       16.967       41.523       14.530       19.583       13.053      211.112      383.504      170.375        0.146        0.038       20.816       11.820        0.322      347.188       25.976      862.988
08/03/2014  10:40:00      -13.583       14.896       31.021       16.854       18.666       14.682      284.069      348.410      215.571        0.111        0.042       20.160        7.394        0.135      347.041       25.724      863.002
08/03/2014  10:41:00      -17.251       -6.456       23.599       13.064       19.976       11.148      170.662      399.030      124.275        0.079        0.035       18.419        7.698        0.175      347.159       25.927      863.004
08/03/2014  10:42:00       -9.179       20.851       50.020       11.264       20.670       17.001      126.869      427.244      289.027        0.193        0.042       22.782       15.759        0.478      347.164       25.935      863.009
08/03/2014  10:43:00       11.711       44.374       52.766       15.802       28.062       11.530      249.691      787.462      132.933        0.303        0.059       45.893       14.411        0.099      346.876       25.438      863.022
08/03/2014  10:44:00        6.776       27.984       41.716       18.588       23.907       10.187      345.501      571.526      103.774        0.179        0.051       28.793        5.895        0.042      347.005       25.661      863.019
08/03/2014  10:45:00       -8.090       13.041       41.640        9.079       18.738       11.712       82.435      351.129      137.168        0.127        0.029       15.347       10.783        0.494      347.375       26.298      863.014
08/03/2014  10:46:00       -9.655       21.043       40.370       13.292       17.411       11.846      176.673      303.153      140.324        0.139        0.031       23.152       11.577        0.250      347.261       26.102      863.010
08/03/2014  10:47:00       -7.708        4.489       22.964       13.742       14.791        8.312      188.840      218.777       69.097        0.054        0.024        8.920        2.810        0.099      347.425       26.386      863.011
08/03/2014  10:48:00       -9.152       16.945        9.805       15.652       19.670       15.685      244.995      386.897      246.015        0.067        0.044       19.258       11.261        0.342      347.264       26.109      863.004
08/03/2014  10:49:00      -10.680       23.404        5.347       15.054       20.265       12.890      226.622      410.690      166.162        0.075        0.040       25.726        4.347        0.029      347.184       25.971      863.001
08/03/2014  10:50:00       23.637       30.997       56.679       46.517       47.584       23.669     2163.822     2264.251      560.201        0.486        0.249       38.981       22.395        0.330      347.271       26.119      863.003
08/03/2014  10:51:00       16.485       30.538       36.255       30.638       28.086       21.606      938.657      788.799      466.808        0.236        0.110       34.704       18.333        0.279      347.341       26.240      863.005
08/03/2014  10:52:00       40.155       71.160        1.184       40.798       33.938       29.864     1664.473     1151.758      891.845        0.519        0.185       81.708       20.122        0.061      346.835       25.368      863.007
08/03/2014  10:53:00       70.925       73.956        6.770       39.654       35.395       37.801     1572.408     1252.832     1428.890        0.740        0.213      102.469       30.493        0.089      346.793       25.296      863.017
08/03/2014  10:54:00       66.084       60.271        8.039       34.239       23.050       24.231     1172.332      531.312      587.139        0.518        0.115       89.441       17.699        0.039      346.749       25.220      863.012
08/03/2014  10:55:00       41.088       58.262       -5.087       42.194       27.145       29.645     1780.356      736.825      878.809        0.425        0.170       71.293       18.359        0.066      346.863       25.416      863.010
08/03/2014  10:56:00        6.929       37.049        2.430       20.211       24.153       17.939      408.471      583.377      321.791        0.137        0.066       37.691       14.123        0.140      346.980       25.619      863.007
08/03/2014  10:57:00       60.630       25.827       11.063       33.521       28.799       20.888     1123.685      829.360      436.311        0.343        0.119       65.902       16.234        0.061      347.017       25.683      862.998
08/03/2014  10:58:00      104.471       68.871        4.332       33.816       17.221       24.616     1143.497      296.573      605.925        0.886        0.102      125.129        8.055        0.004      346.770       25.256      863.001
08/03/2014  10:59:00       71.983       52.426        3.813       31.027       26.412       19.271      962.698      697.576      371.362        0.499        0.102       89.051       15.495        0.030      346.882       25.449      863.010
08/03/2014  11:00:00       14.438       -5.646       -2.699       20.760       25.648       12.439      430.962      657.829      154.732        0.075        0.062       15.503        9.235        0.355      346.914       25.504      863.014
08/03/2014  11:01:00       12.874       -7.454        6.202       46.304       41.282       19.385     2144.029     1704.181      375.787        0.224        0.211       14.876       14.952        1.010      347.093       25.812      863.019
08/03/2014  11:02:00       57.779       33.580       -2.454       27.902       17.775       20.136      778.545      315.950      405.477        0.299        0.075       66.828       11.373        0.029      346.814       25.334      863.015
08/03/2014  11:03:00       10.844       19.472        5.396       13.831       15.193       14.839      191.288      230.818      220.191        0.058        0.032       22.288        9.787        0.193      347.086       25.800      863.011
08/03/2014  11:04:00       57.783       41.074       21.103       43.506       31.779       30.147     1892.815     1009.905      908.815        0.464        0.191       70.894       29.863        0.177      346.998       25.650      863.013
08/03/2014  11:05:00       77.657       33.656       15.283       62.832       33.418       31.842     3947.809     1116.755     1013.936        0.674        0.304       84.636       27.261        0.104      347.062       25.758      862.999
08/03/2014  11:06:00       75.976       24.937       12.806       43.915       27.402       35.530     1928.502      750.895     1262.373        0.525        0.197       79.964       20.253        0.064      347.024       25.693      863.016
08/03/2014  11:07:00       92.498       71.403       15.745       55.172       23.342       32.198     3043.929      544.853     1036.699        0.926        0.231      116.852       28.932        0.061      346.868       25.427      863.006
08/03/2014  11:08:00       27.011       68.378        4.796       39.712       42.513       28.664     1577.011     1807.350      821.604        0.482        0.210       73.519       27.146        0.136      347.063       25.759      863.001
08/03/2014  11:09:00       60.030       24.238       19.828       38.927       33.530       33.274     1515.335     1124.262     1107.163        0.416        0.187       64.739       16.271        0.063      347.273       26.123      863.005
08/03/2014  11:10:00       84.300       65.689       14.531       38.474       30.302       31.829     1480.218      918.201     1013.079        0.752        0.171      106.872        6.589        0.004      347.075       25.781      863.000
08/03/2014  11:11:00       13.594       22.660       -8.155       17.858       19.551       14.730      318.901      382.229      216.984        0.084        0.046       26.425       16.645        0.397      347.108       25.839      863.007
08/03/2014  11:12:00       -6.148        9.669       30.895       22.348       22.257       16.811      499.449      495.375      282.611        0.118        0.064       11.458       13.222        1.332      347.566       26.628      863.002
08/03/2014  11:13:00       41.474       33.687       16.082       34.936       25.503       24.025     1220.535      650.383      577.211        0.278        0.122       53.431       14.456        0.073      347.482       26.483      863.000
08/03/2014  11:14:00       12.597       15.912       25.675       23.593       32.399       12.448      556.649     1049.669      154.957        0.142        0.088       20.294        6.698        0.109      347.917       27.234      862.992
08/03/2014  11:15:00       10.921       -6.659       15.676       12.909       15.266       15.190      166.641      233.047      230.740        0.052        0.032       12.791       10.498        0.674      347.948       27.287      862.988
08/03/2014  11:16:00        6.068       -0.660        6.081       11.934       19.068       16.800      142.430      363.594      282.228        0.043        0.039        6.104        7.804        1.634      347.941       27.275      862.988
08/03/2014  11:17:00       78.513       32.338       20.282       64.230       32.542       24.665     4125.496     1058.959      608.346        0.671        0.290       84.913       24.433        0.083      347.500       26.514      862.977
08/03/2014  11:18:00       45.287       28.147       15.745       51.529       33.683       29.195     2655.287     1134.520      852.337        0.387        0.232       53.322       28.207        0.280      347.363       26.279      862.977
08/03/2014  11:19:00       -3.950       23.677        3.766       18.251       22.834       16.238      333.090      521.396      263.671        0.085        0.056       24.004        5.779        0.058      347.603       26.693      862.961
08/03/2014  11:20:00       -0.161       35.928        1.822       15.558       20.979       15.052      242.059      440.106      226.571        0.110        0.045       35.928       11.374        0.100      347.550       26.601      862.963
08/03/2014  11:21:00       27.373       25.013       13.178       17.942       18.433       18.754      321.923      339.787      351.713        0.128        0.051       37.080        8.139        0.048      347.598       26.684      862.956
08/03/2014  11:22:00        4.835       19.135       41.373       22.448       23.378       22.675      503.914      546.523      514.178        0.183        0.078       19.737       15.677        0.631      347.844       27.108      862.961
08/03/2014  11:23:00      -64.225      -12.535       12.208       35.568       23.506       20.934     1265.056      552.533      438.242        0.334        0.113       65.437       20.596        0.099      347.560       26.619      862.959
08/03/2014  11:24:00      -19.656      -35.851       14.491       38.806       41.333       18.083     1505.916     1708.435      327.007        0.271        0.177       40.886       17.196        0.177      347.727       26.906      862.962
08/03/2014  11:25:00        9.032       22.105       68.990       45.257       86.533       49.771     2048.229     7488.012     2477.174        0.867        0.601       23.879       57.750        5.849      347.814       27.055      862.953
08/03/2014  11:26:00       38.213       93.755      106.773       62.946       70.343       41.999     3962.257     4948.126     1763.886        1.616        0.534      101.244       47.725        0.222      347.612       26.706      862.959
08/03/2014  11:27:00       61.189        6.272       40.691       42.687      107.560       49.222     1822.192    11569.073     2422.829        1.062        0.791       61.510       62.749        1.041      347.533       26.570      862.959
08/03/2014  11:28:00       72.898      -79.130       -4.709       38.741       31.548       22.855     1500.849      995.259      522.329        0.731        0.151      107.590       18.050        0.028      347.443       26.415      862.967
08/03/2014  11:29:00       25.405      -24.329        9.893       32.614       39.023       32.185     1063.703     1522.760     1035.886        0.248        0.181       35.175       34.314        0.952      347.830       27.084      862.950
08/03/2014  11:30:00       64.627       57.291       43.173       39.634       27.748       28.325     1570.826      769.972      802.298        0.623        0.157       86.365       19.170        0.049      347.678       26.822      862.947
08/03/2014  11:31:00       26.014       11.641        9.449       34.793       55.941       27.417     1210.562     3129.401      751.675        0.300        0.255       28.499       21.419        0.565      347.859       27.132      862.936
08/03/2014  11:32:00       56.255      -83.500       -4.776       51.176       85.915       47.755     2618.983     7381.324     2280.586        1.122        0.614      100.682       54.384        0.292      347.813       27.055      862.926
08/03/2014  11:33:00       30.458      -75.327       -2.948       48.275       61.988       41.813     2330.448     3842.531     1748.329        0.726        0.396       81.252       37.778        0.216      347.695       26.851      862.923
08/03/2014  11:34:00       81.692      -68.095      -14.224       56.314       58.744       38.070     3171.245     3450.839     1449.342        0.979        0.404      106.351       41.349        0.151      347.708       26.872      862.907
08/03/2014  11:35:00       16.750       21.411       48.914       39.211       38.127       37.788     1537.472     1453.639     1427.896        0.377        0.221       27.185       35.049        1.662      348.136       27.611      862.881
08/03/2014  11:36:00        2.918       25.328       52.827       23.035       41.170       21.262      530.630     1694.965      452.069        0.306        0.134       25.495       24.837        0.949      348.035       27.439      862.861
08/03/2014  11:37:00       -2.223        4.669       21.261       18.577       15.027       15.247      345.102      225.796      232.461        0.064        0.040        5.171       13.881        7.206      348.578       28.376      862.842
08/03/2014  11:38:00      -17.464        7.648       19.907       27.357       12.495       11.778      748.411      156.122      138.723        0.090        0.052       19.065       14.791        0.602      348.844       28.836      862.818
08/03/2014  11:39:00       -6.356        0.669       28.463       33.317       26.140       18.922     1110.036      683.302      358.060        0.150        0.108        6.391       20.916       10.712      348.652       28.505      862.790
08/03/2014  11:40:00      -33.156      -17.142        5.136       31.357       33.813       18.998      983.267     1143.314      360.934        0.195        0.124       37.325       19.273        0.267      348.259       27.825      862.765
08/03/2014  11:41:00      -36.722      -58.744       -0.401       34.728       40.815       27.039     1206.053     1665.879      731.096        0.420        0.180       69.277       28.530        0.170      348.048       27.461      862.740
08/03/2014  11:42:00      -37.618      -31.327        9.110       41.953       41.339       30.957     1760.080     1708.913      958.355        0.345        0.221       48.954       33.347        0.464      348.278       27.858      862.713
08/03/2014  11:43:00      -50.518      -60.311        4.259       34.476       32.542       21.478     1188.625     1058.962      461.311        0.446        0.135       78.673       17.861        0.052      347.890       27.186      862.693
08/03/2014  11:44:00      -28.957      -56.210        8.665       45.551       38.270       19.595     2074.925     1464.575      383.961        0.400        0.196       63.231       23.829        0.142      347.942       27.277      862.692
08/03/2014  11:45:00      -31.614      -16.913        5.815       41.377       23.592       21.545     1712.029      556.605      464.175        0.203        0.137       35.854       23.521        0.430      348.131       27.604      862.672
08/03/2014  11:46:00      -46.790      -11.985       -2.489       22.471       20.803       16.165      504.942      432.774      261.308        0.177        0.060       48.300       14.286        0.087      347.944       27.281      862.670
08/03/2014  11:47:00      -64.954      -13.757       -1.319       30.073       28.445       18.777      904.388      809.128      352.591        0.324        0.103       66.395       16.586        0.062      348.009       27.394      862.651
08/03/2014  11:48:00      -38.742       10.322        4.261       38.859       28.616       21.503     1510.058      818.857      462.395        0.221        0.140       40.093       26.166        0.426      348.267       27.839      862.647
08/03/2014  11:49:00      -62.297       13.953       21.158       53.985       27.825       32.976     2914.392      774.223     1087.414        0.465        0.239       63.841       27.640        0.187      348.216       27.751      862.619
08/03/2014  11:50:00      -82.763       37.284       13.961       19.974       31.033       26.909      398.969      963.031      724.075        0.526        0.104       90.773       23.679        0.068      347.801       27.033      862.610
08/03/2014  11:51:00       -0.159        9.811       32.717       30.130       18.621       15.497      907.818      346.747      240.144        0.133        0.075        9.812       10.630        1.174      348.617       28.442      862.594
08/03/2014  11:52:00      -14.574       -4.524        2.728       24.498       18.324       14.358      600.154      335.781      206.155        0.069        0.057       15.260       10.392        0.464      348.452       28.158      862.586
08/03/2014  11:53:00        5.103       16.587       42.245       20.006       15.302       13.750      400.247      234.144      189.068        0.145        0.041       17.355        7.099        0.167      348.901       28.936      862.582
08/03/2014  11:54:00      -10.064        8.895       42.352       15.023       18.078       19.352      225.694      326.803      374.490        0.145        0.046       13.432       14.398        1.149      348.667       28.532      862.572
08/03/2014  11:55:00      -38.142        1.390       14.409       17.005       17.450       14.428      289.185      304.516      208.158        0.123        0.040       38.167       12.519        0.108      348.215       27.748      862.577
08/03/2014  11:56:00        4.047       20.234       30.707       12.286       18.903       18.964      150.953      357.334      359.621        0.112        0.043       20.635        9.432        0.209      348.551       28.330      862.572
08/03/2014  11:57:00       -3.192       18.230       52.101       12.539       23.401       10.123      157.216      547.599      102.469        0.193        0.040       18.508       11.119        0.361      348.748       28.669      862.569
08/03/2014  11:58:00      -12.523       -8.178       16.067       18.386       19.887       18.050      338.045      395.484      325.806        0.077        0.053       14.957       17.317        1.340      348.704       28.595      862.560
08/03/2014  11:59:00      -14.513      -16.118       14.594       15.884       18.654       14.563      252.292      347.965      212.067        0.075        0.041       21.689       13.514        0.388      348.978       29.069      862.552
08/03/2014  12:00:00       -6.308       23.875       39.071       10.250       18.568       12.664      105.072      344.788      160.378        0.137        0.031       24.694       12.911        0.273      349.054       29.201      862.541
08/03/2014  12:01:00       14.681       27.465       13.563       26.505       19.801       17.130      702.512      392.061      293.435        0.127        0.069       31.142       17.892        0.330      348.155       27.643      862.538
08/03/2014  12:02:00      -20.892      -28.800        2.222       29.027       21.629       14.138      842.545      467.801      199.882        0.139        0.076       35.580        8.690        0.060      348.437       28.133      862.527
08/03/2014  12:03:00      -60.427      -36.810        6.577       40.114       34.489       23.026     1609.132     1189.463      530.203        0.419        0.166       70.756       23.320        0.109      348.384       28.040      862.515
08/03/2014  12:04:00      -43.851      -42.053       -3.968       42.606       23.916       20.864     1815.248      571.992      435.289        0.326        0.141       60.757        7.019        0.013      348.328       27.945      862.503
08/03/2014  12:05:00      -47.625      -55.962        3.873       51.228       40.179       28.566     2624.358     1614.359      816.001        0.523        0.253       73.484       24.769        0.114      348.354       27.987      862.489
08/03/2014  12:06:00      -81.542      -61.693        5.862       30.712       39.145       26.400      943.206     1532.336      696.970        0.683        0.159      102.250       22.655        0.049      348.152       27.640      862.489
08/03/2014  12:07:00      -75.443      -79.203      -11.198       24.053       15.258       14.472      578.537      232.813      209.444        0.656        0.051      109.384        9.636        0.008      348.018       27.409      862.486
08/03/2014  12:08:00      -26.453      -64.596       -0.848       41.736       32.508       21.218     1741.879     1056.756      450.221        0.406        0.162       69.802       20.837        0.089      348.219       27.756      862.476
08/03/2014  12:09:00      -80.347      -61.004       -9.856       23.527       25.486       15.572      553.503      649.549      242.494        0.586        0.072      100.881       15.323        0.023      348.128       27.598      862.474
08/03/2014  12:10:00      -57.228      -35.562      -12.967       17.994       20.739       12.845      323.783      430.122      164.985        0.281        0.046       67.377        5.311        0.006      348.124       27.593      862.467
08/03/2014  12:11:00      -38.913      -21.266       -9.061       21.463       13.573       15.752      460.660      184.240      248.125        0.147        0.045       44.344       11.019        0.062      348.315       27.922      862.464
08/03/2014  12:12:00      -25.625      -18.409       -6.721       31.588       15.455       16.025      997.817      238.857      256.793        0.127        0.075       31.552       14.563        0.213      348.295       27.887      862.456
08/03/2014  12:13:00      -21.532      -33.199       11.338       48.810       31.621       21.639     2382.460      999.908      468.242        0.277        0.193       39.570       20.917        0.279      348.563       28.350      862.438
08/03/2014  12:14:00      -91.516      -51.790       -5.015       32.690       39.739       18.330     1068.641     1579.174      335.989        0.703        0.149      105.154       13.371        0.016      348.372       28.020      862.430
08/03/2014  12:15:00      -77.040      -34.139       13.720       67.732       39.878       27.585     4587.642     1590.252      760.917        0.711        0.347       84.265       25.993        0.095      348.676       28.545      862.418
08/03/2014  12:16:00     -103.593      -24.507        0.814       39.540       34.353       21.072     1563.407     1180.115      444.033        0.726        0.159      106.452       15.148        0.020      348.379       28.033      862.416
08/03/2014  12:17:00     -109.049      -57.741       -9.935       49.463       34.599       26.783     2446.570     1197.064      717.314        0.984        0.218      123.392       25.467        0.043      348.315       27.922      862.422
08/03/2014  12:18:00     -123.325      -34.828       -8.321       28.777       22.795       18.738      828.099      519.622      351.104        0.909        0.085      128.149       10.701        0.007      348.171       27.672      862.414
08/03/2014  12:19:00      -69.220       10.056       -0.665       25.256       17.161       14.601      637.861      294.483      213.181        0.302        0.057       69.946        9.672        0.019      348.416       28.096      862.411
08/03/2014  12:20:00     -100.529      -31.314       -9.252       23.340       24.687       22.668      544.746      609.426      513.852        0.642        0.083      105.293       16.431        0.024      348.487       28.219      862.409
08/03/2014  12:21:00     -110.234      -49.181       -4.136       31.778       36.940       21.775     1009.813     1364.590      474.167        0.872        0.142      120.708       15.127        0.016      348.430       28.121      862.398
08/03/2014  12:22:00      -91.689      -40.141       -9.687       28.359       35.405       19.550      804.223     1253.549      382.213        0.628        0.122      100.091       19.429        0.038      348.393       28.057      862.402
08/03/2014  12:23:00      -82.769      -44.795       -6.445       47.099       32.201       25.375     2218.349     1036.908      643.891        0.640        0.195       94.113       25.239        0.072      348.491       28.226      862.397
08/03/2014  12:24:00      -85.297      -66.826       -0.515       54.066       45.839       30.658     2923.139     2101.209      939.906        0.885        0.298      108.358       28.409        0.069      348.794       28.749      862.384
08/03/2014  12:25:00      -40.367      -44.086       -2.969       48.913       47.693       32.216     2392.458     2274.670     1037.843        0.464        0.285       59.775       28.781        0.232      348.856       28.858      862.378
08/03/2014  12:26:00      -23.042       -9.747       18.836       45.681       34.253       28.146     2086.708     1173.300      792.225        0.252        0.203       25.018       28.329        1.282      349.305       29.635      862.369
08/03/2014  12:27:00      -72.654        7.373       -1.689       39.213       21.417       18.366     1537.654      458.682      337.325        0.383        0.117       73.027       12.184        0.028      348.597       28.408      862.366
08/03/2014  12:28:00      -69.520       13.140       12.449       41.388       30.085       26.713     1712.940      905.127      713.560        0.425        0.167       70.751       28.286        0.160      348.838       28.827      862.362
08/03/2014  12:29:00        6.463       68.385        3.691       40.119       46.322       33.084     1609.512     2145.686     1094.539        0.479        0.242       68.690       31.485        0.210      349.112       29.302      862.357
08/03/2014  12:30:00      -13.936       90.125        2.886       25.822       37.480       30.161      666.759     1404.746      909.716        0.565        0.149       91.196       25.142        0.076      349.195       29.446      862.343
08/03/2014  12:31:00       17.819       17.398       20.737       24.619       30.093       26.377      606.075      905.617      695.737        0.163        0.110       24.904       17.080        0.470      349.457       29.899      862.344
08/03/2014  12:32:00       18.873      -65.158       10.521       26.935       59.830       29.327      725.517     3579.583      860.079        0.494        0.258       67.836       19.168        0.080      348.942       29.005      862.334
08/03/2014  12:33:00       14.633       15.320       31.574       19.886       27.233       20.096      395.471      741.624      403.835        0.149        0.077       21.185       10.044        0.225      349.430       29.852      862.316
08/03/2014  12:34:00       14.096       10.520       28.913       22.824       20.081       23.411      520.947      403.255      548.086        0.131        0.074       17.589       17.004        0.935      349.516       30.002      862.311
08/03/2014  12:35:00       27.577       31.034       22.076       22.793       34.466       26.596      519.540     1187.910      707.325        0.231        0.121       41.517        8.938        0.046      349.140       29.351      862.303
08/03/2014  12:36:00       37.211        8.321       20.517       31.667       28.191       28.909     1002.798      794.746      835.716        0.225        0.132       38.131       12.469        0.107      349.088       29.258      862.293
08/03/2014  12:37:00       14.710        7.215       44.831       39.059       57.769       37.319     1525.597     3337.225     1392.714        0.427        0.313       16.384       43.658        7.100      349.357       29.726      862.278
08/03/2014  12:38:00       25.201      -68.137       18.624       45.094       75.669       35.340     2033.454     5725.743     1248.892        0.731        0.450       72.648       43.404        0.357      349.280       29.592      862.265
08/03/2014  12:39:00       59.878     -117.510      -22.641       40.596       57.149       30.350     1648.029     3265.996      921.121        1.187        0.292      131.886       22.757        0.030      348.990       29.090      862.259
08/03/2014  12:40:00       18.411      -67.087       28.116       47.864       75.233       53.764     2290.969     5659.944     2890.554        0.823        0.542       69.568       51.890        0.556      349.267       29.569      862.249
08/03/2014  12:41:00        3.934       46.956       36.023       25.669       27.714       45.117      658.893      768.086     2035.544        0.349        0.173       47.120       28.139        0.357      349.057       29.205      862.243
08/03/2014  12:42:00       48.374       48.728        5.442       45.089       27.466       33.932     2033.037      754.372     1151.363        0.434        0.197       68.662       27.894        0.165      348.906       28.945      862.229
08/03/2014  12:43:00       24.606       76.564      -12.234       27.827       43.709       31.982      774.324     1910.441     1022.863        0.516        0.185       80.421       28.395        0.125      348.733       28.645      862.225
08/03/2014  12:44:00       18.727       16.009      -17.879       23.519       17.403       17.657      553.167      302.871      311.765        0.105        0.058       24.637       12.654        0.264      348.826       28.806      862.212
08/03/2014  12:45:00       68.657      -74.959       18.002       55.124       72.187       32.245     3038.628     5210.915     1039.753        0.997        0.464      101.650       22.613        0.049      348.840       28.830      862.196
08/03/2014  12:46:00       22.419      -23.422       40.443       55.219       62.851       51.908     3049.084     3950.274     2694.487        0.619        0.485       32.423       48.051        2.196      349.261       29.560      862.176
08/03/2014  12:47:00      -16.205        9.874       15.818       37.959       59.658       32.355     1440.910     3559.029     1046.862        0.333        0.302       18.977       33.248        3.070      349.119       29.314      862.166
08/03/2014  12:48:00       64.821     -163.793      -21.754       66.479       54.090       37.958     4419.455     2925.765     1440.806        2.014        0.439      176.153       28.296        0.026      348.932       28.988      862.152
08/03/2014  12:49:00       16.169     -118.081      -27.010       79.092      144.550       35.056     6255.553    20894.755     1228.923        2.165        1.419      119.183       40.366        0.115      348.550       28.326      862.152
08/03/2014  12:50:00       48.674      -37.805       12.074       37.776      118.923       27.861     1427.036    14142.648      776.257        1.014        0.817       61.631       19.659        0.102      348.920       28.968      862.120
08/03/2014  12:51:00       42.443      -87.476       -3.222       43.045       71.289       39.163     1852.838     5082.140     1533.755        0.896        0.423       97.228       42.301        0.189      349.086       29.256      862.116
08/03/2014  12:52:00       81.375       80.302       28.255       61.536       46.910       54.082     3786.649     2200.548     2924.869        1.139        0.446      114.326       17.509        0.023      348.972       29.058      862.110
08/03/2014  12:53:00       69.824       65.869       -0.659       50.365       43.966       33.778     2536.609     1933.045     1140.983        0.741        0.281       95.991       20.711        0.047      348.990       29.089      862.110
08/03/2014  12:54:00       32.637       64.167       41.869       58.006       57.961       36.889     3364.691     3359.435     1360.792        0.751        0.404       71.990       34.377        0.228      349.487       29.951      862.091
08/03/2014  12:55:00        3.339       24.123        0.897       37.215       31.289       36.043     1384.989      978.990     1299.103        0.213        0.183       24.353       17.208        0.499      349.057       29.204      862.084
08/03/2014  12:56:00       26.470       20.631        4.253       32.870       22.569       28.046     1080.444      509.358      786.557        0.176        0.119       33.561       18.859        0.316      349.136       29.344      862.074
08/03/2014  12:57:00       41.679       55.295        1.143       48.328       53.626       35.154     2335.633     2875.738     1235.783        0.562        0.322       69.243       28.088        0.165      349.192       29.440      862.049
08/03/2014  12:58:00       45.497       32.218       12.574       48.847       36.377       37.773     2386.071     1323.293     1426.835        0.420        0.257       55.749       23.408        0.176      349.569       30.092      862.042
08/03/2014  12:59:00       53.560       80.256       -0.473       39.401       60.577       32.159     1552.439     3669.553     1034.204        0.778        0.313       96.487       32.625        0.114      349.073       29.234      862.034
08/03/2014  13:00:00       83.332      100.965        3.406       45.523       78.700       51.813     2072.342     6193.694     2684.575        1.405        0.548      130.913       46.775        0.128      349.104       29.288      862.006
08/03/2014  13:01:00       48.287       27.479       41.063       47.632       48.173       44.554     2268.825     2320.668     1985.034        0.567        0.329       55.558       28.432        0.262      349.438       29.866      862.008
08/03/2014  13:02:00      196.465      115.492       48.251       89.445       74.772       47.745     8000.473     5590.807     2279.557        3.506        0.794      227.897       25.488        0.013      349.063       29.213      861.992
08/03/2014  13:03:00      173.347      122.054       47.161       83.990       83.495       68.371     7054.318     6971.498     4674.611        3.293        0.935      212.006       44.798        0.045      349.171       29.401      861.982
08/03/2014  13:04:00      166.701      115.581       43.358       69.543       42.961       41.223     4836.184     1845.676     1699.351        2.570        0.419      202.850       37.313        0.034      349.001       29.106      861.983
08/03/2014  13:05:00       31.766       28.298       28.451       28.781       29.315       40.480      828.318      859.393     1638.649        0.297        0.166       42.543       18.084        0.181      349.223       29.494      861.983
08/03/2014  13:06:00       73.172       76.162        8.105       63.763       55.710       35.554     4065.692     3103.558     1264.075        0.983        0.422      105.616       31.165        0.087      349.158       29.380      861.969
08/03/2014  13:07:00       61.181       84.999        3.111       62.055       64.821       51.750     3850.768     4201.704     2678.023        1.085        0.537      104.728       36.327        0.120      349.023       29.146      861.959
08/03/2014  13:08:00       17.328       56.610       -2.275       34.206       54.334       29.592     1170.037     2952.216      875.708        0.425        0.250       59.203       34.422        0.338      349.151       29.368      861.947
08/03/2014  13:09:00       79.011       37.873       25.920       91.063       46.667       39.365     8292.461     2177.814     1549.596        1.018        0.601       87.619       21.917        0.063      349.304       29.633      861.941
08/03/2014  13:10:00      125.246       51.529       58.433       78.838       79.101       58.582     6215.398     6256.936     3431.824        1.883        0.795      135.432       51.833        0.146      349.121       29.316      861.935
08/03/2014  13:11:00      162.694       89.120       31.067      104.725       67.661       51.715    10967.272     4577.996     2674.430        2.679        0.911      185.504       38.313        0.043      349.174       29.407      861.919
08/03/2014  13:12:00       94.428       81.754       37.759       91.228       53.536       48.395     8322.492     2866.067     2342.116        1.528        0.677      124.902       57.949        0.215      349.195       29.443      861.923
08/03/2014  13:13:00       72.799       11.032       -0.699       48.742       81.930       30.867     2375.744     6712.558      952.777        0.773        0.502       73.630       13.174        0.032      349.334       29.686      861.931
08/03/2014  13:14:00       59.406       24.821       38.360       62.512       92.384       48.147     3907.766     8534.748     2318.131        1.019        0.738       64.383       58.742        0.832      349.650       30.234      861.933
08/03/2014  13:15:00       31.527       48.846       52.304       46.357       41.379       42.957     2148.928     1712.224     1845.303        0.591        0.285       58.137       29.381        0.255      349.649       30.233      861.936
08/03/2014  13:16:00       59.997      -21.565       58.665       68.657      105.497       69.622     4713.759    11129.667     4847.263        1.409        1.035       63.755       63.021        0.977      349.281       29.592      861.939
08/03/2014  13:17:00       40.223       26.824       71.995       67.895      102.899       61.765     4609.693    10588.209     3814.884        1.326        0.951       48.347       67.997        1.978      349.478       29.935      861.913
08/03/2014  13:18:00       85.612       98.135      105.569      107.424      110.628       62.196    11539.875    12238.583     3868.298        2.787        1.382      130.230       69.533        0.285      349.357       29.724      861.899
08/03/2014  13:19:00       34.943       12.666       74.855       65.152       65.192       48.020     4244.721     4249.972     2305.914        0.889        0.540       37.168       38.905        1.096      349.586       30.122      861.890
08/03/2014  13:20:00       61.581       40.123       71.790       74.215       77.640       57.304     5507.897     6027.933     3283.701        1.268        0.741       73.498       58.405        0.631      349.283       29.598      861.885
08/03/2014  13:21:00       30.502      -13.286       40.541       43.793       73.145       29.928     1917.845     5350.185      895.669        0.546        0.408       33.270       13.398        0.162      349.574       30.103      861.871
08/03/2014  13:22:00       86.878       41.696       14.411       32.929       28.559       32.484     1084.332      815.636     1055.234        0.622        0.148       96.366       15.234        0.025      349.450       29.886      861.856
08/03/2014  13:23:00       31.961       36.694       48.564       51.741       40.869       31.593     2677.149     1670.276      998.146        0.503        0.267       48.662       20.293        0.174      349.675       30.277      861.842
08/03/2014  13:24:00      132.662       79.296       52.120       76.485       65.914       62.666     5849.891     4344.705     3926.988        2.036        0.706      154.555       35.306        0.052      349.472       29.923      861.837
08/03/2014  13:25:00      123.866      134.945      136.236      116.258       72.349       88.428    13515.887     5234.391     7819.545        3.934        1.328      183.175       69.038        0.142      349.296       29.616      861.825
08/03/2014  13:26:00      207.349      101.232       76.067      119.065       92.113       74.891    14176.572     8484.748     5608.722        4.364        1.414      230.741       62.058        0.072      349.265       29.562      861.816
08/03/2014  13:27:00      130.655       95.602       57.983       80.161       64.761       67.524     6425.807     4194.014     4559.452        2.237        0.759      161.896       48.868        0.091      349.390       29.781      861.825
08/03/2014  13:28:00       56.849       48.205       55.027       81.887       54.150       45.181     6705.514     2932.253     2041.283        1.013        0.584       74.536       28.076        0.142      349.669       30.267      861.816
08/03/2014  13:29:00      123.563       82.145       50.482       95.433       80.396       58.702     9107.423     6463.483     3445.897        2.179        0.951      148.376       52.759        0.126      349.171       29.399      861.806
08/03/2014  13:30:00       69.340       79.395       31.996       64.834       51.630       43.509     4203.460     2665.642     1893.010        1.045        0.438      105.412       15.080        0.020      349.412       29.820      861.788
08/03/2014  13:31:00      100.486       77.321       28.440       44.857       31.822       29.937     2012.116     1012.637      896.216        1.040        0.196      126.791        6.411        0.003      349.183       29.423      861.776
08/03/2014  13:32:00       65.274       42.529       26.102       48.953       36.812       34.165     2396.406     1355.152     1167.267        0.583        0.246       77.906        8.218        0.011      349.504       29.982      861.756
08/03/2014  13:33:00       73.969       32.308       37.097       79.153       59.570       39.488     6265.143     3548.540     1559.297        0.963        0.569       80.717       17.951        0.049      349.810       30.511      861.744
08/03/2014  13:34:00      139.121       90.486       55.905       81.957       67.718       54.679     6716.905     4585.681     2989.802        2.248        0.715      165.959       40.149        0.059      349.573       30.098      861.740
08/03/2014  13:35:00      155.620      110.558       20.625       65.682       50.640       53.169     4314.190     2564.395     2826.918        2.328        0.485      190.894       20.996        0.012      349.283       29.596      861.746
08/03/2014  13:36:00      148.500       89.900       30.373       74.484       56.509       49.357     5547.794     3193.213     2436.154        2.111        0.559      173.592       35.269        0.041      349.451       29.885      861.730
08/03/2014  13:37:00      192.956      146.263       20.362      120.620       71.743       54.842    14549.124     5147.089     3007.649        4.087        1.135      242.126       41.073        0.029      349.396       29.792      861.719
08/03/2014  13:38:00      173.275      129.911       19.767       72.267       48.305       56.784     5222.468     2333.381     3224.399        2.903        0.539      216.567       33.915        0.025      349.279       29.587      861.705
08/03/2014  13:39:00       59.032      -17.616       35.753       82.515      122.110       56.599     6808.689    14910.971     3203.479        1.499        1.246       61.604       57.354        0.867      349.773       30.447      861.703
08/03/2014  13:40:00       78.436       54.653      116.429       93.203      140.182       95.577     8686.857    19651.104     9134.986        3.008        1.874       95.599      107.146        1.256      349.733       30.376      861.702
08/03/2014  13:41:00      119.627       80.048      120.657       95.430      100.501       82.750     9106.799    10100.435     6847.641        3.066        1.303      143.939       77.206        0.288      349.468       29.915      861.702
08/03/2014  13:42:00      100.985       -6.017       70.502       94.700      117.444       78.886     8968.017    13793.076     6222.999        2.209        1.449      101.164       91.284        0.814      349.549       30.056      861.687
08/03/2014  13:43:00       57.651       42.303       51.389       52.997       51.446       39.870     2808.677     2646.726     1589.595        0.740        0.352       71.507       40.158        0.315      349.531       30.027      861.686
08/03/2014  13:44:00       84.990      -63.116        2.309       78.774      113.964       41.976     6205.368    12987.683     1762.014        1.608        1.048      105.863       60.531        0.327      349.572       30.097      861.662
08/03/2014  13:45:00      199.588     -204.987      -13.161      114.110      159.558       86.422    13021.135    25458.691     7468.735        6.398        2.297      286.103      103.721        0.131      349.581       30.111      861.643
08/03/2014  13:46:00      186.958     -271.134      -35.580       83.980       60.501       35.232     7052.695     3660.335     1241.315        6.084        0.598      329.343       39.721        0.015      349.062       29.210      861.659
08/03/2014  13:47:00       43.379      -98.131        5.862       48.344       60.031       58.199     2337.181     3603.772     3387.156        1.044        0.466      107.292       28.130        0.069      349.459       29.902      861.654
08/03/2014  13:48:00      -17.240      -84.474       -0.697       55.882       56.353       35.093     3122.808     3175.643     1231.523        0.748        0.376       86.215       24.778        0.083      349.655       30.242      861.622
08/03/2014  13:49:00      -49.546      -94.989       -4.996       53.641       74.166       24.105     2877.305     5500.549      581.068        1.023        0.448      107.134       13.668        0.016      349.387       29.776      861.602
08/03/2014  13:50:00       53.462      -87.147        3.333       50.872       57.152       38.653     2587.960     3266.367     1494.043        0.890        0.367      102.239       38.650        0.143      349.787       30.472      861.599
08/03/2014  13:51:00       93.323     -213.176      -16.881       90.315       59.185       34.462     8156.876     3502.885     1187.652        3.364        0.642      232.709       15.792        0.005      349.344       29.700      861.587
08/03/2014  13:52:00       48.033       -7.011       52.666       64.059       88.694       46.011     4103.497     7866.654     2117.008        0.961        0.704       48.542       54.193        1.246      349.958       30.769      861.571
08/03/2014  13:53:00        3.717      -53.499       15.239       53.383       63.930       41.810     2849.733     4087.061     1748.044        0.589        0.434       53.628       42.838        0.638      349.827       30.540      861.562
08/03/2014  13:54:00      -38.178      -33.573       14.878       66.209       42.385       29.332     4383.588     1796.523      860.390        0.492        0.352       50.840       24.633        0.235      349.925       30.712      861.542
08/03/2014  13:55:00       -5.327       10.432       42.013       51.832       38.060       29.089     2686.573     1448.579      846.171        0.344        0.249       11.714       34.194        8.521      350.048       30.926      861.537
08/03/2014  13:56:00       26.256       46.321       10.360      107.600       67.122       42.949    11577.713     4505.300     1844.643        1.043        0.896       53.245       38.858        0.533      349.941       30.739      861.512
08/03/2014  13:57:00      154.811      140.736       18.028      105.124       68.098       61.219    11051.092     4637.338     3747.803        3.176        0.972      209.220       35.486        0.029      349.902       30.668      861.481
08/03/2014  13:58:00      133.084      101.159       72.866      103.313      111.435       97.987    10673.599    12417.710     9601.472        3.297        1.635      167.166       60.927        0.133      349.996       30.833      861.468
08/03/2014  13:59:00      212.368      165.713      153.857      117.507      115.229       98.878    13807.918    13277.807     9776.767        6.654        1.843      269.371       82.713        0.094      349.650       30.231      861.454
08/03/2014  14:00:00      161.001      105.818       57.875       68.424       64.171       47.808     4681.838     4117.895     2285.620        2.577        0.554      192.663       29.762        0.024      349.477       29.931      861.446
08/03/2014  14:01:00      152.344      -65.816       34.283      104.276      137.983       69.028    10873.417    19039.225     4764.826        3.169        1.734      165.953       99.616        0.360      349.661       30.251      861.421
08/03/2014  14:02:00      163.743     -141.564       -1.369       87.491      122.808       53.418     7654.603    15081.869     2853.522        3.622        1.279      216.454       53.554        0.061      349.905       30.674      861.404
08/03/2014  14:03:00       41.256       86.469      114.688       61.607       56.823       42.261     3795.376     3228.897     1785.990        1.557        0.441       95.806       44.775        0.218      350.004       30.847      861.413
08/03/2014  14:04:00      141.651       66.699       47.949       80.631       61.770       67.256     6501.281     3815.479     4523.405        2.082        0.742      156.568       57.502        0.135      349.737       30.383      861.422
08/03/2014  14:05:00       66.828       48.651       54.598       67.818       50.649       50.028     4599.344     2565.319     2502.796        0.974        0.483       82.662       37.106        0.201      349.840       30.564      861.407
08/03/2014  14:06:00       56.214       53.731       28.725       37.998       33.826       24.773     1443.840     1144.211      613.677        0.504        0.160       77.763       16.396        0.044      349.488       29.953      861.394
08/03/2014  14:07:00       36.145       19.955       66.025       76.358       93.589       44.811     5830.584     8758.947     2007.991        1.133        0.830       41.288       45.439        1.211      349.939       30.736      861.385
08/03/2014  14:08:00       44.232       13.682       40.604       78.069       85.602       48.456     6094.823     7327.751     2348.021        0.978        0.789       46.300       42.369        0.837      350.339       31.430      861.403
08/03/2014  14:09:00       96.202     -131.284       19.808      105.419      163.332       80.776    11113.231    26677.451     6524.691        3.559        2.216      162.758      103.024        0.401      349.953       30.758      861.395
08/03/2014  14:10:00       41.885      -39.046       44.129       56.321       91.558       53.639     3172.065     8382.820     2877.118        0.983        0.722       57.262       59.831        1.092      350.121       31.051      861.400
08/03/2014  14:11:00      136.098     -152.771       -9.574       80.247       98.825       54.059     6439.502     9766.465     2922.326        3.054        0.956      204.601       61.038        0.089      349.776       30.449      861.416
08/03/2014  14:12:00      -27.041       -5.829       15.266       58.195       61.309       28.998     3386.660     3758.814      840.871        0.449        0.399       27.662       25.124        0.825      350.113       31.036      861.402
08/03/2014  14:13:00      -94.962       -7.708        5.938       50.001       47.506       23.728     2500.070     2256.845      563.029        0.722        0.266       95.274       23.711        0.062      349.954       30.762      861.364
08/03/2014  14:14:00       13.463      -47.819       26.287       55.032       60.373       35.488     3028.476     3644.875     1259.419        0.554        0.397       49.678       33.818        0.463      350.339       31.432      861.345
08/03/2014  14:15:00        3.345      -60.371       -0.733       35.804       51.486       35.513     1281.911     2650.757     1261.195        0.442        0.260       60.463       35.670        0.348      350.160       31.119      861.340
08/03/2014  14:16:00      132.799      111.806       76.627      112.272       76.174       61.008    12605.059     5802.554     3721.940        2.906        1.106      173.598       57.523        0.110      349.882       30.634      861.324
08/03/2014  14:17:00       97.928       57.801       58.307       96.324       71.687       61.845     9278.407     5139.067     3824.820        1.728        0.912      113.714       52.026        0.209      350.084       30.985      861.314
08/03/2014  14:18:00       39.345        1.634       75.326       77.347       75.230       61.190     5982.572     5659.484     3744.232        1.130        0.769       39.379       52.298        1.764      350.375       31.494      861.312
08/03/2014  14:19:00       34.058       44.243       78.170       47.639       61.608       41.341     2269.511     3795.607     1709.116        0.850        0.389       55.834       37.843        0.459      350.382       31.505      861.299
08/03/2014  14:20:00       31.870       23.625       61.515       59.460      112.181       63.626     3535.472    12584.665     4048.262        1.276        1.008       39.671       72.128        3.306      350.082       30.984      861.295
08/03/2014  14:21:00       -3.794       53.783       69.238       46.936       68.497       57.836     2203.004     4691.771     3344.955        0.897        0.512       53.916       50.738        0.886      350.199       31.187      861.297
08/03/2014  14:22:00       65.340        0.993       23.822       76.418       61.303       50.569     5839.746     3758.049     2557.192        0.849        0.608       65.347       25.594        0.153      350.144       31.090      861.265
08/03/2014  14:23:00      187.520       71.276       45.450      122.363      117.388       76.128    14972.800    13779.963     5795.524        3.842        1.727      200.609       54.387        0.074      349.961       30.772      861.251
08/03/2014  14:24:00      234.852      158.900       46.790       97.091       73.207       64.528     9426.628     5359.319     4163.901        5.077        0.947      283.557       42.501        0.022      349.596       30.136      861.234
08/03/2014  14:25:00      158.482      114.763       45.184       97.088       66.589       73.594     9426.090     4434.078     5416.112        2.980        0.964      195.671       28.924        0.022      349.695       30.310      861.182
08/03/2014  14:26:00      207.140       90.217       89.599      143.526      116.114       97.294    20599.612    13482.481     9466.116        5.130        2.177      225.933       69.680        0.095      349.984       30.811      861.149
08/03/2014  14:27:00       56.474       74.627      102.917       97.556       67.647       56.713     9517.110     4576.060     3216.327        1.833        0.865       93.586       48.264        0.266      350.092       31.000      861.193
08/03/2014  14:28:00       59.887       13.456       47.304       81.761       69.536       47.542     6684.786     4835.247     2260.201        0.989        0.689       61.380       26.750        0.190      349.968       30.785      861.189
08/03/2014  14:29:00      110.805        3.949       94.496      149.060      117.050       92.706    22218.946    13700.625     8594.459        3.286        2.226      110.876       88.510        0.637      350.146       31.092      861.170
08/03/2014  14:30:00       84.478      -34.010       30.145       82.856      149.744       67.655     6865.191    22423.390     4577.259        2.153        1.693       91.067       77.307        0.721      350.132       31.070      861.172
08/03/2014  14:31:00      122.185     -174.467        1.850       89.425      121.255       64.196     7996.877    14702.717     4121.176        3.609        1.341      212.997       77.838        0.134      350.065       30.952      861.165
08/03/2014  14:32:00      111.464     -113.929        8.307       62.321      108.699       54.218     3883.907    11815.383     2939.567        2.205        0.932      159.386       58.346        0.134      349.985       30.813      861.161
08/03/2014  14:33:00       38.739       -7.140       28.976       44.547       45.778       35.094     1984.447     2095.585     1231.623        0.385        0.266       39.391       34.760        0.779      349.943       30.743      861.173
08/03/2014  14:34:00        7.930       11.902       37.021       27.510       41.440       25.808      756.786     1717.304      666.064        0.236        0.157       14.302       28.783        4.050      350.077       30.974      861.160
08/03/2014  14:35:00       53.674       14.740       15.225       51.427       41.148       33.249     2644.696     1693.178     1105.479        0.439        0.272       55.661       22.067        0.157      350.065       30.954      861.157
08/03/2014  14:36:00       -2.845       -0.492       58.037       26.430       52.551       25.869      698.566     2761.605      669.219        0.375        0.206        2.887       22.158       58.918      350.667       32.002      861.154
08/03/2014  14:37:00      122.502       46.486       37.714       77.077       48.479       50.619     5940.792     2350.251     2562.264        1.472        0.543      131.026       35.696        0.074      350.095       31.006      861.146
08/03/2014  14:38:00       67.305       50.707       63.420       75.749       65.360       56.701     5737.906     4271.868     3215.038        1.217        0.661       84.269       53.085        0.397      349.954       30.762      861.132
08/03/2014  14:39:00      170.518      185.659      177.574      117.274      109.953       86.110    13753.173    12089.660     7414.919        6.416        1.663      252.083       68.364        0.074      349.989       30.818      861.111
08/03/2014  14:40:00      125.135      -39.495       65.325       98.056      144.210       88.708     9614.901    20796.655     7869.147        2.988        1.914      131.220       93.336        0.506      349.891       30.648      861.129
08/03/2014  14:41:00      106.156       11.890       54.225       79.266       81.605       57.026     6283.153     6659.367     3251.974        1.527        0.810      106.820       48.749        0.208      349.955       30.763      861.149
08/03/2014  14:42:00      129.146     -170.221       18.731      153.582      156.642       73.270    23587.385    24536.708     5368.428        4.974        2.675      213.668       95.763        0.201      349.922       30.703      861.129
08/03/2014  14:43:00      231.396     -167.459       29.691      133.951      239.990      111.347    17942.874    57594.987    12398.163        8.518        4.397      285.634      156.692        0.301      349.858       30.591      861.098
08/03/2014  14:44:00      159.139       18.692      109.852      117.730      133.935       87.076    13860.265    17938.613     7582.288        3.855        1.969      160.233       96.799        0.365      349.861       30.597      861.121
08/03/2014  14:45:00       57.583       -4.765       73.011       84.156      102.560       72.914     7082.153    10518.472     5316.460        1.579        1.146       57.780       79.389        1.888      349.980       30.807      861.123
08/03/2014  14:46:00      104.682       18.733       65.978       79.421      100.172       68.015     6307.723    10034.428     4626.039        1.831        1.048      106.345       65.253        0.376      349.900       30.667      861.103
08/03/2014  14:47:00       93.416      -68.745       12.170       68.614       83.958       40.912     4707.891     7048.958     1673.823        1.351        0.672      115.985       46.778        0.163      349.658       30.247      861.104
08/03/2014  14:48:00       95.446     -133.185      -10.442       71.480      101.154       40.191     5109.369    10232.173     1615.294        2.195        0.848      163.855       44.201        0.073      349.730       30.371      861.087
08/03/2014  14:49:00       62.895      -96.523      -18.282       31.637       43.930       40.206     1000.882     1929.825     1616.491        0.908        0.227      115.206       30.205        0.069      349.841       30.565      861.066
08/03/2014  14:50:00       45.753      -34.071       29.189       64.858       82.307       60.704     4206.543     6774.490     3684.926        0.938        0.733       57.045       60.755        1.134      349.887       30.645      861.033
08/03/2014  14:51:00       73.627       77.300      124.260      108.301       99.333       72.730    11729.032     9867.128     5289.723        2.686        1.344      106.753       70.091        0.431      349.798       30.490      861.017
08/03/2014  14:52:00      201.665       95.164       70.421      106.064      108.141       95.701    11249.635    11694.541     9158.649        4.339        1.605      222.991       74.603        0.112      349.590       30.126      860.994
08/03/2014  14:53:00      139.411       79.610       35.678       96.017       58.003       63.314     9219.304     3364.324     4008.656        2.182        0.830      160.540       61.252        0.146      349.611       30.165      860.986
08/03/2014  14:54:00      194.763       47.672       45.932       85.855      103.563       59.097     7371.151    10725.291     3492.440        3.195        1.079      200.512       57.270        0.082      349.853       30.583      860.976
08/03/2014  14:55:00      102.411      110.292      157.295      108.284      107.906       81.685    11725.344    11643.642     6672.486        3.871        1.502      150.507       95.735        0.405      349.807       30.502      860.976
08/03/2014  14:56:00       86.684       36.612       85.508       85.815       90.663       63.768     7364.192     8219.743     4066.377        1.790        0.983       94.098       54.581        0.336      349.872       30.618      860.971
08/03/2014  14:57:00       80.357      -41.689       33.680       93.960      100.895       59.151     8828.574    10179.744     3498.812        1.591        1.125       90.528       56.714        0.392      349.745       30.396      860.969
08/03/2014  14:58:00      162.261     -185.501      -14.345      104.278       99.583       51.153    10873.910     9916.776     2616.593        4.217        1.170      246.453       46.423        0.035      349.809       30.506      860.946
08/03/2014  14:59:00      237.041      -93.900       35.315      126.202      176.483      110.561    15926.867    31146.287    12223.676        6.276        2.965      254.962      127.867        0.252      349.780       30.456      860.930
08/03/2014  15:00:00      145.677      -81.645       58.124      122.978      187.462      113.051    15123.640    35142.167    12780.450        4.714        3.152      166.996      137.859        0.681      349.785       30.464      860.943
08/03/2014  15:01:00      108.578      -60.462       28.346       90.415      113.943       58.770     8174.810    12983.030     3453.858        2.043        1.231      124.277       70.651        0.323      349.644       30.222      860.956
08/03/2014  15:02:00       32.977      -14.038       52.174       48.451      130.365       54.823     2347.487    16995.081     3005.567        1.317        1.117       35.840       80.760        5.077      349.681       30.286      860.934
08/03/2014  15:03:00       98.348       45.882       66.823       92.395       68.612       51.940     8536.879     4707.670     2697.757        1.609        0.797      108.524       55.663        0.263      349.651       30.233      860.924
08/03/2014  15:04:00      112.322       65.249       57.341       64.314       63.687       48.465     4136.352     4056.070     2348.834        1.535        0.527      129.898       36.232        0.078      349.442       29.872      860.902
08/03/2014  15:05:00      121.026       51.900       65.151      123.135      100.011       63.284    15162.263    10002.115     4004.811        2.537        1.458      131.685       58.830        0.200      349.663       30.253      860.879
08/03/2014  15:06:00      109.343       43.370       60.206       51.027       50.223       44.422     2603.791     2522.374     1973.292        1.228        0.355      117.630       29.549        0.063      349.531       30.026      860.866
08/03/2014  15:07:00       58.714       22.146       26.057       58.516       43.180       36.237     3424.165     1864.544     1313.127        0.561        0.330       62.752       35.846        0.326      349.625       30.192      860.838
08/03/2014  15:08:00       12.350       14.425        8.152       48.924       36.627       28.952     2393.577     1341.515      838.192        0.250        0.229       18.989       21.182        1.244      349.790       30.476      860.811
08/03/2014  15:09:00       98.929      -32.921       42.455      100.735       72.183       41.610    10147.567     5210.350     1731.398        1.488        0.854      104.263       35.701        0.117      349.739       30.387      860.804
08/03/2014  15:10:00       51.307      -39.146       52.658       72.597       85.248       57.766     5270.353     7267.212     3336.872        1.140        0.794       64.535       59.857        0.860      349.878       30.630      860.791
08/03/2014  15:11:00       52.759        1.791       40.475       75.814       78.181       50.935     5747.774     6112.346     2594.419        0.944        0.723       52.789       44.125        0.699      349.851       30.582      860.792
08/03/2014  15:12:00       37.331       -4.399       49.965       73.493       67.405       43.783     5401.278     4543.479     1916.978        0.788        0.593       37.590       39.308        1.094      350.048       30.924      860.773
08/03/2014  15:13:00      216.870      -26.087       62.720       89.069      109.828       77.908     7933.258    12062.164     6069.714        3.885        1.303      218.433       71.141        0.106      349.831       30.545      860.756
08/03/2014  15:14:00       64.476       70.178      121.595       97.799      105.273       80.523     9564.646    11082.435     6484.017        2.549        1.357       95.300       90.481        0.901      349.867       30.608      860.744
08/03/2014  15:15:00       75.907      -15.218       58.423       81.359       90.706       50.364     6619.273     8227.660     2536.512        1.339        0.869       77.418       57.232        0.547      349.801       30.494      860.714
08/03/2014  15:16:00      106.584       16.918       84.439      105.590       88.459       64.335    11149.344     7825.075     4139.043        2.094        1.156      107.918       65.707        0.371      349.861       30.599      860.702
08/03/2014  15:17:00      100.382       56.103       61.303       83.002      130.939       62.928     6889.322    17145.076     3959.932        2.248        1.400      114.996       74.711        0.422      349.783       30.463      860.703
08/03/2014  15:18:00      131.364     -133.065       13.344       99.001      102.970       61.713     9801.151    10602.791     3808.482        2.967        1.211      186.984       63.590        0.116      349.862       30.599      860.667
08/03/2014  15:19:00       49.111      -29.324       37.965       55.053       61.510       54.320     3030.846     3783.527     2950.683        0.724        0.488       57.199       41.150        0.518      349.921       30.705      860.673
08/03/2014  15:20:00       61.203      -32.212       22.684       51.626       92.006       46.627     2665.212     8465.166     2174.053        0.930        0.665       69.162       44.799        0.420      349.713       30.342      860.666
08/03/2014  15:21:00       16.005       19.567       38.130       34.117       35.594       26.941     1163.980     1266.901      725.840        0.262        0.158       25.279       24.830        0.965      349.726       30.367      860.663
08/03/2014  15:22:00       75.116      -44.998       36.158       83.102       86.566       57.851     6905.992     7493.722     3346.697        1.336        0.887       87.563       46.449        0.281      349.697       30.314      860.650
08/03/2014  15:23:00      152.267     -154.569       -1.413       82.684      109.926       54.453     6836.646    12083.739     2965.111        3.448        1.094      216.972       51.381        0.056      349.839       30.558      860.640
08/03/2014  15:24:00      117.479      -13.113       78.043       94.310      126.890       65.297     8894.312    16101.069     4263.741        2.466        1.463      118.209       69.221        0.343      349.784       30.466      860.630
08/03/2014  15:25:00       64.224      -18.152       41.721       79.008       90.876       49.749     6242.300     8258.464     2474.954        1.158        0.849       66.740       60.559        0.823      349.765       30.432      860.616
08/03/2014  15:26:00       99.954     -109.857       -1.190       83.537       87.055       47.414     6978.422     7578.559     2248.130        1.943        0.840      148.524       55.634        0.140      349.465       29.911      860.611
08/03/2014  15:27:00       72.717      -15.941       49.274       78.991      118.179       69.784     6239.598    13966.263     4869.804        1.652        1.254       74.444       82.956        1.242      349.728       30.367      860.595
08/03/2014  15:28:00       97.626       39.898       52.941      107.907       80.252       71.035    11644.016     6440.377     5046.015        1.852        1.157      105.464       84.109        0.636      349.739       30.386      860.594
08/03/2014  15:29:00       46.865       46.008       54.493       56.012       50.286       38.696     3137.350     2528.662     1497.343        0.722        0.358       65.674       33.670        0.263      349.544       30.049      860.594
08/03/2014  15:30:00       80.200       37.574       20.371       61.113       39.446       30.176     3734.773     1555.982      910.618        0.723        0.310       88.565       20.462        0.053      349.712       30.341      860.594
08/03/2014  15:31:00       50.840       33.576       28.750       34.518       41.127       27.081     1191.476     1691.393      733.362        0.408        0.181       60.927       25.306        0.173      349.733       30.377      860.589
08/03/2014  15:32:00       66.211      -35.207       30.715       55.242       67.966       56.134     3051.724     4619.433     3150.995        0.869        0.541       74.989       49.274        0.432      349.796       30.487      860.589
08/03/2014  15:33:00       96.287       46.336       45.660       59.835       43.071       37.937     3580.212     1855.112     1439.193        1.019        0.344      106.856       22.091        0.043      349.635       30.205      860.589
08/03/2014  15:34:00      100.357       59.225       25.519       37.902       38.750       28.806     1436.549     1501.586      829.767        0.900        0.188      116.529       16.760        0.021      349.611       30.165      860.558
08/03/2014  15:35:00       73.522       19.541       49.014       83.947       86.855       67.135     7047.041     7543.862     4507.057        1.364        0.955       76.075       62.099        0.666      349.641       30.218      860.542
08/03/2014  15:36:00      104.157      -63.170       10.971       91.991       58.270       48.701     8462.408     3395.389     2371.749        1.459        0.711      121.816       40.891        0.113      349.747       30.401      860.552
08/03/2014  15:37:00      133.187     -109.919        8.598       79.378      114.814       63.873     6300.820    13182.182     4079.711        2.672        1.178      172.687       75.633        0.192      349.804       30.499      860.532
08/03/2014  15:38:00       93.508     -103.633       18.805       84.047      109.554       63.241     7063.903    12002.055     3999.384        2.145        1.153      139.583       73.927        0.281      349.814       30.517      860.518
08/03/2014  15:39:00       75.728     -138.442      -11.537       54.852       54.158       36.086     3008.762     2933.070     1302.222        1.614        0.362      157.800       29.100        0.034      349.644       30.222      860.517
08/03/2014  15:40:00        0.149      -20.363       15.738       23.485       25.363       21.129      551.559      643.287      446.449        0.115        0.082       20.364       17.402        0.730      349.956       30.764      860.504
08/03/2014  15:41:00       16.478      -25.007       11.942       18.712       31.731       24.394      350.145     1006.834      595.076        0.150        0.098       29.948       21.076        0.495      349.758       30.421      860.476
08/03/2014  15:42:00       79.457     -116.260       -1.362       54.790       79.171       39.896     3001.958     6267.975     1591.655        1.534        0.543      140.818       48.334        0.118      349.762       30.428      860.458
08/03/2014  15:43:00       83.384     -174.609       -6.936       41.103       50.485       38.155     1689.494     2548.745     1455.809        2.159        0.285      193.497       19.470        0.010      349.673       30.272      860.450
08/03/2014  15:44:00       34.292      -46.610       34.023       56.944       84.900       44.374     3242.634     7208.071     1969.045        0.846        0.621       57.866       46.638        0.650      349.789       30.474      860.438
08/03/2014  15:45:00       58.463       42.622       89.381       59.222       79.315       36.369     3507.276     6290.878     1322.715        1.217        0.556       72.350       39.283        0.295      349.673       30.273      860.436
08/03/2014  15:46:00       43.772       41.932       75.107       41.947       60.625       40.754     1759.561     3675.341     1660.915        0.820        0.355       60.616       38.026        0.394      349.920       30.701      860.436
08/03/2014  15:47:00      106.611       67.149       73.656       82.682       61.929       53.604     6836.311     3835.206     2873.336        1.742        0.677      125.996       41.949        0.111      349.757       30.416      860.444
08/03/2014  15:48:00       85.607       55.407       53.404       73.213       70.662       44.057     5360.142     4993.052     1941.040        1.277        0.615      101.973       34.029        0.111      349.719       30.353      860.446
08/03/2014  15:49:00       53.992      -48.195       16.038       41.440       43.665       25.011     1717.282     1906.652      625.529        0.487        0.212       72.374       15.126        0.044      349.791       30.480      860.445
08/03/2014  15:50:00       51.060      -15.615       23.223       41.387       31.257       22.731     1712.861      977.018      516.707        0.330        0.160       53.394       26.455        0.245      349.869       30.614      860.427
08/03/2014  15:51:00       86.664      -85.863       -9.494       53.827       77.710       41.466     2897.335     6038.900     1719.448        1.281        0.533      121.997       48.271        0.157      349.758       30.420      860.406
08/03/2014  15:52:00       86.137     -102.099       18.139       93.365      112.283       47.271     8716.952    12607.400     2234.548        2.086        1.178      133.581       59.715        0.200      349.875       30.625      860.390
08/03/2014  15:53:00      107.471      -47.206       35.180      106.644      163.617       78.560    11372.989    26770.557     6171.617        2.966        2.216      117.381      100.626        0.735      349.959       30.767      860.361
08/03/2014  15:54:00      101.213       18.200       70.153       81.245       62.488       59.033     6600.713     3904.734     3484.943        1.474        0.700      102.836       55.245        0.289      349.800       30.493      860.392
08/03/2014  15:55:00       76.374       58.141       70.806       58.122       56.000       36.308     3378.139     3135.963     1318.260        1.103        0.392       95.986       30.885        0.104      349.644       30.224      860.395
08/03/2014  15:56:00       55.172        3.228       37.294       43.119       64.001       36.440     1859.237     4096.083     1327.890        0.586        0.364       55.266       38.942        0.496      349.548       30.058      860.384
08/03/2014  15:57:00       67.444       47.814       34.482       38.753       26.895       23.098     1501.758      723.354      533.522        0.539        0.138       82.674       13.621        0.027      349.718       30.351      860.371
08/03/2014  15:58:00       37.144        3.085       18.977       29.784       42.638       26.189      887.060     1818.024      685.860        0.257        0.170       37.272       19.107        0.263      349.740       30.392      860.362
08/03/2014  15:59:00       40.124      -48.914       11.794       29.918       39.241       21.350      895.074     1539.888      455.841        0.352        0.145       63.266       23.313        0.136      349.715       30.347      860.361
08/03/2014  16:00:00       32.686        0.753       27.590       58.901       35.685       30.379     3469.283     1273.443      922.863        0.375        0.283       32.694       29.264        0.801      349.641       30.218      860.356
08/03/2014  16:01:00       90.092       50.186       37.313       45.011       32.547       41.672     2026.010     1059.305     1736.559        0.842        0.241      103.127       27.910        0.073      349.546       30.052      860.357
08/03/2014  16:02:00       69.737       16.922       11.476       39.322       43.715       25.998     1546.195     1911.028      675.881        0.471        0.207       71.760       23.052        0.103      349.683       30.290      860.341
08/03/2014  16:03:00       10.361      -38.278       28.691       28.048       34.789       24.742      786.663     1210.279      612.147        0.250        0.130       39.656       12.521        0.100      349.642       30.220      860.338
08/03/2014  16:04:00       15.059      -14.277       21.242       22.199       37.476       23.608      492.785     1404.416      557.347        0.167        0.123       20.751       18.859        0.826      349.759       30.423      860.336
08/03/2014  16:05:00       -8.819      -32.224       13.807       31.332       53.564       31.202      981.683     2869.127      973.545        0.306        0.241       33.409       32.659        0.956      349.592       30.134      860.339
08/03/2014  16:06:00        4.335     -124.192      -11.764       36.303       29.298       25.843     1317.920      858.380      667.859        0.921        0.142      124.268       13.644        0.012      349.631       30.201      860.343
08/03/2014  16:07:00       53.258      -93.159        5.411       44.576       50.363       36.838     1987.022     2536.474     1357.006        0.871        0.294      107.308       33.329        0.096      349.701       30.322      860.348
08/03/2014  16:08:00       45.992     -134.008       -1.679       46.778       35.710       30.492     2188.178     1275.190      929.736        1.223        0.220      141.680       23.270        0.027      349.579       30.109      860.346
08/03/2014  16:09:00       27.964      -66.108       -0.349       23.011       52.889       20.816      529.490     2797.243      433.315        0.446        0.188       71.780       19.886        0.077      349.660       30.251      860.335
08/03/2014  16:10:00       14.237      -21.989       12.727       25.088       24.655       27.110      629.397      607.856      734.930        0.141        0.099       26.196       18.009        0.473      349.930       30.721      860.315
08/03/2014  16:11:00      -15.037      -22.365       15.764       43.751       22.826       26.792     1914.181      521.035      717.809        0.206        0.158       26.949       31.116        1.333      349.882       30.635      860.304
08/03/2014  16:12:00     -142.540      -88.635      -10.904       51.431       47.010       30.677     2645.107     2209.948      941.065        1.704        0.290      167.850       30.909        0.034      349.635       30.206      860.282
08/03/2014  16:13:00      -48.404      -45.182        8.178       45.969       40.093       29.135     2113.185     1607.442      848.826        0.451        0.228       66.215       26.592        0.161      349.756       30.417      860.263
08/03/2014  16:14:00      -29.811       23.096       20.228       18.504       19.648       13.360      342.410      386.041      178.480        0.137        0.045       37.711       12.531        0.110      349.706       30.331      860.251
08/03/2014  16:15:00      -29.329        2.823       12.640       20.325       16.351       15.465      413.091      267.354      239.165        0.097        0.046       29.464       15.690        0.284      349.782       30.461      860.246
08/03/2014  16:16:00        4.806      -10.568       14.149       23.044       17.456       19.577      531.026      304.714      383.257        0.078        0.061       11.610       17.177        2.189      349.663       30.254      860.241
08/03/2014  16:17:00       24.574      -29.730       12.505       25.183       30.944       22.869      634.171      957.561      522.984        0.188        0.106       38.572       19.399        0.253      349.603       30.153      860.230
08/03/2014  16:18:00       49.540      -15.193       23.340       62.274       52.490       38.482     3878.006     2755.181     1480.842        0.567        0.406       51.818       39.148        0.571      349.632       30.203      860.201
08/03/2014  16:19:00        3.121       -3.205       29.132       25.209       42.456       22.633      635.489     1802.478      512.234        0.191        0.148        4.474       25.092       31.458      349.673       30.273      860.209
08/03/2014  16:20:00       13.639       -2.953       43.941       23.465       46.564       26.412      550.626     2168.192      697.568        0.277        0.171       13.956       28.242        4.095      349.406       29.811      860.202
08/03/2014  16:21:00       44.866       -1.374       23.941       19.206       30.622       21.892      368.870      937.687      479.267        0.219        0.089       44.887       17.160        0.146      349.274       29.583      860.195
08/03/2014  16:22:00       34.281       32.908       29.608       27.778       28.165       19.276      771.596      793.261      371.551        0.254        0.097       47.520       16.131        0.115      349.165       29.393      860.186
08/03/2014  16:23:00       61.861       26.380       22.550       40.234       40.203       26.241     1618.745     1616.302      688.569        0.448        0.196       67.251       11.434        0.029      349.336       29.688      860.185
08/03/2014  16:24:00      137.000       78.623       18.420       54.730       40.682       41.178     2995.370     1655.018     1695.631        1.582        0.317      157.958       29.224        0.034      349.716       30.348      860.173
08/03/2014  16:25:00      154.994       83.950       54.226       78.660       56.673       47.664     6187.414     3211.852     2271.878        2.284        0.584      176.268       31.250        0.031      349.685       30.292      860.159
08/03/2014  16:26:00       55.305      123.500      124.338       71.716       62.351       73.405     5143.123     3887.599     5388.334        2.409        0.721      135.318       57.912        0.183      349.423       29.838      860.148
08/03/2014  16:27:00       61.606       72.648       73.404       50.693       65.534       51.286     2569.780     4294.661     2630.282        1.198        0.475       95.252       51.493        0.292      349.204       29.459      860.146
08/03/2014  16:28:00       69.773       26.630       27.552       34.829       39.682       25.519     1213.064     1574.646      651.214        0.489        0.172       74.682       17.020        0.052      349.223       29.493      860.139
08/03/2014  16:29:00      152.366       72.852       18.735       47.318       53.196       34.760     2238.970     2829.854     1208.253        1.757        0.314      168.887       21.986        0.017      349.640       30.214      860.135
08/03/2014  16:30:00       96.964       62.660       24.591       55.576       38.585       34.903     3088.683     1488.782     1218.237        0.986        0.290      115.448       20.684        0.032      349.700       30.321      860.128
08/03/2014  16:31:00      135.188       83.271       39.834       95.180       70.835       39.963     9059.217     5017.656     1597.060        2.123        0.784      158.776       32.093        0.041      349.707       30.331      860.115
08/03/2014  16:32:00       42.895       32.463       42.291       43.188       46.381       37.283     1865.209     2151.190     1390.015        0.504        0.270       53.794       27.935        0.270      349.467       29.916      860.101
08/03/2014  16:33:00      120.275       68.600       50.660       54.510       32.464       39.885     2971.348     1053.934     1590.833        1.368        0.281      138.463       31.850        0.053      349.535       30.035      860.104
08/03/2014  16:34:00       93.112       71.909       22.620       44.610       40.024       28.937     1990.085     1601.918      837.360        0.939        0.221      117.646       18.442        0.025      349.618       30.178      860.096
08/03/2014  16:35:00       81.612       62.184       11.930       40.014       28.808       28.731     1601.123      829.902      825.461        0.696        0.163      102.603       20.409        0.040      349.675       30.278      860.081
08/03/2014  16:36:00       34.528       45.392       11.205       50.366       27.999       27.762     2536.776      783.933      770.704        0.373        0.205       57.032       17.874        0.098      349.805       30.504      860.072
08/03/2014  16:37:00       26.044       37.215        3.801       46.623       35.035       22.421     2173.722     1227.458      502.704        0.299        0.195       45.423       18.399        0.164      349.731       30.374      860.067
08/03/2014  16:38:00       10.525       80.702      -11.957       25.029       24.293       12.647      626.455      590.170      159.958        0.407        0.069       81.386       12.719        0.024      349.666       30.260      860.053
08/03/2014  16:39:00       -3.743      120.119      -13.374       32.302       31.855       17.420     1043.447     1014.756      303.474        0.849        0.118      120.178       15.260        0.016      349.641       30.219      860.044
08/03/2014  16:40:00        4.402      139.634      -20.741       31.839       29.166       15.685     1013.712      850.650      246.008        1.103        0.106      139.703       15.101        0.012      349.642       30.218      860.034
08/03/2014  16:41:00       22.260      137.298      -16.799       26.437       34.580       25.580      698.932     1195.781      654.348        1.109        0.127      139.091       22.651        0.027      349.686       30.295      860.031
08/03/2014  16:42:00       19.486       74.061       -0.352       31.893       44.410       28.139     1017.160     1972.214      791.814        0.482        0.189       76.582       29.345        0.147      349.754       30.411      860.026
08/03/2014  16:43:00       -2.551       94.269        4.188       36.509       37.268       21.486     1332.941     1388.890      461.652        0.605        0.159       94.304       13.590        0.021      349.696       30.314      860.018
08/03/2014  16:44:00       46.441       46.488        1.219       29.168       27.675       20.644      850.800      765.922      426.187        0.318        0.102       65.711       19.707        0.090      349.710       30.335      860.012
08/03/2014  16:45:00       44.281       10.358       20.926       36.778       22.998       24.673     1352.593      528.897      608.768        0.250        0.125       45.476       23.604        0.269      349.223       29.494      860.006
08/03/2014  16:46:00       32.717      -27.880       12.963       32.645       55.971       40.065     1065.687     3132.801     1605.229        0.391        0.290       42.985       32.717        0.579      349.360       29.731      859.997
08/03/2014  16:47:00       73.505      -52.067       30.230       62.025       86.597       51.458     3847.148     7499.066     2647.945        1.151        0.700       90.077       63.112        0.491      349.776       30.451      859.996
08/03/2014  16:48:00       18.216      -14.504       21.814       28.297       42.895       30.449      800.731     1839.962      927.123        0.229        0.178       23.285       31.321        1.809      349.792       30.479      860.002
08/03/2014  16:49:00        9.361      -94.541       -6.381       21.810       32.595       21.628      475.655     1062.426      467.760        0.554        0.100       95.003       11.315        0.014      349.606       30.157      860.003
08/03/2014  16:50:00       21.529      -67.116        8.623       42.176       67.068       38.317     1778.845     4498.098     1468.180        0.639        0.387       70.485       29.728        0.178      349.753       30.414      859.991
08/03/2014  16:51:00       34.950       39.150       50.813       44.747       32.773       30.355     2002.306     1074.071      921.442        0.467        0.200       52.480       27.689        0.278      349.756       30.417      859.983
08/03/2014  16:52:00       18.898      -39.219        6.421       24.575       31.216       24.906      603.931      974.449      620.292        0.207        0.110       43.535       15.553        0.128      349.737       30.385      859.973
08/03/2014  16:53:00        8.814       14.550       44.399       25.581       47.305       28.759      654.368     2237.767      827.068        0.299        0.186       17.011       26.664        2.457      349.703       30.325      859.962
08/03/2014  16:54:00       -5.534       37.467       55.717       11.399       24.176       15.581      129.928      584.474      242.762        0.275        0.048       37.873       14.867        0.154      349.721       30.356      859.955
08/03/2014  16:55:00       19.454        9.308       15.142       14.504       17.562       18.692      210.376      308.414      349.394        0.078        0.043       21.566       13.925        0.417      349.413       29.822      859.951
08/03/2014  16:56:00       -6.727        6.587       10.491       14.407       10.640       12.117      207.548      113.202      146.824        0.033        0.023        9.415        9.234        0.962      349.495       29.966      859.946
08/03/2014  16:57:00      -57.526       12.854        4.344       20.995       10.434       13.123      440.790      108.874      172.207        0.211        0.036       58.945       11.057        0.035      349.676       30.281      859.942
08/03/2014  16:58:00       20.666       11.000       11.511       43.192       17.984       20.017     1865.530      323.437      400.664        0.163        0.129       23.411       20.932        0.799      349.355       29.720      859.942
08/03/2014  16:59:00       26.384       14.306        8.069       23.418       16.187       19.529      548.402      262.010      381.373        0.108        0.060       30.013       15.572        0.269      349.086       29.255      859.940
08/03/2014  17:00:00       39.366       24.539        9.853       29.631       31.580       21.556      878.010      997.294      464.679        0.229        0.117       46.388       18.172        0.153      349.257       29.552      859.938
08/03/2014  17:01:00       51.529       39.808       14.534       52.409       28.801       26.332     2746.653      829.470      693.386        0.436        0.213       65.115       22.374        0.118      349.782       30.462      859.935
08/03/2014  17:02:00       52.049       75.107       -2.017       34.170       35.166       30.263     1167.574     1236.622      915.856        0.584        0.166       91.379       23.933        0.069      349.741       30.391      859.936
08/03/2014  17:03:00       -4.569       20.566       -6.893       19.043       17.318        9.345      362.626      299.909       87.325        0.062        0.037       21.067       10.012        0.226      349.736       30.383      859.948
08/03/2014  17:04:00        6.289       36.487        0.048       26.288       52.295       13.649      691.045     2734.747      186.284        0.249        0.181       37.025       12.735        0.118      349.583       30.117      859.950
08/03/2014  17:05:00      -26.153       58.792       -2.789       23.012       21.295       22.346      529.553      453.456      499.335        0.282        0.074       64.347       15.041        0.055      349.721       30.354      859.951
08/03/2014  17:06:00       49.819       53.931       16.890       29.163       26.315       23.394      850.489      692.490      547.266        0.388        0.105       73.420       22.940        0.098      349.702       30.325      859.950
08/03/2014  17:07:00       50.622       26.783        5.505       13.354        9.564       19.674      178.323       91.480      387.064        0.198        0.033       57.271        8.805        0.024      349.623       30.186      859.953
08/03/2014  17:08:00       37.070        4.031        4.802       12.993       15.785       21.131      168.826      249.177      446.529        0.114        0.043       37.289        9.654        0.067      349.345       29.706      859.942
08/03/2014  17:09:00      -15.893        5.807        8.787       22.688        8.223       14.075      514.746       67.616      198.119        0.057        0.039       16.921        8.626        0.260      349.773       30.447      859.937
08/03/2014  17:10:00       -0.529        4.473       18.708       16.908       14.660       14.881      285.887      214.923      221.451        0.055        0.036        4.504        9.075        4.060      349.654       30.241      859.930
08/03/2014  17:11:00      -70.837      -31.746       -0.613       21.526       28.269       11.957      463.357      799.128      142.974        0.372        0.070       77.626        5.341        0.005      349.811       30.511      859.918
08/03/2014  17:12:00      -71.192      -65.517        4.520       22.671       28.325       19.391      513.970      802.286      376.010        0.554        0.085       96.751       12.252        0.016      349.761       30.429      859.917
08/03/2014  17:13:00      -30.101      -80.391       -4.469       33.736       31.148       18.391     1138.122      970.189      338.227        0.492        0.122       85.842       19.764        0.053      349.760       30.424      859.911
08/03/2014  17:14:00     -108.250      -36.215       -6.217       45.285       33.251       17.906     2050.764     1105.601      320.616        0.827        0.174      114.147       17.327        0.023      349.775       30.451      859.903
08/03/2014  17:15:00      -33.437      -43.243       -2.623       37.909       30.551       19.167     1437.108      933.351      367.360        0.287        0.137       54.663       10.376        0.036      349.880       30.632      859.909
08/03/2014  17:16:00     -122.982      -89.953        1.010       83.549       59.921       30.645     6980.443     3590.477      939.106        1.736        0.576      152.369       31.505        0.043      349.850       30.579      859.911
08/03/2014  17:17:00     -183.340     -100.350        0.591       72.299       76.375       41.829     5227.187     5833.084     1749.704        2.824        0.640      209.006       38.089        0.033      349.837       30.555      859.922
08/03/2014  17:18:00     -168.891     -115.724       -0.751      109.888       73.595       46.589    12075.280     5416.245     2170.540        3.079        0.983      204.735       49.824        0.059      349.815       30.518      859.929
08/03/2014  17:19:00     -227.423      -77.686       -7.062       96.673       90.622       42.652     9345.725     8212.372     1819.158        3.859        0.969      240.325       49.656        0.043      349.747       30.398      859.935
08/03/2014  17:20:00     -190.487       56.412       -3.326      182.266       99.308       60.492    33220.838     9862.046     3659.331        4.310        2.337      198.665       74.515        0.141      349.603       30.150      859.914
08/03/2014  17:21:00     -324.296        4.611      -20.582      168.706      112.309       64.907    28461.659    12613.290     4212.939        7.544        2.264      324.329       67.805        0.044      349.661       30.249      859.901
08/03/2014  17:22:00     -205.110     -134.792       -9.938      162.072       93.254       44.971    26267.369     8696.326     2022.354        4.865        1.849      245.437       62.311        0.064      349.709       30.335      859.921
08/03/2014  17:23:00     -376.437     -214.560      -24.032      248.321      125.920      102.321    61663.334    15855.915    10469.679       13.814        4.399      433.290      109.276        0.064      349.435       29.857      859.878
08/03/2014  17:24:00     -400.667     -261.655        0.188      221.385      201.577       96.536    49011.330    40633.216     9319.209       16.396        4.948      478.537      109.842        0.053      349.380       29.761      859.861
08/03/2014  17:25:00     -278.953     -120.598        5.186      200.662      147.342       85.657    40265.326    21709.714     7337.054        8.084        3.466      303.906       99.284        0.107      349.373       29.751      859.830
08/03/2014  17:26:00     -314.282     -123.425       -9.815      122.064      136.239       68.759    14899.665    18561.038     4727.842        7.614        1.909      337.650       62.377        0.034      349.424       29.836      859.842
08/03/2014  17:27:00     -222.501     -144.632        1.925      149.678      116.449       66.889    22403.393    13560.344     4474.108        5.543        2.022      265.377       78.759        0.088      349.415       29.822      859.825
08/03/2014  17:28:00     -501.680     -270.256      -13.982      208.189      182.750       90.503    43342.595    33397.434     8190.844       20.491        4.247      569.843      107.038        0.035      349.312       29.642      859.818
08/03/2014  17:29:00     -446.115     -328.284       -6.234      199.459      155.301       97.960    39784.054    24118.452     9596.066       19.015        3.675      553.886       97.863        0.031      349.283       29.594      859.797
08/03/2014  17:30:00     -218.408     -186.580        5.676      224.429      176.654      100.954    50368.389    31206.569    10191.762        8.714        4.588      287.253      120.967        0.177      349.326       29.670      859.779
08/03/2014  17:31:00     -223.790     -169.842       16.890      180.399      139.396       85.790    32543.969    19431.344     7359.956        6.926        2.967      280.942       89.406        0.101      349.366       29.738      859.805
08/03/2014  17:32:00     -389.019     -138.019       -6.409      224.328      163.425       87.117    50323.271    26707.810     7589.305       12.751        4.231      412.777      112.029        0.074      349.291       29.608      859.837
08/03/2014  17:33:00     -332.453     -147.521       -2.717      191.003      123.120       74.820    36482.289    15158.445     5597.968        9.476        2.862      363.714       83.184        0.052      349.292       29.610      859.835
08/03/2014  17:34:00     -333.124     -183.555       -9.320      136.165      121.935       68.573    18541.020    14868.127     4702.288        9.142        1.906      380.347       69.147        0.033      349.311       29.642      859.837
08/03/2014  17:35:00     -371.723      -90.157       -8.153      212.489      180.785       88.465    45151.645    32683.082     7826.087       11.600        4.283      382.500       91.099        0.057      349.278       29.586      859.848
08/03/2014  17:36:00     -436.142     -195.012      -30.078      192.524      144.297       82.473    37065.657    20821.499     6801.857       14.691        3.234      477.755       82.919        0.030      349.266       29.564      859.877
08/03/2014  17:37:00     -372.179     -120.963       -3.365      190.339      139.370       78.242    36228.919    19423.972     6121.878       10.746        3.089      391.343       87.995        0.051      349.245       29.529      859.897
08/03/2014  17:38:00     -269.974     -146.226       -5.460      129.079      113.707       53.473    16661.359    12929.237     2859.404        6.337        1.623      307.031       53.428        0.030      349.270       29.573      859.916
08/03/2014  17:39:00     -430.166     -205.668      -10.455      156.690      132.410       71.550    24551.650    17532.416     5119.377       13.732        2.360      476.804       67.545        0.020      349.254       29.546      859.931
08/03/2014  17:40:00     -254.475     -180.528       22.730      166.634      118.802       74.502    27766.962    14113.903     5550.553        7.264        2.372      312.006       73.989        0.056      349.175       29.407      859.944
08/03/2014  17:41:00     -403.656     -209.629      -20.447      213.213      143.306       84.344    45459.724    20536.674     7113.942       14.019        3.656      454.843       91.506        0.040      349.169       29.397      859.953
08/03/2014  17:42:00     -379.862     -237.123      -12.885      183.117      148.396       93.777    33531.871    22021.495     8794.033       13.251        3.217      447.798       96.954        0.047      349.148       29.360      859.971
08/03/2014  17:43:00     -187.511      -71.631       20.031      143.285       87.993       66.081    20530.567     7742.695     4366.634        3.666        1.632      200.727       70.029        0.122      349.159       29.380      859.951
08/03/2014  17:44:00     -340.811     -246.421       -1.704      221.053      148.509       93.362    48864.524    22055.030     8716.474       12.824        3.982      420.565      104.061        0.061      349.115       29.302      859.938
08/03/2014  17:45:00     -357.396     -254.574       -3.815      213.870      173.697       91.047    45740.238    30170.737     8289.519       13.836        4.210      438.794       99.815        0.052      349.100       29.276      859.933
08/03/2014  17:46:00     -358.492     -203.216       -6.693      205.015      140.117       75.630    42031.309    19632.738     5719.890       11.861        3.369      412.084       85.973        0.044      349.092       29.262      859.943
08/03/2014  17:47:00     -489.445     -283.044      -36.428      203.108      145.307       99.034    41252.759    21114.183     9807.713       19.657        3.609      565.394       81.187        0.021      349.027       29.149      859.939
08/03/2014  17:48:00     -303.792     -177.809       -0.546      205.025      159.698       90.698    42035.351    25503.586     8226.138        9.982        3.788      352.002       89.863        0.065      349.034       29.162      859.916
08/03/2014  17:49:00     -424.862     -131.482       -3.738      234.566      234.415       88.875    55021.113    54950.440     7898.773       15.782        5.894      444.742      109.691        0.061      349.032       29.158      859.916
08/03/2014  17:50:00     -335.942     -165.180        5.526      231.580      161.155       82.095    53629.372    25970.776     6739.561       11.324        4.317      374.355       81.850        0.048      349.034       29.164      859.906
08/03/2014  17:51:00     -373.521     -181.783      -11.852      240.249      172.577       81.394    57719.602    29782.923     6625.050       13.340        4.706      415.407      107.137        0.067      349.020       29.138      859.899
08/03/2014  17:52:00     -304.586     -158.934      -15.561      171.175      131.656       79.094    29300.724    17333.333     6255.826        8.557        2.644      343.559       75.429        0.048      349.020       29.139      859.905
08/03/2014  17:53:00     -515.702     -193.112      -35.169      192.279      185.336      101.112    36971.063    34349.479    10223.702       19.299        4.077      550.673      100.621        0.033      348.967       29.046      859.882
08/03/2014  17:54:00     -442.227     -160.953      -17.654      282.823      186.375       87.175    79988.944    34735.763     7599.544       17.203        6.116      470.607      104.852        0.050      348.952       29.022      859.855
08/03/2014  17:55:00     -387.559     -118.214      -12.538      161.137      174.252       84.829    25965.210    30363.861     7196.000       11.392        3.176      405.187       83.661        0.043      348.941       29.003      859.876
08/03/2014  17:56:00     -617.614     -139.174      -30.219      213.781      192.651       97.705    45702.262    37114.228     9546.237       24.703        4.618      633.101      104.799        0.027      348.916       28.958      859.850
08/03/2014  17:57:00     -419.999     -238.206       -0.720      210.762      208.689      106.870    44420.581    43551.066    11421.153       16.625        4.970      482.847      100.017        0.043      348.891       28.916      859.854
08/03/2014  17:58:00     -558.146     -311.560      -37.613      233.462      182.107       99.021    54504.445    33162.998     9805.167       25.372        4.874      639.215      118.582        0.034      348.840       28.826      859.866
08/03/2014  17:59:00     -500.912     -169.332      -44.602      166.162      143.234       87.338    27609.911    20515.893     7627.893       16.865        2.788      528.759       91.505        0.030      348.859       28.859      859.871
08/03/2014  18:00:00     -438.324     -126.441       -1.113      223.349      162.916       92.783    49884.997    26541.554     8608.741       14.656        4.252      456.196       98.535        0.047      348.834       28.815      859.860
08/03/2014  18:01:00     -430.535     -231.219      -15.042      181.961      169.537       83.239    33109.896    28742.756     6928.656       15.390        3.439      488.695       76.262        0.024      348.833       28.813      859.846
08/03/2014  18:02:00     -409.507     -197.060      -16.068      257.113      175.411      104.810    66107.238    30768.930    10985.135       15.730        5.393      454.454      126.549        0.078      348.822       28.795      859.830
08/03/2014  18:03:00     -384.936     -182.973      -17.976      231.253      155.255       89.350    53477.772    24104.080     7983.457       13.375        4.278      426.210      103.298        0.059      348.818       28.788      859.831
08/03/2014  18:04:00     -294.035     -137.512      -10.929      160.628      146.846       64.329    25801.297    21563.853     4138.161        7.848        2.575      324.601       72.189        0.049      348.846       28.836      859.847
08/03/2014  18:05:00     -438.214     -232.550       -9.010      182.257      163.467       81.224    33217.475    26721.581     6597.272       15.635        3.327      496.096       75.547        0.023      348.802       28.759      859.858
08/03/2014  18:06:00     -228.030     -205.308        5.577      163.049      132.266       72.258    26584.969    17494.283     5221.171        7.173        2.465      306.837       83.006        0.073      348.805       28.767      859.874
08/03/2014  18:07:00     -324.305     -248.782       13.124      246.940      160.140      102.854    60979.361    25644.890    10578.848       13.220        4.860      408.737      128.221        0.098      348.769       28.706      859.843
08/03/2014  18:08:00     -395.990     -179.563       -8.892      190.646      154.130       80.258    36345.841    23756.097     6441.288       12.782        3.327      434.800       76.900        0.031      348.745       28.663      859.858
08/03/2014  18:09:00     -374.624     -293.554       -4.520      182.182      167.592       82.850    33190.421    28087.121     6864.114       14.733        3.407      475.938       91.614        0.037      348.739       28.649      859.875
08/03/2014  18:10:00     -281.900     -162.399       22.460      189.858      139.803       87.140    36046.022    19544.772     7593.335        8.475        3.159      325.332       95.446        0.086      348.739       28.654      859.880
08/03/2014  18:11:00     -334.755     -199.492        6.960      226.646      194.351       94.543    51368.458    37772.446     8938.446       12.497        4.904      389.689      108.910        0.078      348.732       28.640      859.883
08/03/2014  18:12:00     -349.703     -249.890      -11.707      182.171      143.990       80.169    33186.290    20733.220     6427.009       12.260        3.017      429.811       89.549        0.043      348.738       28.650      859.888
08/03/2014  18:13:00     -290.776     -179.304      -10.943      192.559      123.365       78.838    37079.135    15218.989     6215.407        8.766        2.926      341.615       82.867        0.059      348.769       28.704      859.907
08/03/2014  18:14:00     -199.818     -105.783        2.302      167.348      113.267       55.556    28005.187    12829.413     3086.458        4.751        2.196      226.091       58.312        0.067      348.775       28.714      859.918
08/03/2014  18:15:00     -202.023     -118.589       -7.908      180.632      130.032       75.114    32627.861    16908.228     5642.060        5.505        2.759      234.258       83.420        0.127      348.769       28.703      859.901
08/03/2014  18:16:00     -350.165     -111.118      -15.138      175.057      167.109       76.055    30644.969    27925.419     5784.395        9.976        3.218      367.373       71.526        0.038      348.731       28.639      859.916
08/03/2014  18:17:00     -286.426     -145.934        6.189      190.971      137.290       70.852    36470.022    18848.444     5020.014        8.184        3.017      321.460       86.130        0.072      348.738       28.651      859.929
08/03/2014  18:18:00     -356.967     -163.505       -9.362      194.094      155.537       89.243    37672.592    24191.808     7964.261       11.202        3.491      392.632       96.994        0.061      348.703       28.591      859.924
08/03/2014  18:19:00     -303.528     -130.406       -8.214      201.904      184.793      109.745    40765.078    34148.444    12043.868        9.806        4.348      330.356      114.553        0.120      348.684       28.557      859.932
08/03/2014  18:20:00     -351.256      -68.958      -18.110      245.302      175.153       94.705    60173.079    30678.460     8969.069       11.412        4.991      357.961      117.190        0.107      348.684       28.559      859.941
08/03/2014  18:21:00     -242.389     -156.520        0.524      185.237      125.053       80.823    34312.570    15638.216     6532.320        6.986        2.824      288.532       92.698        0.103      348.710       28.602      859.956
08/03/2014  18:22:00     -259.839     -125.531        7.070      194.175      142.353       89.942    37703.761    20264.426     8089.508        7.468        3.303      288.573      106.067        0.135      348.705       28.595      859.964
08/03/2014  18:23:00     -185.058     -125.864      -19.436      115.672      113.987       60.761    13379.909    12993.052     3691.864        4.026        1.503      223.804       55.888        0.062      348.699       28.584      859.971
08/03/2014  18:24:00     -271.854      -89.265        2.130      198.526      135.343       83.053    39412.536    18317.663     6897.851        7.324        3.231      286.135      103.271        0.130      348.697       28.580      859.934
08/03/2014  18:25:00     -366.921     -146.012        7.314      209.499      201.800      106.950    43889.759    40723.231    11438.223       12.601        4.803      394.906      116.129        0.086      348.691       28.571      859.927
08/03/2014  18:26:00     -344.180     -163.626      -12.379      224.984      193.036       84.446    50617.586    37262.885     7131.124       12.018        4.751      381.095       95.858        0.063      348.688       28.564      859.939
08/03/2014  18:27:00     -430.519     -138.262      -17.216      285.770      210.927       96.923    81664.612    44489.994     9393.977       17.013        6.777      452.176      101.855        0.051      348.645       28.489      859.955
08/03/2014  18:28:00     -304.695     -162.561       -2.536      215.170      157.787       94.468    46297.992    24896.649     8924.289        9.968        4.006      345.348      106.368        0.095      348.655       28.507      859.965
08/03/2014  18:29:00     -340.062     -127.281      -10.156      218.844      149.108       76.019    47892.867    22233.317     5778.871       10.391        3.795      363.101       93.540        0.066      348.666       28.528      859.985
08/03/2014  18:30:00     -484.066     -104.299      -21.431      171.340      190.683       75.821    29357.333    36359.927     5748.763       15.855        3.573      495.175       75.646        0.023      348.604       28.419      859.981
08/03/2014  18:31:00     -208.784      -88.439      -11.834      146.840       94.449       63.794    21562.120     8920.657     4069.611        4.305        1.728      226.743       70.346        0.096      348.651       28.499      859.959
08/03/2014  18:32:00     -263.303     -165.000       -2.984      120.038       96.799       56.827    14409.230     9370.070     3229.268        6.178        1.350      310.731       43.433        0.020      348.652       28.501      859.965
08/03/2014  18:33:00     -221.341     -136.222      -10.897      164.794      125.231       74.516    27156.930    15682.831     5552.686        5.802        2.420      259.901       65.399        0.063      348.648       28.494      859.961
08/03/2014  18:34:00     -359.990      -81.662      -11.950      155.461      114.656       70.898    24168.118    13145.936     5026.493        8.936        2.117      369.136       60.176        0.027      348.638       28.477      859.950
08/03/2014  18:35:00     -349.175     -165.527      -10.194      172.899      143.139       80.980    29894.186    20488.857     6557.808       10.317        2.847      386.422       87.149        0.051      348.623       28.449      859.959
08/03/2014  18:36:00     -255.214     -136.467       -5.342      131.218      115.280       69.145    17218.095    13289.460     4780.965        5.953        1.764      289.409       59.329        0.042      348.639       28.479      859.958
08/03/2014  18:37:00     -199.774      -26.159       16.071      173.982      111.721       76.163    30269.806    12481.535     5800.767        4.469        2.428      201.479       85.440        0.180      348.656       28.509      859.962
08/03/2014  18:38:00     -321.788      -99.360       -9.302      224.242      120.983       75.476    50284.324    14636.960     5696.608        9.205        3.531      336.778       92.574        0.076      348.628       28.460      860.000
08/03/2014  18:39:00     -426.143      -63.628       -8.795      225.337      144.282       88.259    50776.852    20817.268     7789.664       13.254        3.969      430.866      107.487        0.062      348.583       28.380      860.007
08/03/2014  18:40:00     -369.002     -133.659       -1.811      197.673      174.610       86.106    39074.422    30488.544     7414.176       11.549        3.849      392.463      105.849        0.073      348.575       28.367      860.004
08/03/2014  18:41:00     -190.341     -123.973       10.854      147.852      128.197       73.080    21860.163    16434.394     5340.669        4.767        2.182      227.155       85.483        0.142      348.612       28.431      860.040
08/03/2014  18:42:00     -222.491     -137.320        3.211      134.170      138.531       68.977    18001.568    19190.854     4757.786        5.515        2.098      261.456       70.500        0.073      348.594       28.402      860.018
08/03/2014  18:43:00     -195.146      -79.161       -2.745       85.074       73.447       44.253     7237.512     5394.422     1958.336        2.947        0.730      210.590       30.482        0.021      348.606       28.423      860.020
08/03/2014  18:44:00     -258.486      -47.810      -11.181       96.145       77.686       46.104     9243.944     6035.133     2125.608        4.331        0.870      262.870       50.832        0.037      348.581       28.377      860.027
08/03/2014  18:45:00     -269.357       33.172       20.695      141.871      118.157       70.725    20127.245    13961.184     5002.034        5.658        1.955      271.391       75.273        0.077      348.560       28.342      860.002
08/03/2014  18:46:00     -357.500      -66.596       -8.045      225.822      121.167       85.582    50995.577    14681.478     7324.196       10.264        3.650      363.650       94.821        0.068      348.551       28.326      859.998
08/03/2014  18:47:00     -298.180     -151.968        3.385      197.703      163.922       97.077    39086.308    26870.396     9423.911        9.368        3.769      334.672       97.290        0.085      348.524       28.279      859.981
08/03/2014  18:48:00     -337.234      -83.224       -7.903      236.014      121.473       89.723    55702.620    14755.582     8050.178        9.960        3.925      347.351       93.624        0.073      348.520       28.272      859.998
08/03/2014  18:49:00     -401.020     -217.756       -6.610      268.605      192.135       87.975    72148.838    36915.856     7739.573       16.252        5.840      456.327      102.050        0.050      348.504       28.245      859.985
08/03/2014  18:50:00     -417.313      -93.243      -36.936      232.620      122.096       85.683    54112.125    14907.412     7341.597       13.027        3.818      427.603       83.651        0.038      348.498       28.234      860.000
08/03/2014  18:51:00     -327.149      -43.912      -16.288      215.895      113.071       73.663    46610.666    12785.020     5426.165        8.701        3.241      330.083       96.978        0.086      348.491       28.224      860.014
08/03/2014  18:52:00     -280.092      -51.133      -12.311      147.353      111.415       61.509    21713.010    12413.372     3783.392        5.956        1.895      284.722       64.861        0.052      348.492       28.225      860.010
08/03/2014  18:53:00     -276.582      -59.277      -14.842      103.244       78.744       60.709    10659.245     6200.654     3685.578        5.038        1.027      282.862       49.070        0.030      348.511       28.257      860.017
08/03/2014  18:54:00     -257.581     -170.429        7.280      212.136      182.707       93.776    45001.608    33381.826     8793.956        9.129        4.359      308.859      110.133        0.127      348.469       28.185      860.009
08/03/2014  18:55:00     -383.944     -154.732      -28.270      178.560      148.947       94.446    31883.670    22185.195     8919.997       11.756        3.149      413.950       86.733        0.044      348.448       28.151      860.017
08/03/2014  18:56:00     -278.029     -109.185        5.754      178.204      137.043       76.550    31756.596    18780.802     5859.943        7.281        2.820      298.700       83.514        0.078      348.449       28.152      860.039
08/03/2014  18:57:00     -169.768      -93.965        0.352      131.760      116.877       64.914    17360.703    13660.231     4213.885        3.644        1.762      194.038       68.329        0.124      348.449       28.151      860.044
08/03/2014  18:58:00     -164.204     -123.733       14.592      125.417       87.451       59.957    15729.363     7647.663     3594.808        3.472        1.349      205.603       54.166        0.069      348.457       28.165      860.040
08/03/2014  18:59:00     -141.694      -64.570        8.187       97.599       90.989       56.754     9525.612     8279.051     3221.033        2.267        1.051      155.713       50.490        0.105      348.436       28.130      860.048
08/03/2014  19:00:00     -223.368      -43.630       -1.254      121.393      109.161       54.720    14736.239    11916.198     2994.234        4.072        1.482      227.590       63.575        0.078      348.421       28.102      860.055
08/03/2014  19:01:00     -167.564      -84.141        1.980      165.653      123.751       71.221    27440.933    15314.190     5072.472        4.148        2.391      187.503       97.717        0.272      348.410       28.084      860.033
08/03/2014  19:02:00     -189.662      -85.339        0.595      107.270       85.808       59.674    11506.890     7363.085     3560.964        3.284        1.122      207.977       57.941        0.078      348.410       28.081      860.052
08/03/2014  19:03:00     -406.346        4.061      -13.651      187.821      111.477       85.435    35276.779    12427.185     7299.204       11.015        2.750      406.367       81.007        0.040      348.342       27.964      860.052
08/03/2014  19:04:00     -306.545      -91.205        1.209      209.684      148.871       88.480    43967.505    22162.538     7828.758        8.811        3.698      319.826      103.726        0.105      348.322       27.929      860.041
08/03/2014  19:05:00     -334.392      -84.231       -7.128      178.746      145.141       73.849    31950.267    21065.964     5453.721        8.871        2.923      344.838       83.956        0.059      348.315       27.918      860.049
08/03/2014  19:06:00     -365.894      -53.936       -5.494      141.998      165.045       75.423    20163.308    27239.874     5688.602        9.494        2.655      369.848       78.931        0.046      348.289       27.873      860.050
08/03/2014  19:07:00     -285.439        4.950      -10.085      146.468      106.426       74.346    21452.764    11326.567     5527.363        5.995        1.915      285.482       79.330        0.077      348.304       27.898      860.035
08/03/2014  19:08:00     -193.360     -102.274       10.644      145.509      133.956       72.653    21173.009    17944.258     5278.501        4.617        2.220      218.741       83.277        0.145      348.293       27.882      860.047
08/03/2014  19:09:00     -224.206      -80.101       11.586      194.364      122.681       77.822    37777.236    15050.585     6056.268        5.784        2.944      238.085      102.836        0.187      348.290       27.875      860.048
08/03/2014  19:10:00     -323.244     -125.914       -8.407      120.512      130.045       72.484    14523.148    16911.731     5253.902        7.854        1.834      346.902       62.114        0.032      348.267       27.832      860.066
08/03/2014  19:11:00     -432.237      -31.800      -23.168      180.413      143.904       91.196    32548.943    20708.498     8316.675       12.496        3.079      433.405       98.813        0.052      348.231       27.773      860.042
08/03/2014  19:12:00     -219.926      -91.295        0.020      101.590       89.477       67.496    10320.611     8006.066     4555.706        3.979        1.144      238.122       54.131        0.052      348.250       27.806      860.054
08/03/2014  19:13:00     -321.180     -119.913        3.509      125.732      123.559       68.154    15808.501    15266.736     4644.924        7.663        1.786      342.835       57.970        0.029      348.234       27.777      860.049
08/03/2014  19:14:00     -429.589      -66.708       -0.439      185.418      161.222       85.310    34379.825    25992.567     7277.763       12.831        3.383      434.737       80.416        0.034      348.206       27.731      860.044
08/03/2014  19:15:00     -409.434     -117.397      -16.337      200.897      152.474       87.013    40359.633    23248.250     7571.330       12.642        3.559      425.932      100.486        0.056      348.210       27.739      860.048
08/03/2014  19:16:00     -455.520     -108.059      -14.665      186.287      195.316       82.680    34702.686    38148.399     6835.915       14.952        3.984      468.161       81.560        0.030      348.185       27.694      860.060
08/03/2014  19:17:00     -361.423     -117.193      -14.433      205.038      157.780       80.375    42040.460    24894.590     6460.197       10.897        3.670      379.948       98.387        0.067      348.179       27.684      860.068
08/03/2014  19:18:00     -313.151      -87.798      -20.616      184.200      112.982       83.768    33929.643    12764.971     7017.019        7.994        2.686      325.226       84.807        0.068      348.163       27.655      860.093
08/03/2014  19:19:00     -346.502      -79.844        6.494      158.878      173.137       84.652    25242.144    29976.583     7165.934        9.442        3.119      355.582       83.367        0.055      348.127       27.593      860.075
08/03/2014  19:20:00     -226.627     -101.435        4.110      153.547      129.819       72.573    23576.737    16852.984     5266.845        5.367        2.285      248.292       83.164        0.112      348.130       27.598      860.082
08/03/2014  19:21:00     -300.270      -93.524      -10.931      223.390      139.423       73.729    49902.979    19438.864     5435.931        8.689        3.739      314.498      100.565        0.102      348.119       27.578      860.083
08/03/2014  19:22:00     -249.287     -169.354       -5.496      166.948      143.067       79.473    27871.679    20468.063     6315.998        7.274        2.733      301.371       80.311        0.071      348.121       27.583      860.077
08/03/2014  19:23:00     -265.293      -77.199        1.807      140.240      129.664       64.943    19667.229    16812.660     4217.603        5.851        2.035      276.297       56.549        0.042      348.115       27.571      860.087
08/03/2014  19:24:00     -479.747     -122.691      -12.796      237.402      174.873       91.860    56359.828    30580.513     8438.217       17.036        4.769      495.187      100.602        0.041      348.077       27.505      860.087
08/03/2014  19:25:00     -329.288      -67.761       -2.493      168.602      140.409       77.176    28426.530    19714.577     5956.206        8.355        2.705      336.187       82.142        0.060      348.087       27.524      860.086
08/03/2014  19:26:00     -357.033     -117.016       -7.603      244.697      138.589       99.281    59876.611    19206.801     9856.659       11.506        4.447      375.719      126.798        0.114      348.069       27.493      860.076
08/03/2014  19:27:00     -393.610      -95.966       -4.277      236.801      189.520       88.413    56074.649    35917.934     7816.866       13.196        4.990      405.140      106.737        0.069      348.038       27.438      860.084
08/03/2014  19:28:00     -423.610     -161.780       -2.760      174.883      150.712       73.810    30584.152    22714.220     5447.884       13.217        2.937      453.451       85.551        0.036      348.046       27.452      860.110
08/03/2014  19:29:00     -402.259     -107.064      -10.253      169.086      133.681       65.316    28589.929    17870.625     4266.208       11.204        2.536      416.263       73.750        0.031      348.052       27.461      860.113
08/03/2014  19:30:00     -328.827     -112.475      -24.725      159.384      116.588       57.054    25403.355    13592.773     3255.200        8.181        2.113      347.531       60.639        0.030      348.030       27.425      860.118
08/03/2014  19:31:00     -367.100     -208.591      -10.553      168.569      120.755       82.127    28415.502    14581.801     6744.766       11.405        2.487      422.223       87.643        0.043      348.003       27.380      860.123
08/03/2014  19:32:00     -302.137      -94.012      -16.376      115.916      113.624       64.697    13436.500    12910.351     4185.644        6.546        1.527      316.426       47.164        0.022      348.004       27.380      860.131
08/03/2014  19:33:00     -277.143     -117.588       -9.083      151.448      135.903       65.625    22936.637    18469.544     4306.608        6.821        2.286      301.057       74.494        0.061      348.010       27.391      860.166
08/03/2014  19:34:00     -206.625      -61.906       -2.244      150.290      114.554       66.113    22587.185    13122.697     4370.956        4.330        2.004      215.700       74.703        0.120      348.026       27.420      860.174
08/03/2014  19:35:00     -204.480     -130.434       -7.453      147.322      103.536       51.680    21703.625    10719.719     2670.856        4.698        1.755      242.539       50.522        0.043      348.033       27.430      860.196
08/03/2014  19:36:00     -147.167      -61.487        9.054      123.815       91.784       51.601    15330.157     8424.290     2662.620        2.596        1.321      159.495       70.334        0.194      348.034       27.433      860.208
08/03/2014  19:37:00     -189.543      -78.281      -16.206      130.822      129.490       54.863    17114.516    16767.779     3009.906        3.960        1.845      205.072       55.450        0.073      348.014       27.397      860.226
08/03/2014  19:38:00     -243.275     -145.365       -1.091      164.759      126.035       59.089    27145.588    15884.732     3491.494        6.341        2.326      283.397       61.334        0.047      347.984       27.347      860.226
08/03/2014  19:39:00     -309.997     -111.146       -8.562      152.894      112.488       78.970    23376.514    12653.548     6236.243        7.539        2.113      329.320       81.391        0.061      347.974       27.330      860.226
08/03/2014  19:40:00     -367.076     -275.226      -12.747      249.679      174.395      102.548    62339.821    30413.656    10516.166       15.694        5.163      458.796      124.707        0.074      347.978       27.338      860.204
08/03/2014  19:41:00     -267.137     -113.535        3.539      185.188      116.900       83.640    34294.555    13665.588     6995.644        6.960        2.748      290.263      103.366        0.127      347.981       27.343      860.219
08/03/2014  19:42:00     -336.858     -174.055       -8.444      212.486      132.338       95.115    45150.257    17513.252     9046.875       10.776        3.586      379.168      113.612        0.090      347.967       27.318      860.232
08/03/2014  19:43:00     -395.455     -159.975       -3.309      172.390      123.816       73.640    29718.268    15330.513     5422.913       11.622        2.524      426.588       81.326        0.036      347.943       27.277      860.245
08/03/2014  19:44:00     -347.229      -42.745       -2.782      178.303      149.819       87.245    31791.899    22445.751     7611.683        9.211        3.092      349.850       92.400        0.070      347.953       27.293      860.241
08/03/2014  19:45:00     -408.634     -107.204       -0.154      199.225      140.775       77.779    39690.520    19817.708     6049.592       12.200        3.278      422.462       81.172        0.037      347.936       27.263      860.251
08/03/2014  19:46:00     -422.325     -155.272      -11.776      225.572      144.177       86.444    50882.523    20786.977     7472.526       14.086        3.957      449.964      104.295        0.054      347.956       27.298      860.226
08/03/2014  19:47:00     -337.154      -63.476      -13.852      224.020      134.198       76.609    50185.010    18008.997     5868.979        9.596        3.703      343.078       91.061        0.070      347.941       27.272      860.237
08/03/2014  19:48:00     -332.925      -56.351       -0.539      247.664      142.053       76.720    61337.657    20178.953     5886.000       10.069        4.370      337.660       94.306        0.078      347.930       27.252      860.245
08/03/2014  19:49:00     -207.295      -98.930        7.733      156.399      135.566       71.429    24460.801    18378.197     5102.146        5.037        2.397      229.692       79.842        0.121      347.911       27.220      860.275
08/03/2014  19:50:00     -357.031      -84.028      -13.072      152.992      122.660       76.457    23406.674    15045.490     5845.661        8.949        2.215      366.786       78.804        0.046      347.895       27.191      860.284
08/03/2014  19:51:00     -222.105     -137.513       11.965      167.226      114.658       81.399    27964.450    13146.515     6625.807        5.805        2.387      261.229       92.417        0.125      347.899       27.199      860.269
08/03/2014  19:52:00     -339.798     -111.353      -11.308      187.463      144.750       72.492    35142.507    20952.704     5255.033        9.466        3.068      357.578       83.769        0.055      347.896       27.194      860.304
08/03/2014  19:53:00     -393.824     -104.707      -27.116      136.513      143.840       71.101    18635.856    20689.953     5055.284       10.558        2.219      407.505       73.553        0.033      347.899       27.198      860.306
08/03/2014  19:54:00     -369.244     -107.413       -5.239      160.937      165.178       81.010    25900.687    27283.789     6562.577       10.381        2.987      384.550       87.040        0.051      347.895       27.193      860.291
08/03/2014  19:55:00     -322.058     -141.514       -9.061      196.155      151.633       89.869    38476.790    22992.651     8076.480        9.667        3.477      351.778       98.228        0.078      347.887       27.178      860.290
08/03/2014  19:56:00     -399.962      -81.236       -3.281      151.482      110.128       76.574    22946.851    12128.164     5863.631       10.375        2.047      408.128       77.455        0.036      347.857       27.124      860.320
08/03/2014  19:57:00     -419.665     -106.750      -41.425      207.676      169.841       79.333    43129.452    28845.945     6293.661       13.373        3.913      433.029      104.144        0.058      347.852       27.118      860.351
08/03/2014  19:58:00     -305.548       -6.029      -20.451      180.510      129.445       82.006    32583.786    16756.135     6725.041        7.493        2.803      305.608       90.441        0.088      347.822       27.066      860.347
08/03/2014  19:59:00     -375.422      -50.556      -16.824      195.466      136.061       67.380    38206.987    18512.566     4540.094       10.251        3.063      378.811       89.821        0.056      347.795       27.019      860.329
08/03/2014  20:00:00     -311.088     -112.037        8.082      145.930      130.582       66.570    21295.576    17051.765     4431.570        7.608        2.139      330.648       70.231        0.045      347.781       26.995      860.318
08/03/2014  20:01:00     -298.916      -66.142      -22.517      137.582      122.592       59.239    18928.818    15028.800     3509.204        6.584        1.873      306.146       62.548        0.042      347.783       27.001      860.345
08/03/2014  20:02:00     -302.982     -129.582      -17.109      202.072      119.076       78.815    40833.019    14179.071     6211.797        8.504        3.061      329.529       89.552        0.074      347.780       26.995      860.342
08/03/2014  20:03:00     -316.337      -66.979        6.157      185.090      145.654       87.511    34258.204    21215.132     7658.160        8.385        3.157      323.351       88.744        0.075      347.763       26.964      860.334
08/03/2014  20:04:00     -356.231      -75.358      -15.413      199.976      129.023       76.769    39990.266    16646.897     5893.490        9.766        3.127      364.115       94.791        0.068      347.749       26.942      860.370
08/03/2014  20:05:00     -206.719      -69.020        9.324      144.420      111.347       64.016    20857.179    12398.186     4098.005        4.246        1.868      217.937       68.480        0.099      347.762       26.966      860.378
08/03/2014  20:06:00     -257.048      -16.343       -7.669      153.877       87.600       60.148    23678.233     7673.840     3617.734        5.068        1.748      257.567       59.357        0.053      347.745       26.934      860.376
08/03/2014  20:07:00     -324.908     -127.109      -16.996      230.796      147.733       85.828    53267.006    21824.954     7366.375       10.222        4.123      348.887       92.898        0.071      347.715       26.882      860.342
08/03/2014  20:08:00     -348.030      -86.327       -0.372      229.887      158.894       80.528    52848.171    25247.282     6484.736       10.656        4.229      358.576      101.753        0.081      347.715       26.881      860.348
08/03/2014  20:09:00     -290.251      -28.995       -7.265      184.863      119.966       73.343    34174.315    14391.841     5379.198        6.953        2.697      291.695       87.785        0.091      347.711       26.875      860.364
08/03/2014  20:10:00     -331.472      -68.996       -3.075      219.120      124.791       80.449    48013.726    15572.787     6472.079        9.234        3.503      338.576      102.383        0.091      347.698       26.853      860.371
08/03/2014  20:11:00     -470.561     -103.744      -36.452      187.295      171.142       84.006    35079.470    29289.415     7057.047       15.246        3.571      481.862       87.336        0.033      347.709       26.872      860.361
08/03/2014  20:12:00     -273.278      -85.358      -13.381      138.748      125.686       72.336    19251.021    15796.910     5232.549        6.120        2.014      286.298       76.850        0.072      347.694       26.846      860.379
08/03/2014  20:13:00     -459.391      -69.031      -16.056      149.183      149.419       77.790    22255.684    22326.007     6051.291       13.334        2.532      464.549       77.336        0.028      347.691       26.839      860.416
08/03/2014  20:14:00     -287.423      -53.386       -0.160      137.578      115.442       72.600    18927.748    13326.825     5270.817        6.149        1.876      292.339       69.479        0.056      347.672       26.807      860.436
08/03/2014  20:15:00     -251.884      -38.842       -3.915      128.444      103.206       58.968    16497.745    10651.400     3477.183        4.779        1.531      254.861       63.326        0.062      347.673       26.810      860.446
08/03/2014  20:16:00     -247.792      -58.559        5.736      129.325      152.299       70.966    16725.053    23194.985     5036.105        5.490        2.248      254.618       72.479        0.081      347.665       26.794      860.459
08/03/2014  20:17:00     -383.945      -78.287      -25.660      118.324      116.734       61.584    14000.573    13626.761     3792.545        9.280        1.571      391.845       55.431        0.020      347.679       26.818      860.465
08/03/2014  20:18:00     -327.256      -82.137      -15.901      152.165      136.275       62.145    23154.220    18570.827     3861.980        7.983        2.279      337.407       52.619        0.024      347.672       26.806      860.480
08/03/2014  20:19:00     -375.433      -37.154       -9.325      146.767      139.803       71.964    21540.593    19544.832     5178.747        9.433        2.313      377.267       71.996        0.036      347.690       26.838      860.494
08/03/2014  20:20:00     -252.662      -51.416      -12.145      125.306      108.234       66.314    15701.621    11714.525     4397.610        4.921        1.591      257.840       56.061        0.047      347.674       26.812      860.487
08/03/2014  20:21:00     -305.018      -31.022      -16.670      138.507      153.192       66.905    19184.092    23467.729     4476.323        7.069        2.356      306.591       63.320        0.043      347.657       26.782      860.506
08/03/2014  20:22:00     -306.772      -47.115      -14.971      140.475      118.060       69.434    19733.108    13938.148     4821.074        6.751        1.925      310.369       68.642        0.049      347.641       26.753      860.510
08/03/2014  20:23:00     -448.004     -122.805      -13.363      167.404      126.242       75.884    28023.949    15937.117     5758.418       13.283        2.486      464.531       78.635        0.029      347.608       26.698      860.504
08/03/2014  20:24:00     -451.362     -151.293       -6.766      157.634      121.659       76.381    24848.407    14800.903     5833.995       13.606        2.274      476.043       68.881        0.021      347.607       26.695      860.524
08/03/2014  20:25:00     -412.746      -60.232      -27.097      107.769      124.744       59.639    11614.107    15561.027     3556.847       10.272        1.537      417.118       54.050        0.017      347.600       26.684      860.545
08/03/2014  20:26:00     -348.617        8.928      -23.369      146.525      124.520       60.240    21469.644    15505.314     3628.916        8.137        2.030      348.732       60.660        0.030      347.582       26.653      860.549
08/03/2014  20:27:00     -308.283      -62.103       -1.828      153.512      115.760       67.618    23566.023    13400.271     4572.233        7.021        2.077      314.476       74.235        0.056      347.547       26.592      860.561
08/03/2014  20:28:00     -412.941      -95.753      -10.810      160.061      141.649       67.018    25619.606    20064.305     4491.402       11.498        2.509      423.897       71.519        0.028      347.550       26.597      860.594
08/03/2014  20:29:00     -400.301      -86.411      -29.685      152.119      114.581       79.024    23140.074    13128.890     6244.862       10.554        2.126      409.521       79.347        0.038      347.572       26.637      860.593
08/03/2014  20:30:00     -262.460      -71.066      -13.768      113.090      102.157       53.748    12789.329    10436.035     2888.867        5.011        1.306      271.912       51.997        0.037      347.577       26.645      860.607
08/03/2014  20:31:00     -215.286      -42.871       -1.029      107.797      104.060       52.678    11620.156    10828.440     2775.021        3.670        1.261      219.513       52.630        0.057      347.570       26.635      860.613
08/03/2014  20:32:00     -266.457       32.583      -14.984      125.313      137.959       68.410    15703.333    19032.552     4679.872        5.584        1.971      268.442       64.544        0.058      347.561       26.616      860.616
08/03/2014  20:33:00     -368.865      -61.432      -24.772      151.292      140.746       70.050    22889.173    19809.346     4906.953        9.402        2.380      373.946       70.538        0.036      347.575       26.640      860.631
08/03/2014  20:34:00     -291.376      -51.433      -14.471       99.574      100.406       56.150     9914.914    10081.437     3152.823        5.545        1.157      295.881       52.845        0.032      347.560       26.615      860.644
08/03/2014  20:35:00     -216.587      -42.673       -0.640      119.430       97.452       52.790    14263.576     9496.870     2786.815        3.763        1.327      220.751       64.129        0.084      347.560       26.617      860.659
08/03/2014  20:36:00     -325.702       26.194      -22.014      156.248       98.278       44.082    24413.356     9658.528     1943.248        7.163        1.801      326.754       53.202        0.027      347.550       26.598      860.676
08/03/2014  20:37:00     -268.957       17.835      -23.594      132.423      107.039       61.175    17535.777    11457.387     3742.414        5.297        1.637      269.548       65.078        0.058      347.533       26.567      860.675
08/03/2014  20:38:00     -213.323      -70.444      -17.456       98.175      108.661       55.130     9638.264    11807.271     3039.335        3.762        1.224      224.654       49.837        0.049      347.511       26.533      860.685
08/03/2014  20:39:00     -332.744       46.636      -22.716      113.500       91.042       51.531    12882.286     8288.681     2655.421        6.861        1.191      335.996       41.271        0.015      347.520       26.545      860.708
08/03/2014  20:40:00     -328.103       -1.686      -17.168      119.448       98.839       61.765    14267.749     9769.180     3814.929        6.789        1.393      328.107       58.103        0.031      347.491       26.496      860.729
08/03/2014  20:41:00     -304.089      -60.269       -1.386      139.168       92.738       59.000    19367.661     8600.299     3481.034        6.377        1.572      310.004       68.509        0.049      347.474       26.466      860.738
08/03/2014  20:42:00     -320.212      -17.115      -11.986       88.170       82.623       52.757     7773.902     6826.566     2783.265        6.017        0.869      320.669       45.790        0.020      347.475       26.468      860.767
08/03/2014  20:43:00     -279.329        5.672      -20.150      117.549       95.502       48.183    13817.870     9120.569     2321.564        5.186        1.263      279.387       48.715        0.030      347.474       26.464      860.799
08/03/2014  20:44:00     -293.585      -87.448      -22.033      135.174      135.223       56.382    18271.901    18285.255     3178.912        6.702        1.987      306.332       48.482        0.025      347.483       26.482      860.803
08/03/2014  20:45:00     -253.043       -3.472      -17.558       93.244      102.686       46.171     8694.514    10544.352     2131.782        4.286        1.069      253.066       44.479        0.031      347.464       26.447      860.825
08/03/2014  20:46:00     -274.548      -45.498      -19.215       74.786       75.044       48.559     5592.903     5631.652     2357.970        4.570        0.679      278.292       42.138        0.023      347.460       26.439      860.851
08/03/2014  20:47:00     -139.659      -16.332        1.630       62.749       72.396       40.690     3937.389     5241.192     1655.714        1.530        0.542      140.611       39.403        0.079      347.459       26.442      860.859
08/03/2014  20:48:00      -75.560       29.953      -10.802       59.347       61.605       28.312     3522.060     3795.180      801.561        0.742        0.406       81.280       26.792        0.109      347.429       26.392      860.856
08/03/2014  20:49:00     -205.918     -106.007       -4.508      146.937       99.139       48.100    21590.401     9828.488     2313.600        4.369        1.687      231.603       55.329        0.057      347.415       26.365      860.848
08/03/2014  20:50:00     -267.746     -105.449      -18.046      108.488       82.816       54.112    11769.572     6858.494     2928.093        5.234        1.078      287.763       54.926        0.036      347.394       26.327      860.858
08/03/2014  20:51:00     -303.845      -76.011       -3.750      123.593       95.412       60.019    15275.135     9103.453     3602.319        6.304        1.399      313.209       59.489        0.036      347.389       26.318      860.869
08/03/2014  20:52:00     -263.348      -58.116      -15.914      130.419       73.662       47.036    17009.105     5426.031     2212.404        4.881        1.232      269.685       51.747        0.037      347.385       26.313      860.872
08/03/2014  20:53:00     -278.504      -64.893        0.330      100.043       79.969       54.411    10008.558     6394.991     2960.574        5.057        0.968      285.964       58.017        0.041      347.388       26.319      860.885
08/03/2014  20:54:00     -218.033      -51.424       -1.808       90.418       94.785       47.028     8175.330     8984.144     2211.639        3.477        0.969      224.015       36.491        0.027      347.342       26.239      860.886
08/03/2014  20:55:00     -258.392      -75.983      -16.179      190.195       82.631       63.374    36174.291     6827.937     4016.246        5.990        2.351      269.332       76.554        0.081      347.381       26.306      860.870
08/03/2014  20:56:00     -312.629      -61.912       -8.573      135.127       93.180       52.497    18259.298     8682.578     2755.888        6.566        1.485      318.700       56.710        0.032      347.377       26.298      860.860
08/03/2014  20:57:00     -294.555      -68.119       -0.043      103.585       80.409       58.282    10729.750     6465.568     3396.839        5.599        1.030      302.329       56.862        0.035      347.346       26.246      860.881
08/03/2014  20:58:00     -311.506       18.693      -17.955      143.882      127.275       74.127    20702.110    16198.924     5494.769        7.004        2.120      312.066       77.752        0.062      347.367       26.282      860.886
08/03/2014  20:59:00     -326.482      -80.475      -25.927      113.280      120.584       43.626    12832.419    14540.618     1903.200        7.150        1.464      336.254       42.718        0.016      347.361       26.269      860.875
08/03/2014  21:00:00     -264.876      -53.033       -8.422      109.483       90.208       52.114    11986.503     8137.399     2715.832        4.794        1.142      270.133       52.855        0.038      347.346       26.245      860.891
08/03/2014  21:01:00     -319.915      -51.584      -17.796      104.887       94.615       53.026    11001.310     8952.085     2811.799        6.404        1.138      324.047       52.944        0.027      347.352       26.257      860.919
08/03/2014  21:02:00     -298.528      -62.266       -5.427      146.274       83.793       59.121    21396.218     7021.323     3495.346        6.246        1.596      304.953       71.996        0.056      347.368       26.283      860.942
08/03/2014  21:03:00     -211.728      -21.432      -12.267      100.963       78.217       53.659    10193.521     6117.966     2879.268        3.231        0.960      212.810       62.054        0.085      347.370       26.287      860.961
08/03/2014  21:04:00     -286.227      -23.289      -33.182      106.888       96.822       45.617    11424.965     9374.537     2080.873        5.322        1.144      287.173       50.370        0.031      347.370       26.288      860.961
08/03/2014  21:05:00     -136.292      -71.331      -11.849       72.856       71.844       30.303     5308.061     5161.612      918.249        1.759        0.569      153.830       30.825        0.040      347.376       26.298      860.961
08/03/2014  21:06:00     -121.637      -39.647       -5.105       59.677       66.747       47.319     3561.322     4455.135     2239.062        1.332        0.513      127.935       37.229        0.085      347.343       26.243      860.962
08/03/2014  21:07:00      -99.865      -48.128       -8.882       93.930       60.828       35.154     8822.845     3700.091     1235.806        1.306        0.688      110.857       22.169        0.040      347.310       26.185      860.951
08/03/2014  21:08:00     -166.847      -55.250      -23.267       88.504       62.916       38.912     7833.015     3958.466     1514.115        2.237        0.665      175.757       23.370        0.018      347.307       26.180      860.956
08/03/2014  21:09:00     -286.826      -36.608      -22.106      130.199       94.624       51.216    16951.778     8953.707     2623.048        5.631        1.426      289.152       51.045        0.031      347.279       26.130      860.964
08/03/2014  21:10:00     -256.930      -58.819      -18.950       73.890      135.345       49.389     5459.761    18318.192     2439.243        4.802        1.311      263.577       37.594        0.020      347.271       26.115      860.947
08/03/2014  21:11:00     -216.392     -103.247       -8.975       72.487       66.231       45.046     5254.433     4386.544     2029.139        3.462        0.584      239.761       33.783        0.020      347.264       26.101      860.931
08/03/2014  21:12:00     -257.796      -13.224       -8.926       84.638      100.698       46.152     7163.525    10140.175     2130.008        4.307        0.972      258.135       27.847        0.012      347.275       26.122      860.936
08/03/2014  21:13:00     -235.454      -37.983      -14.552       91.006       63.010       39.926     8282.004     3970.215     1594.055        3.547        0.692      238.498       34.464        0.021      347.269       26.111      860.936
08/03/2014  21:14:00     -293.327      -48.842      -15.517      104.783      100.247       54.381    10979.481    10049.460     2957.327        5.632        1.199      297.366       51.758        0.030      347.301       26.167      860.941
08/03/2014  21:15:00     -267.375      -46.646      -20.318       89.485       78.102       50.864     8007.523     6099.883     2587.194        4.538        0.835      271.414       47.016        0.030      347.284       26.137      860.962
08/03/2014  21:16:00     -353.886      -45.847      -24.720       97.227       99.543       50.539     9453.091     9908.891     2554.184        7.493        1.096      356.844       42.416        0.014      347.295       26.157      860.986
08/03/2014  21:17:00     -342.088     -165.477      -18.321      141.203      103.172       65.095    19938.374    10644.451     4237.327        8.977        1.741      380.009       72.081        0.036      347.301       26.168      861.005
08/03/2014  21:18:00     -317.480      -82.209      -28.837       95.813       92.817       56.275     9180.135     8615.007     3166.915        6.467        1.048      327.951       56.936        0.030      347.294       26.155      861.023
08/03/2014  21:19:00     -320.546      -71.866      -24.047      131.043      115.417       62.577    17172.298    13321.165     3915.828        7.144        1.720      328.504       66.219        0.041      347.294       26.156      861.048
08/03/2014  21:20:00     -195.278      -19.417      -12.749      110.678       91.052       43.149    12249.660     8290.508     1861.865        3.053        1.120      196.241       44.725        0.052      347.270       26.114      861.071
08/03/2014  21:21:00     -243.686      -22.109      -12.480       79.887       71.364       37.797     6381.979     5092.828     1428.622        3.646        0.645      244.687       42.803        0.031      347.285       26.138      861.084
08/03/2014  21:22:00     -263.376      -30.833      -16.096      114.717       86.185       53.269    13160.025     7427.819     2837.565        4.700        1.171      265.175       58.275        0.048      347.270       26.112      861.090
08/03/2014  21:23:00     -288.268      -55.875      -29.141      119.049      106.227       57.114    14172.631    11284.272     3261.981        5.789        1.436      293.633       55.600        0.036      347.265       26.104      861.082
08/03/2014  21:24:00     -233.541      -65.647       -3.704       91.499      101.727       48.535     8372.044    10348.439     2355.663        3.997        1.054      242.593       36.383        0.022      347.245       26.070      861.083
08/03/2014  21:25:00     -333.483      -43.900      -31.534       89.170      128.524       56.575     7951.288    16518.294     3200.705        7.090        1.384      336.360       53.752        0.026      347.251       26.080      861.082
08/03/2014  21:26:00     -212.449      -28.839        6.166      129.003       89.152       59.001    16641.893     7948.043     3481.175        3.703        1.404      214.398       63.135        0.087      347.226       26.038      861.077
08/03/2014  21:27:00     -241.816      -37.726       -0.233      111.597       90.063       49.277    12453.809     8111.388     2428.217        4.144        1.150      244.741       51.397        0.044      347.205       26.003      861.074
08/03/2014  21:28:00     -166.687        5.547        4.041       94.202       85.714       45.289     8874.104     7346.897     2051.059        2.305        0.914      166.779       45.947        0.076      347.183       25.965      861.063
08/03/2014  21:29:00     -237.081      -49.654      -11.554       94.185       73.967       44.662     8870.739     5471.105     1994.687        3.757        0.817      242.225       39.882        0.027      347.195       25.986      861.077
08/03/2014  21:30:00     -199.197      -27.356       -9.209       79.083       64.822       49.295     6254.134     4201.906     2429.993        2.670        0.644      201.067       45.817        0.052      347.204       26.001      861.083
08/03/2014  21:31:00     -264.388       -2.972      -15.401      106.313       99.947       57.209    11302.496     9989.457     3272.883        4.735        1.228      264.405       54.845        0.043      347.178       25.955      861.109
08/03/2014  21:32:00     -284.042      -15.726      -27.650      128.073       95.474       55.398    16402.630     9115.204     3068.972        5.513        1.429      284.477       56.917        0.040      347.208       26.007      861.118
08/03/2014  21:33:00     -291.820       -6.860      -15.521      110.791       97.653       53.172    12274.656     9536.068     2827.246        5.504        1.232      291.900       49.097        0.028      347.239       26.059      861.142
08/03/2014  21:34:00     -343.758     -103.024      -24.724       94.684       70.144       48.913     8965.095     4920.187     2392.517        7.283        0.814      358.864       45.150        0.016      347.262       26.097      861.159
08/03/2014  21:35:00     -249.876      -11.243       -9.956       98.683       91.320       47.181     9738.429     8339.415     2226.038        4.148        1.015      250.129       52.712        0.044      347.224       26.034      861.172
08/03/2014  21:36:00     -260.004      -24.739      -33.585       91.085       72.238       43.849     8296.530     5218.270     1922.729        4.239        0.772      261.179       45.053        0.030      347.217       26.023      861.171
08/03/2014  21:37:00     -274.737      -37.529      -30.012      156.439       60.910       47.956    24473.009     3710.027     2299.753        5.413        1.524      277.289       60.880        0.048      347.203       25.999      861.171
08/03/2014  21:38:00     -205.608      -52.836       -9.409      122.467       80.384       53.695    14998.222     6461.641     2883.130        3.474        1.217      212.288       63.025        0.088      347.171       25.945      861.170
08/03/2014  21:39:00     -266.671       -6.090      -33.093       88.019       87.966       43.767     7747.264     7738.016     1915.515        4.482        0.870      266.740       39.115        0.022      347.182       25.964      861.173
08/03/2014  21:40:00     -197.632      -48.294       -2.692      120.079      109.437       54.137    14418.894    11976.480     2930.797        3.536        1.466      203.447       58.514        0.083      347.153       25.916      861.156
08/03/2014  21:41:00     -305.077      -12.744      -19.357       82.961       98.817       51.143     6882.548     9764.749     2615.607        5.643        0.963      305.343       46.118        0.023      347.157       25.920      861.156
08/03/2014  21:42:00     -180.685      -70.725        3.973       86.552       72.015       49.378     7491.275     5186.104     2438.168        2.639        0.756      194.034       50.934        0.069      347.136       25.884      861.149
08/03/2014  21:43:00     -273.045      -47.424      -25.415      103.687       89.615       47.514    10751.070     8030.923     2257.619        4.924        1.052      277.132       40.427        0.021      347.140       25.891      861.161
08/03/2014  21:44:00     -232.308      -38.514      -13.720      116.306      101.586       57.467    13527.014    10319.774     3302.428        4.139        1.357      235.479       34.161        0.021      347.140       25.891      861.164
08/03/2014  21:45:00     -337.170      -44.496      -15.322      126.256       93.577       60.694    15940.692     8756.578     3683.717        7.213        1.419      340.093       56.532        0.028      347.144       25.896      861.183
08/03/2014  21:46:00     -303.045      -12.678      -24.275      109.210       80.058       35.978    11926.886     6409.209     1294.405        5.610        0.982      303.311       33.612        0.012      347.147       25.901      861.192
08/03/2014  21:47:00     -223.015      -88.230       -4.110      144.840      112.440       58.464    20978.551    12642.798     3418.004        4.728        1.852      239.834       62.379        0.068      347.116       25.849      861.190
08/03/2014  21:48:00     -254.862      -25.375      -15.469      111.291       67.101       39.976    12385.659     4502.509     1598.043        4.216        0.924      256.122       44.628        0.030      347.117       25.852      861.200
08/03/2014  21:49:00     -249.903      -26.106       -9.027      101.421       81.080       47.770    10286.133     6573.925     2281.956        4.117        0.957      251.262       47.283        0.035      347.080       25.787      861.202
08/03/2014  21:50:00     -298.996      -63.015      -14.517       86.038       93.815       43.074     7402.505     8801.279     1855.405        5.582        0.903      305.565       38.406        0.016      347.094       25.808      861.181
08/03/2014  21:51:00     -281.216     -105.359       -2.956      101.951      109.286       54.642    10393.949    11943.453     2985.736        5.775        1.266      300.305       62.689        0.044      347.068       25.764      861.157
08/03/2014  21:52:00     -309.345      -67.803      -13.971      148.496      130.116       62.745    22051.118    16930.095     3936.882        7.169        2.146      316.688       76.880        0.059      347.051       25.736      861.154
08/03/2014  21:53:00     -187.777      -30.499       -4.105      146.591       90.049       56.436    21488.872     8108.734     3184.973        3.449        1.639      190.237       68.382        0.129      347.044       25.728      861.157
08/03/2014  21:54:00     -299.683      -20.102      -16.570       91.021       88.589       49.968     8284.910     7847.970     2496.791        5.456        0.931      300.356       45.471        0.023      347.052       25.736      861.182
08/03/2014  21:55:00     -127.656      -27.384       12.755       94.725       94.849       39.394     8972.857     8996.360     1551.859        1.836        0.976      130.560       37.686        0.083      347.037       25.715      861.201
08/03/2014  21:56:00     -236.636       18.774      -10.540      152.415       65.241       66.892    23230.406     4256.376     4474.603        4.420        1.598      237.380       80.869        0.116      347.050       25.736      861.222
08/03/2014  21:57:00     -260.701       11.558      -23.505      110.693       87.953       55.690    12252.967     7735.657     3101.338        4.587        1.154      260.957       54.722        0.044      347.050       25.735      861.241
08/03/2014  21:58:00     -199.733      -23.803      -10.528      127.331       98.857       53.171    16213.269     9772.791     2827.128        3.469        1.441      201.146       66.029        0.108      347.048       25.730      861.279
08/03/2014  21:59:00     -185.530       -1.546      -16.441       81.030       90.730       37.286     6565.781     8231.907     1390.269        2.544        0.809      185.536       37.628        0.041      347.042       25.723      861.286
08/03/2014  22:00:00     -148.717      -46.843      -11.123       63.316       56.966       33.790     4008.963     3245.110     1141.765        1.641        0.420      155.919       29.060        0.035      347.018       25.683      861.289
08/03/2014  22:01:00     -135.782      -51.933       -2.665       76.790       73.328       45.275     5896.637     5376.959     2049.828        1.723        0.666      145.375       45.293        0.097      347.000       25.649      861.284
08/03/2014  22:02:00     -212.665      -54.516       -1.107      131.011       76.209       43.001    17163.907     5807.834     1849.075        3.651        1.241      219.541       54.204        0.061      346.989       25.631      861.277
08/03/2014  22:03:00     -282.187      -47.155       -8.323       96.098       83.675       43.010     9234.768     7001.460     1849.897        5.000        0.904      286.099       34.176        0.014      346.971       25.600      861.263
08/03/2014  22:04:00     -213.033      -44.462       -0.643       97.053       74.692       49.127     9419.311     5578.882     2413.496        3.238        0.871      217.624       46.085        0.045      346.971       25.599      861.238
08/03/2014  22:05:00     -166.479      -51.294        0.279       77.418       57.692       38.180     5993.514     3328.341     1457.684        2.056        0.539      174.202       39.863        0.052      346.965       25.590      861.229
08/03/2014  22:06:00     -123.276      -15.753        6.072       81.867       72.349       34.098     6702.275     5234.348     1162.697        1.429        0.655      124.279       33.768        0.074      346.947       25.561      861.232
08/03/2014  22:07:00     -201.539       11.373        2.448       77.068       68.703       32.113     5939.548     4720.147     1031.241        2.622        0.585      201.860       30.655        0.023      346.936       25.541      861.230
08/03/2014  22:08:00      -47.019      -66.179        8.679       61.111       75.282       34.258     3734.502     5667.376     1173.626        0.862        0.529       81.181       34.788        0.184      346.945       25.558      861.248
08/03/2014  22:09:00        0.078      -20.080       11.278       52.788       57.223       33.688     2786.599     3274.431     1134.914        0.386        0.360       20.080       23.227        1.338      346.958       25.581      861.265
08/03/2014  22:10:00      -72.355      -77.106       -7.928       32.028       42.495       28.257     1025.769     1805.803      798.460        0.744        0.182      105.738       15.139        0.020      346.998       25.649      861.282
08/03/2014  22:11:00     -105.289     -110.307        2.825       98.278       78.922       46.826     9658.473     6228.619     2192.716        2.067        0.904      152.491       54.752        0.129      346.958       25.579      861.303
08/03/2014  22:12:00     -100.082      -98.779        7.360       91.548       76.805       46.217     8381.063     5898.984     2136.005        1.812        0.821      140.619       48.063        0.117      346.929       25.528      861.307
08/03/2014  22:13:00      -10.623      -41.723       26.709       51.243       36.910       30.665     2625.862     1362.337      940.329        0.375        0.246       43.054       32.920        0.585      346.950       25.568      861.311
08/03/2014  22:14:00      -50.972     -103.838        5.936       30.007       35.719       19.061      900.444     1275.818      363.305        0.798        0.127      115.674        8.843        0.006      346.951       25.568      861.306
08/03/2014  22:15:00      -62.319     -118.822       -2.305       33.638       34.337       23.938     1131.525     1179.032      573.009        1.045        0.144      134.173       18.110        0.018      346.967       25.596      861.291
08/03/2014  22:16:00      -15.941      -60.857        3.923       17.384       37.415       19.236      302.189     1399.852      370.037        0.302        0.104       62.910       17.095        0.074      346.981       25.617      861.276
08/03/2014  22:17:00      -12.674      -31.851        7.845       10.671       12.996       10.849      113.863      168.904      117.697        0.082        0.020       34.280        7.777        0.051      346.902       25.482      861.260
08/03/2014  22:18:00      -13.112       -8.778        0.914       22.806       12.493       12.672      520.095      156.067      160.577        0.054        0.042       15.779        9.688        0.377      346.832       25.363      861.258
08/03/2014  22:19:00       -6.766      -18.064        2.720       20.824       14.210       11.778      433.623      201.928      138.713        0.058        0.039       19.290        8.354        0.188      346.943       25.553      861.252
08/03/2014  22:20:00      -26.430      -52.959       -1.761       31.437       50.191       15.689      988.261     2519.097      246.147        0.363        0.188       59.188       15.165        0.066      346.890       25.465      861.255
08/03/2014  22:21:00      -59.413     -172.545        2.944       45.140       81.928       35.541     2037.653     6712.157     1263.132        2.166        0.501      182.488       27.870        0.023      347.004       25.656      861.253
08/03/2014  22:22:00      -89.152      -79.703       -5.919       31.794       49.816       19.065     1010.857     2481.657      363.459        0.910        0.193      119.585        8.375        0.005      347.017       25.678      861.233
08/03/2014  22:23:00       10.187      -62.413        8.761       55.864       49.424       29.325     3120.748     2442.761      859.967        0.525        0.321       63.239       29.908        0.224      346.958       25.579      861.224
08/03/2014  22:24:00       30.335      -35.173        8.043       38.466       28.509       30.124     1479.619      812.751      907.434        0.271        0.160       46.447       20.612        0.197      346.927       25.526      861.213
08/03/2014  22:25:00        4.543      -39.531        9.965       33.317       48.208       19.985     1110.022     2324.040      399.403        0.276        0.192       39.791       26.433        0.441      346.874       25.435      861.217
08/03/2014  22:26:00       28.273     -115.253      -17.306       43.074       39.576       26.467     1855.353     1566.256      700.492        0.925        0.206      118.670       24.689        0.043      346.959       25.582      861.248
08/03/2014  22:27:00       42.913        0.311       24.656       31.727       68.788       35.012     1006.629     4731.744     1225.819        0.471        0.348       42.914       37.016        0.744      346.917       25.509      861.258
08/03/2014  22:28:00       -7.325      -40.296       15.203       62.579       53.430       34.659     3916.085     2854.788     1201.241        0.494        0.399       40.957       35.550        0.753      346.912       25.500      861.288
08/03/2014  22:29:00       46.093     -131.429      -14.285       60.316       57.950       38.434     3638.049     3358.226     1477.148        1.404        0.424      139.277       35.078        0.063      346.954       25.572      861.317
08/03/2014  22:30:00      -34.240     -114.135       15.486       34.030       49.666       29.223     1158.055     2466.731      853.958        0.946        0.224      119.161       27.189        0.052      347.016       25.679      861.339
08/03/2014  22:31:00      -26.153      -25.902       12.830       32.706       35.046       20.397     1069.652     1228.191      416.038        0.212        0.136       36.809       17.044        0.214      347.021       25.687      861.366
08/03/2014  22:32:00     -114.688      -95.318       -4.125       67.382       93.200       37.520     4540.378     8686.266     1407.742        1.844        0.732      149.127       35.692        0.057      347.051       25.739      861.386
08/03/2014  22:33:00     -196.337     -138.169       -8.274       68.927       52.173       39.793     4750.883     2721.989     1583.483        3.338        0.453      240.081       38.358        0.026      347.076       25.777      861.390
08/03/2014  22:34:00      -73.083      -84.019       14.674       50.852       59.730       34.573     2585.882     3567.703     1195.284        0.998        0.367      111.357       29.498        0.070      347.076       25.783      861.382
08/03/2014  22:35:00     -105.377     -114.176        1.999       66.200       49.125       30.290     4382.433     2413.282      917.509        1.593        0.386      155.372       29.408        0.036      347.108       25.838      861.385
08/03/2014  22:36:00      -56.994       26.630       11.669       45.109       57.081       22.794     2034.796     3258.200      519.553        0.495        0.291       62.908       16.954        0.073      347.091       25.811      861.387
08/03/2014  22:37:00      -56.237      -68.545       -5.167       41.875       53.217       32.460     1753.524     2832.079     1053.675        0.676        0.282       88.663       27.541        0.096      347.097       25.820      861.402
08/03/2014  22:38:00      -48.655     -155.649        0.547       60.651       49.401       31.244     3678.585     2440.496      976.171        1.684        0.355      163.077       14.509        0.008      347.114       25.846      861.424
08/03/2014  22:39:00      -49.844      -88.413       -1.277       33.053       46.966       24.374     1092.513     2205.797      594.084        0.710        0.195      101.495       18.398        0.033      347.114       25.845      861.418
08/03/2014  22:40:00      -22.034      -86.666       -7.499       39.437       29.074       17.159     1555.309      845.287      294.439        0.537        0.135       89.423       13.524        0.023      347.082       25.790      861.412
08/03/2014  22:41:00      -14.516      -29.404        5.458       18.281       38.865       19.751      334.181     1510.497      390.102        0.167        0.112       32.792       15.383        0.220      347.022       25.690      861.407
08/03/2014  22:42:00       10.370      -81.237      -16.101       30.159       29.910       20.709      909.544      894.614      428.862        0.460        0.112       81.896       12.282        0.022      347.061       25.759      861.405
08/03/2014  22:43:00      -16.155      -51.312       -8.857       29.827       30.784       18.594      889.628      947.633      345.722        0.258        0.109       53.795       19.237        0.128      346.931       25.532      861.418
08/03/2014  22:44:00      -60.994      -54.828       -4.439       37.305       30.937       21.929     1391.660      957.079      480.899        0.479        0.141       82.014       19.397        0.056      347.014       25.675      861.429
08/03/2014  22:45:00      -83.977      -10.084       -0.837       57.762       35.328       24.070     3336.498     1248.040      579.346        0.616        0.258       84.580       19.722        0.054      347.012       25.673      861.433
08/03/2014  22:46:00      -12.546        0.552       -1.279       30.936       26.797       32.798      957.043      718.077     1075.738        0.145        0.138       12.558       18.199        2.100      346.949       25.564      861.446
08/03/2014  22:47:00       75.685       43.778       36.350       62.412       56.141       49.335     3895.283     3151.846     2433.924        0.922        0.474       87.434       36.813        0.177      346.972       25.603      861.456
08/03/2014  22:48:00       49.789      -23.967        8.712       49.246       72.925       28.934     2425.204     5317.986      837.171        0.585        0.429       55.257       28.832        0.272      347.010       25.669      861.463
08/03/2014  22:49:00       49.348       31.027       86.542       74.999       86.549       61.691     5624.806     7490.698     3805.759        1.390        0.846       58.291       62.582        1.153      346.993       25.640      861.462
08/03/2014  22:50:00       51.983       55.114       81.004       52.057       61.539       47.360     2709.910     3787.060     2243.003        1.052        0.437       75.761       46.577        0.378      346.973       25.606      861.466
08/03/2014  22:51:00       22.851       49.693       77.859       73.130       62.525       41.782     5347.928     3909.386     1745.742        1.003        0.550       54.695       43.235        0.625      346.965       25.591      861.470
08/03/2014  22:52:00       29.957       -9.367       38.393       33.748       58.008       33.954     1138.952     3364.891     1152.879        0.406        0.283       31.388       31.864        1.031      346.944       25.556      861.481
08/03/2014  22:53:00       53.608       49.434       44.759       33.124       43.209       28.766     1097.180     1867.000      827.498        0.556        0.190       72.922       18.859        0.067      346.876       25.438      861.500
08/03/2014  22:54:00       99.526       58.460       31.120       41.873       27.607       27.995     1753.353      762.156      783.711        0.879        0.165      115.426       22.427        0.038      346.828       25.356      861.520
08/03/2014  22:55:00       49.051       56.937       46.564       26.498       21.594       23.768      702.119      466.285      564.916        0.477        0.087       75.152       13.991        0.035      346.753       25.226      861.527
08/03/2014  22:56:00      105.644       67.683       33.902       34.039       41.526       39.396     1158.662     1724.448     1552.060        1.066        0.222      125.466       27.837        0.049      346.858       25.407      861.527
08/03/2014  22:57:00       77.735       56.538       22.610       29.734       27.048       18.516      884.121      731.589      342.856        0.585        0.098       96.122        9.740        0.010      346.840       25.376      861.522
08/03/2014  22:58:00       56.530       20.497        5.735       22.572       20.384       18.160      509.501      415.509      329.790        0.245        0.063       60.132       10.820        0.032      346.834       25.367      861.516
08/03/2014  22:59:00       65.768       24.500       16.879       37.523       21.230       15.246     1407.953      450.723      232.428        0.365        0.105       70.183       11.373        0.026      346.800       25.310      861.516
08/03/2014  23:00:00       81.759       27.257       15.123       34.792       29.776       19.613     1210.496      886.590      384.682        0.507        0.124       86.183       20.471        0.056      346.874       25.436      861.515
08/03/2014  23:01:00       60.093       46.761       10.094       33.278       18.658       18.830     1107.400      348.132      354.581        0.385        0.091       76.143       12.801        0.028      346.852       25.396      861.504
08/03/2014  23:02:00       49.723       32.902        4.206       24.339       20.421       16.005      592.371      417.027      256.163        0.242        0.063       59.624       13.123        0.048      346.830       25.360      861.492
08/03/2014  23:03:00       15.211       37.279        0.537       13.829       28.154       13.305      191.253      792.628      177.012        0.139        0.058       40.263       15.508        0.148      346.789       25.291      861.484
08/03/2014  23:04:00       17.169       57.848       -7.061       16.269       33.279       17.201      264.675     1107.518      295.865        0.268        0.083       60.342       20.612        0.117      346.797       25.302      861.469
08/03/2014  23:05:00       15.315       55.989       -5.160       18.975       26.018       17.439      360.038      676.940      304.135        0.237        0.067       58.046       15.563        0.072      346.767       25.251      861.462
08/03/2014  23:06:00       19.143       59.470       -3.181       22.106       40.518       19.864      488.672     1641.686      394.583        0.322        0.126       62.475       22.499        0.130      346.754       25.229      861.454
08/03/2014  23:07:00       23.721       61.002       -3.638       20.321       28.373       16.867      412.950      804.999      284.510        0.290        0.075       65.452       15.869        0.059      346.778       25.269      861.460
08/03/2014  23:08:00       15.139       83.518       -8.765       18.185       22.099       16.940      330.705      488.348      286.956        0.419        0.055       84.879       14.586        0.030      346.746       25.215      861.457
08/03/2014  23:09:00       35.935       83.160       -5.808       34.321       43.999       27.748     1177.954     1935.899      769.937        0.606        0.194       90.592       25.775        0.081      346.717       25.164      861.471
08/03/2014  23:10:00       31.302       56.032       -1.412       29.642       36.525       31.281      878.674     1334.074      978.521        0.366        0.160       64.183       26.496        0.170      346.733       25.192      861.478
08/03/2014  23:11:00       33.570       53.516       -4.056       21.692       23.533       22.266      470.560      553.810      495.759        0.276        0.076       63.174       16.423        0.068      346.746       25.214      861.477
08/03/2014  23:12:00        9.376       14.035        3.858       15.913       11.971       13.945      253.222      143.316      194.468        0.045        0.030       16.879       13.102        0.603      346.715       25.162      861.481
08/03/2014  23:13:00       -3.234       31.916        6.645       15.365       11.092       11.879      236.069      123.037      141.110        0.079        0.025       32.080        4.808        0.022      346.681       25.103      861.487
08/03/2014  23:14:00      -25.363       33.589       -9.411       17.216       10.309        7.299      296.375      106.280       53.274        0.116        0.023       42.089        8.181        0.038      346.658       25.064      861.495
08/03/2014  23:15:00      -27.253       -3.104       -1.319        7.491       11.336        5.782       56.117      128.510       33.433        0.049        0.011       27.429        6.322        0.053      346.620       25.001      861.503
08/03/2014  23:16:00      -61.878       -3.674       -6.410       15.912        9.363        8.073      253.197       87.673       65.178        0.214        0.020       61.987        3.771        0.004      346.595       24.955      861.511
08/03/2014  23:17:00      -48.410      -12.229       -2.896       16.638       15.606        9.135      276.830      243.558       83.449        0.155        0.030       49.931        7.820        0.025      346.684       25.108      861.516
08/03/2014  23:18:00      -29.318        1.124        0.060       14.786        8.476       12.440      218.632       71.841      154.748        0.065        0.022       29.339        8.866        0.091      346.618       24.996      861.521
08/03/2014  23:19:00      -36.798       32.528       -7.524       16.866       25.165       10.571      284.450      633.282      111.753        0.175        0.051       49.113       10.265        0.044      346.672       25.087      861.525
08/03/2014  23:20:00      -40.871       54.441       -7.502       17.477       12.812       11.506      305.448      164.148      132.399        0.265        0.030       68.076        8.816        0.017      346.730       25.187      861.542
08/03/2014  23:21:00      -26.003       48.655       -5.687       15.604       16.945       12.050      243.480      287.149      145.195        0.188        0.034       55.168       11.654        0.045      346.682       25.104      861.555
08/03/2014  23:22:00      -68.011       47.834      -18.736       20.614       34.070       15.343      424.945     1160.760      235.393        0.454        0.091       83.148        8.908        0.011      346.851       25.398      861.566
08/03/2014  23:23:00       -8.371      -35.900        0.779       25.805       21.283       19.381      665.889      452.972      375.636        0.143        0.075       36.863       11.404        0.096      346.833       25.365      861.572
08/03/2014  23:24:00      -26.632       16.116        1.756       15.136       30.361        8.197      229.085      921.770       67.190        0.109        0.061       31.128        4.311        0.019      346.805       25.315      861.580
08/03/2014  23:25:00        0.287       22.268        0.148        9.409       13.867        9.006       88.539      192.305       81.100        0.043        0.018       22.270        8.989        0.163      346.751       25.224      861.590
08/03/2014  23:26:00        5.162       35.638       -5.183        7.938       10.830        4.747       63.014      117.287       22.538        0.076        0.010       36.009        3.215        0.008      346.751       25.225      861.608
08/03/2014  23:27:00       30.513       28.366        1.326       20.515       16.408       11.203      420.848      269.216      125.517        0.128        0.041       41.662        9.183        0.049      346.655       25.058      861.621
08/03/2014  23:28:00       28.395       27.358       -0.027       23.191       22.536       15.558      537.836      507.860      242.065        0.142        0.064       39.430        8.074        0.042      346.694       25.126      861.640
08/03/2014  23:29:00       39.943       12.458        4.571       22.282       13.733       10.687      496.481      188.596      114.217        0.129        0.040       41.841       11.435        0.075      346.659       25.066      861.653
08/03/2014  23:30:00       22.794       13.754       13.543       21.355       14.950       14.962      456.039      223.490      223.861        0.090        0.045       26.622        8.710        0.107      346.623       25.003      861.672
08/03/2014  23:31:00       27.859       10.723       16.411       18.788       16.087       14.615      352.979      258.777      213.606        0.099        0.041       29.852       11.710        0.154      346.569       24.910      861.688
08/03/2014  23:32:00       14.345       10.868       18.635       21.118       18.276       13.480      445.988      334.024      181.720        0.082        0.048       17.997       11.192        0.387      346.589       24.945      861.700
08/03/2014  23:33:00        5.283        1.884       19.808       11.927        8.569        6.547      142.248       73.434       42.862        0.034        0.013        5.608        6.589        1.380      346.554       24.884      861.714
08/03/2014  23:34:00        9.889       14.244       21.429       17.200       22.179       14.783      295.832      491.892      218.547        0.088        0.050       17.340        9.749        0.316      346.480       24.758      861.730
08/03/2014  23:35:00       25.168       18.338       18.464       15.144       10.808       10.019      229.338      116.821      100.388        0.088        0.022       31.140        4.192        0.018      346.505       24.802      861.747
08/03/2014  23:36:00       23.712       -2.929        0.897       11.613       10.168       11.144      134.863      103.382      124.191        0.047        0.018       23.892        6.280        0.069      346.497       24.788      861.761
08/03/2014  23:37:00       21.243      -19.352        2.059       20.264       27.031       11.349      410.619      730.677      128.799        0.105        0.064       28.736       11.305        0.155      346.574       24.918      861.777
08/03/2014  23:38:00        3.230      -22.327        1.802       15.083       27.743       13.221      227.489      769.666      174.798        0.084        0.059       22.560        9.313        0.170      346.562       24.896      861.785
08/03/2014  23:39:00      -20.376       38.057       -6.877       11.395       14.003       12.266      129.857      196.094      150.456        0.119        0.024       43.168        9.470        0.048      346.519       24.827      861.798
08/03/2014  23:40:00      -51.709       45.811       -9.356       16.226       15.575       10.425      263.291      242.578      108.671        0.274        0.031       69.083        9.444        0.019      346.626       25.009      861.804
08/03/2014  23:41:00      -59.487       62.690      -18.924       10.695       13.641        8.563      114.373      186.081       73.329        0.410        0.019       86.422        4.741        0.003      346.677       25.095      861.818
08/03/2014  23:42:00      -48.535       58.650      -11.392       21.188       18.327       11.068      448.949      335.872      122.503        0.342        0.045       76.128       11.823        0.024      346.608       24.979      861.830
08/03/2014  23:43:00      -51.316       26.527       -7.053       11.717       14.481       15.875      137.283      209.711      252.013        0.199        0.030       57.767       10.753        0.035      346.619       24.996      861.840
08/03/2014  23:44:00      -44.622       24.449       -4.231       15.611       12.554        9.059      243.713      157.606       82.067        0.154        0.024       50.881        5.420        0.011      346.627       25.011      861.842
08/03/2014  23:45:00      -54.741       44.317      -11.125       17.338       18.174       13.912      300.617      330.284      193.547        0.295        0.041       70.431       12.859        0.033      346.581       24.931      861.848
08/03/2014  23:46:00      -64.376       55.376      -13.090       18.298       18.858       12.400      334.828      355.638      153.754        0.411        0.042       84.916       11.380        0.018      346.556       24.888      861.851
08/03/2014  23:47:00      -50.546       56.706      -14.751       16.411       16.743        7.103      269.321      280.339       50.448        0.329        0.030       75.963        4.947        0.004      346.545       24.869      861.858
08/03/2014  23:48:00      -30.376       67.019       -9.763       14.000       35.363        9.968      196.007     1250.557       99.359        0.353        0.077       73.582       11.541        0.025      346.482       24.761      861.856
08/03/2014  23:49:00      -26.828       83.202      -14.231       14.368       22.367       10.796      206.440      500.276      116.548        0.433        0.041       87.421       11.511        0.017      346.461       24.725      861.856
08/03/2014  23:50:00        5.032       77.176      -13.798       13.032       14.820        6.990      169.827      219.630       48.854        0.330        0.022       77.340        6.600        0.007      346.517       24.821      861.859
08/03/2014  23:51:00        1.517       78.160      -16.699       16.921       12.440        8.814      286.316      154.744       77.687        0.345        0.026       78.174        6.278        0.006      346.499       24.791      861.860
08/03/2014  23:52:00      -29.617       75.733      -14.024       14.178       22.720        9.744      201.026      516.189       94.944        0.381        0.041       81.318       10.152        0.016      346.369       24.569      861.863
08/03/2014  23:53:00       -9.935       68.514      -13.680       17.556       28.293       10.127      308.204      800.497      102.566        0.310        0.061       69.231       12.384        0.032      346.360       24.552      861.857
08/03/2014  23:54:00      -23.849       94.485      -12.400       13.408       15.748        7.437      179.773      247.994       55.307        0.507        0.024       97.448        6.376        0.004      346.432       24.676      861.852
08/03/2014  23:55:00       -0.524       80.941      -10.040        9.524        9.604        5.800       90.702       92.242       33.637        0.343        0.011       80.943        4.416        0.003      346.521       24.832      861.844
08/03/2014  23:56:00        3.005       87.819      -15.421       24.698       15.894        9.600      609.979      252.634       92.164        0.446        0.048       87.870        5.779        0.004      346.425       24.666      861.840
08/03/2014  23:57:00      -24.966       71.961      -12.263       16.554       16.215        9.150      274.041      262.924       83.723        0.329        0.031       76.169        8.516        0.013      346.364       24.558      861.837
08/03/2014  23:58:00       -8.284       97.069      -18.151       18.953       16.121        9.693      359.224      259.889       93.952        0.527        0.036       97.422        8.667        0.008      346.422       24.657      861.834
08/03/2014  23:59:00      -25.933       83.942      -15.964       14.226       12.626        7.021      202.370      159.421       49.294        0.419        0.021       87.856        5.397        0.004      346.351       24.535      861.830
